<?xml version="1.0" encoding="UTF-8" standalone="no" ?>
<gpx xmlns="http://www.topografix.com/GPX/1/1" xmlns:xsi="http://www.w3.org/2001/XMLSchema-instance" xsi:schemaLocation="http://www.topografix.com/GPX/1/1 http://www.topografix.com/GPX/1/1/gpx.xsd" version="1.1" creator="VisuGPX - https://www.visugpx.com">
  <metadata>
    <name>Kirbon Les Michels</name>
    <desc><![CDATA[Rando tranquille dans des forêts de chênes et de pins.  ]]></desc>
  </metadata>
  <trk>
    <name><![CDATA[Kirbon Les Michels_1]]></name>
    <trkseg>
      <trkpt lat="43.41393" lon="5.66666">
        <ele>436.7</ele>
        <time>2013-04-10T07:00:00Z</time>
      </trkpt>
      <trkpt lat="43.41394" lon="5.66666">
        <ele>437.5</ele>
        <time>2013-04-10T07:00:01Z</time>
      </trkpt>
      <trkpt lat="43.41381" lon="5.66682">
        <ele>423.7</ele>
        <time>2013-04-10T07:00:35Z</time>
      </trkpt>
      <trkpt lat="43.41376" lon="5.66692">
        <ele>422.1</ele>
        <time>2013-04-10T07:00:42Z</time>
      </trkpt>
      <trkpt lat="43.41372" lon="5.66702">
        <ele>419.2</ele>
        <time>2013-04-10T07:00:50Z</time>
      </trkpt>
      <trkpt lat="43.41369" lon="5.66713">
        <ele>419</ele>
        <time>2013-04-10T07:00:58Z</time>
      </trkpt>
      <trkpt lat="43.41368" lon="5.66725">
        <ele>420.1</ele>
        <time>2013-04-10T07:01:07Z</time>
      </trkpt>
      <trkpt lat="43.41367" lon="5.66727">
        <ele>420.2</ele>
        <time>2013-04-10T07:01:08Z</time>
      </trkpt>
      <trkpt lat="43.41354" lon="5.66735">
        <ele>424.7</ele>
        <time>2013-04-10T07:01:49Z</time>
      </trkpt>
      <trkpt lat="43.41347" lon="5.66729">
        <ele>421.1</ele>
        <time>2013-04-10T07:01:57Z</time>
      </trkpt>
      <trkpt lat="43.41339" lon="5.66726">
        <ele>419.3</ele>
        <time>2013-04-10T07:02:05Z</time>
      </trkpt>
      <trkpt lat="43.41333" lon="5.66717">
        <ele>419.2</ele>
        <time>2013-04-10T07:02:14Z</time>
      </trkpt>
      <trkpt lat="43.41333" lon="5.66716">
        <ele>418.8</ele>
        <time>2013-04-10T07:02:15Z</time>
      </trkpt>
      <trkpt lat="43.41324" lon="5.66697">
        <ele>417</ele>
        <time>2013-04-10T07:02:29Z</time>
      </trkpt>
      <trkpt lat="43.41318" lon="5.6669">
        <ele>417.2</ele>
        <time>2013-04-10T07:02:35Z</time>
      </trkpt>
      <trkpt lat="43.41311" lon="5.66684">
        <ele>416.5</ele>
        <time>2013-04-10T07:02:41Z</time>
      </trkpt>
      <trkpt lat="43.41304" lon="5.66679">
        <ele>415.7</ele>
        <time>2013-04-10T07:02:47Z</time>
      </trkpt>
      <trkpt lat="43.41296" lon="5.66673">
        <ele>414.7</ele>
        <time>2013-04-10T07:02:54Z</time>
      </trkpt>
      <trkpt lat="43.41289" lon="5.66668">
        <ele>414.2</ele>
        <time>2013-04-10T07:03:00Z</time>
      </trkpt>
      <trkpt lat="43.41282" lon="5.66663">
        <ele>413.8</ele>
        <time>2013-04-10T07:03:06Z</time>
      </trkpt>
      <trkpt lat="43.41275" lon="5.66658">
        <ele>413.7</ele>
        <time>2013-04-10T07:03:12Z</time>
      </trkpt>
      <trkpt lat="43.41268" lon="5.66652">
        <ele>413.3</ele>
        <time>2013-04-10T07:03:19Z</time>
      </trkpt>
      <trkpt lat="43.41267" lon="5.66651">
        <ele>413.1</ele>
        <time>2013-04-10T07:03:20Z</time>
      </trkpt>
      <trkpt lat="43.41253" lon="5.66642">
        <ele>412.7</ele>
        <time>2013-04-10T07:03:32Z</time>
      </trkpt>
      <trkpt lat="43.41245" lon="5.66636">
        <ele>413.1</ele>
        <time>2013-04-10T07:03:39Z</time>
      </trkpt>
      <trkpt lat="43.41239" lon="5.66628">
        <ele>413.2</ele>
        <time>2013-04-10T07:03:47Z</time>
      </trkpt>
      <trkpt lat="43.41239" lon="5.66616">
        <ele>412.2</ele>
        <time>2013-04-10T07:03:56Z</time>
      </trkpt>
      <trkpt lat="43.41242" lon="5.66604">
        <ele>410.1</ele>
        <time>2013-04-10T07:04:05Z</time>
      </trkpt>
      <trkpt lat="43.41244" lon="5.66594">
        <ele>408.6</ele>
        <time>2013-04-10T07:04:12Z</time>
      </trkpt>
      <trkpt lat="43.41245" lon="5.66583">
        <ele>407.7</ele>
        <time>2013-04-10T07:04:19Z</time>
      </trkpt>
      <trkpt lat="43.41248" lon="5.66572">
        <ele>406.7</ele>
        <time>2013-04-10T07:04:26Z</time>
      </trkpt>
      <trkpt lat="43.41248" lon="5.6657">
        <ele>406.6</ele>
        <time>2013-04-10T07:04:27Z</time>
      </trkpt>
      <trkpt lat="43.41253" lon="5.66551">
        <ele>405.1</ele>
        <time>2013-04-10T07:04:39Z</time>
      </trkpt>
      <trkpt lat="43.41256" lon="5.6654">
        <ele>406.1</ele>
        <time>2013-04-10T07:04:45Z</time>
      </trkpt>
      <trkpt lat="43.41261" lon="5.6653">
        <ele>406.7</ele>
        <time>2013-04-10T07:04:51Z</time>
      </trkpt>
      <trkpt lat="43.41265" lon="5.6652">
        <ele>406.8</ele>
        <time>2013-04-10T07:04:57Z</time>
      </trkpt>
      <trkpt lat="43.4127" lon="5.6651">
        <ele>406</ele>
        <time>2013-04-10T07:05:04Z</time>
      </trkpt>
      <trkpt lat="43.41275" lon="5.66501">
        <ele>405</ele>
        <time>2013-04-10T07:05:12Z</time>
      </trkpt>
      <trkpt lat="43.41279" lon="5.66491">
        <ele>405.3</ele>
        <time>2013-04-10T07:05:18Z</time>
      </trkpt>
      <trkpt lat="43.41283" lon="5.6648">
        <ele>405.8</ele>
        <time>2013-04-10T07:05:25Z</time>
      </trkpt>
      <trkpt lat="43.41286" lon="5.66471">
        <ele>405.7</ele>
        <time>2013-04-10T07:05:32Z</time>
      </trkpt>
      <trkpt lat="43.41287" lon="5.66469">
        <ele>405.6</ele>
        <time>2013-04-10T07:05:33Z</time>
      </trkpt>
      <trkpt lat="43.41295" lon="5.66451">
        <ele>405.1</ele>
        <time>2013-04-10T07:05:46Z</time>
      </trkpt>
      <trkpt lat="43.41299" lon="5.66442">
        <ele>405</ele>
        <time>2013-04-10T07:05:52Z</time>
      </trkpt>
      <trkpt lat="43.41304" lon="5.66431">
        <ele>404.6</ele>
        <time>2013-04-10T07:05:59Z</time>
      </trkpt>
      <trkpt lat="43.41308" lon="5.66422">
        <ele>404.5</ele>
        <time>2013-04-10T07:06:05Z</time>
      </trkpt>
      <trkpt lat="43.4131" lon="5.66415">
        <ele>404.2</ele>
        <time>2013-04-10T07:06:09Z</time>
      </trkpt>
      <trkpt lat="43.41313" lon="5.66406">
        <ele>404</ele>
        <time>2013-04-10T07:06:13Z</time>
      </trkpt>
      <trkpt lat="43.41316" lon="5.66394">
        <ele>403.7</ele>
        <time>2013-04-10T07:06:20Z</time>
      </trkpt>
      <trkpt lat="43.41319" lon="5.66383">
        <ele>403.2</ele>
        <time>2013-04-10T07:06:27Z</time>
      </trkpt>
      <trkpt lat="43.41322" lon="5.66372">
        <ele>402.8</ele>
        <time>2013-04-10T07:06:33Z</time>
      </trkpt>
      <trkpt lat="43.41322" lon="5.66371">
        <ele>402.7</ele>
        <time>2013-04-10T07:06:34Z</time>
      </trkpt>
      <trkpt lat="43.41327" lon="5.66351">
        <ele>402.5</ele>
        <time>2013-04-10T07:06:45Z</time>
      </trkpt>
      <trkpt lat="43.4133" lon="5.66341">
        <ele>401.7</ele>
        <time>2013-04-10T07:06:51Z</time>
      </trkpt>
      <trkpt lat="43.41333" lon="5.6633">
        <ele>401.2</ele>
        <time>2013-04-10T07:06:57Z</time>
      </trkpt>
      <trkpt lat="43.41336" lon="5.6632">
        <ele>400.8</ele>
        <time>2013-04-10T07:07:03Z</time>
      </trkpt>
      <trkpt lat="43.41338" lon="5.6631">
        <ele>400.8</ele>
        <time>2013-04-10T07:07:09Z</time>
      </trkpt>
      <trkpt lat="43.41341" lon="5.66299">
        <ele>400.8</ele>
        <time>2013-04-10T07:07:15Z</time>
      </trkpt>
      <trkpt lat="43.41344" lon="5.66289">
        <ele>401.2</ele>
        <time>2013-04-10T07:07:21Z</time>
      </trkpt>
      <trkpt lat="43.41348" lon="5.66278">
        <ele>400.7</ele>
        <time>2013-04-10T07:07:28Z</time>
      </trkpt>
      <trkpt lat="43.41351" lon="5.66268">
        <ele>401.7</ele>
        <time>2013-04-10T07:07:34Z</time>
      </trkpt>
      <trkpt lat="43.41352" lon="5.66266">
        <ele>401.7</ele>
        <time>2013-04-10T07:07:35Z</time>
      </trkpt>
      <trkpt lat="43.41358" lon="5.66247">
        <ele>401.7</ele>
        <time>2013-04-10T07:07:46Z</time>
      </trkpt>
      <trkpt lat="43.4136" lon="5.66237">
        <ele>401.7</ele>
        <time>2013-04-10T07:07:52Z</time>
      </trkpt>
      <trkpt lat="43.41363" lon="5.66225">
        <ele>401.6</ele>
        <time>2013-04-10T07:07:59Z</time>
      </trkpt>
      <trkpt lat="43.41366" lon="5.66215">
        <ele>401.2</ele>
        <time>2013-04-10T07:08:05Z</time>
      </trkpt>
      <trkpt lat="43.41369" lon="5.66205">
        <ele>400.7</ele>
        <time>2013-04-10T07:08:11Z</time>
      </trkpt>
      <trkpt lat="43.41373" lon="5.66196">
        <ele>400.2</ele>
        <time>2013-04-10T07:08:17Z</time>
      </trkpt>
      <trkpt lat="43.41378" lon="5.66187">
        <ele>399.1</ele>
        <time>2013-04-10T07:08:23Z</time>
      </trkpt>
      <trkpt lat="43.41383" lon="5.66179">
        <ele>398.3</ele>
        <time>2013-04-10T07:08:29Z</time>
      </trkpt>
      <trkpt lat="43.41387" lon="5.66169">
        <ele>398</ele>
        <time>2013-04-10T07:08:35Z</time>
      </trkpt>
      <trkpt lat="43.41388" lon="5.66167">
        <ele>397.8</ele>
        <time>2013-04-10T07:08:36Z</time>
      </trkpt>
      <trkpt lat="43.41393" lon="5.66149">
        <ele>396.3</ele>
        <time>2013-04-10T07:08:47Z</time>
      </trkpt>
      <trkpt lat="43.41396" lon="5.66139">
        <ele>394.8</ele>
        <time>2013-04-10T07:08:53Z</time>
      </trkpt>
      <trkpt lat="43.41399" lon="5.66129">
        <ele>394.2</ele>
        <time>2013-04-10T07:08:59Z</time>
      </trkpt>
      <trkpt lat="43.41403" lon="5.6612">
        <ele>393.3</ele>
        <time>2013-04-10T07:09:05Z</time>
      </trkpt>
      <trkpt lat="43.41409" lon="5.66111">
        <ele>393.5</ele>
        <time>2013-04-10T07:09:11Z</time>
      </trkpt>
      <trkpt lat="43.41413" lon="5.66101">
        <ele>393</ele>
        <time>2013-04-10T07:09:17Z</time>
      </trkpt>
      <trkpt lat="43.41416" lon="5.66092">
        <ele>391.2</ele>
        <time>2013-04-10T07:09:23Z</time>
      </trkpt>
      <trkpt lat="43.41422" lon="5.66084">
        <ele>391.2</ele>
        <time>2013-04-10T07:09:29Z</time>
      </trkpt>
      <trkpt lat="43.4143" lon="5.66081">
        <ele>391.2</ele>
        <time>2013-04-10T07:09:35Z</time>
      </trkpt>
      <trkpt lat="43.41436" lon="5.66073">
        <ele>391</ele>
        <time>2013-04-10T07:09:41Z</time>
      </trkpt>
      <trkpt lat="43.41437" lon="5.66071">
        <ele>391</ele>
        <time>2013-04-10T07:09:42Z</time>
      </trkpt>
      <trkpt lat="43.41444" lon="5.66051">
        <ele>389.2</ele>
        <time>2013-04-10T07:09:56Z</time>
      </trkpt>
      <trkpt lat="43.41448" lon="5.6604">
        <ele>389</ele>
        <time>2013-04-10T07:10:03Z</time>
      </trkpt>
      <trkpt lat="43.41452" lon="5.6603">
        <ele>389.1</ele>
        <time>2013-04-10T07:10:09Z</time>
      </trkpt>
      <trkpt lat="43.41456" lon="5.66019">
        <ele>388.1</ele>
        <time>2013-04-10T07:10:16Z</time>
      </trkpt>
      <trkpt lat="43.4146" lon="5.66009">
        <ele>387</ele>
        <time>2013-04-10T07:10:23Z</time>
      </trkpt>
      <trkpt lat="43.41464" lon="5.65999">
        <ele>387.1</ele>
        <time>2013-04-10T07:10:30Z</time>
      </trkpt>
      <trkpt lat="43.41468" lon="5.65988">
        <ele>395.2</ele>
        <time>2013-04-10T07:11:06Z</time>
      </trkpt>
      <trkpt lat="43.41468" lon="5.65988">
        <ele>395.3</ele>
        <time>2013-04-10T07:11:07Z</time>
      </trkpt>
      <trkpt lat="43.41474" lon="5.65978">
        <ele>396.7</ele>
        <time>2013-04-10T07:13:00Z</time>
      </trkpt>
      <trkpt lat="43.41482" lon="5.65959">
        <ele>394.1</ele>
        <time>2013-04-10T07:13:18Z</time>
      </trkpt>
      <trkpt lat="43.41487" lon="5.6595">
        <ele>393.6</ele>
        <time>2013-04-10T07:13:25Z</time>
      </trkpt>
      <trkpt lat="43.41492" lon="5.65941">
        <ele>392.6</ele>
        <time>2013-04-10T07:13:33Z</time>
      </trkpt>
      <trkpt lat="43.41497" lon="5.65932">
        <ele>392.6</ele>
        <time>2013-04-10T07:13:40Z</time>
      </trkpt>
      <trkpt lat="43.41502" lon="5.65922">
        <ele>391.7</ele>
        <time>2013-04-10T07:13:47Z</time>
      </trkpt>
      <trkpt lat="43.41507" lon="5.65912">
        <ele>391.3</ele>
        <time>2013-04-10T07:13:54Z</time>
      </trkpt>
      <trkpt lat="43.4151" lon="5.65901">
        <ele>389</ele>
        <time>2013-04-10T07:14:01Z</time>
      </trkpt>
      <trkpt lat="43.4151" lon="5.659">
        <ele>388.7</ele>
        <time>2013-04-10T07:14:02Z</time>
      </trkpt>
      <trkpt lat="43.41514" lon="5.65878">
        <ele>386.5</ele>
        <time>2013-04-10T07:14:18Z</time>
      </trkpt>
      <trkpt lat="43.41517" lon="5.65867">
        <ele>386.2</ele>
        <time>2013-04-10T07:14:26Z</time>
      </trkpt>
      <trkpt lat="43.4152" lon="5.65857">
        <ele>386.5</ele>
        <time>2013-04-10T07:14:34Z</time>
      </trkpt>
      <trkpt lat="43.41523" lon="5.65845">
        <ele>386.2</ele>
        <time>2013-04-10T07:14:42Z</time>
      </trkpt>
      <trkpt lat="43.41525" lon="5.65835">
        <ele>385.6</ele>
        <time>2013-04-10T07:14:48Z</time>
      </trkpt>
      <trkpt lat="43.41528" lon="5.65824">
        <ele>385.2</ele>
        <time>2013-04-10T07:14:55Z</time>
      </trkpt>
      <trkpt lat="43.41531" lon="5.65813">
        <ele>386.5</ele>
        <time>2013-04-10T07:15:02Z</time>
      </trkpt>
      <trkpt lat="43.41532" lon="5.65811">
        <ele>386.7</ele>
        <time>2013-04-10T07:15:03Z</time>
      </trkpt>
      <trkpt lat="43.41536" lon="5.65791">
        <ele>386.5</ele>
        <time>2013-04-10T07:15:15Z</time>
      </trkpt>
      <trkpt lat="43.41539" lon="5.6578">
        <ele>387.2</ele>
        <time>2013-04-10T07:15:22Z</time>
      </trkpt>
      <trkpt lat="43.41542" lon="5.65768">
        <ele>388.2</ele>
        <time>2013-04-10T07:15:29Z</time>
      </trkpt>
      <trkpt lat="43.41544" lon="5.65756">
        <ele>389.5</ele>
        <time>2013-04-10T07:15:36Z</time>
      </trkpt>
      <trkpt lat="43.41547" lon="5.65745">
        <ele>390.2</ele>
        <time>2013-04-10T07:15:43Z</time>
      </trkpt>
      <trkpt lat="43.41551" lon="5.65734">
        <ele>390.7</ele>
        <time>2013-04-10T07:15:50Z</time>
      </trkpt>
      <trkpt lat="43.41555" lon="5.65724">
        <ele>391</ele>
        <time>2013-04-10T07:15:56Z</time>
      </trkpt>
      <trkpt lat="43.41559" lon="5.65715">
        <ele>391.2</ele>
        <time>2013-04-10T07:16:02Z</time>
      </trkpt>
      <trkpt lat="43.41562" lon="5.65704">
        <ele>391.6</ele>
        <time>2013-04-10T07:16:09Z</time>
      </trkpt>
      <trkpt lat="43.41563" lon="5.65702">
        <ele>391.2</ele>
        <time>2013-04-10T07:16:10Z</time>
      </trkpt>
      <trkpt lat="43.41569" lon="5.65683">
        <ele>390.6</ele>
        <time>2013-04-10T07:16:21Z</time>
      </trkpt>
      <trkpt lat="43.41573" lon="5.65674">
        <ele>390.1</ele>
        <time>2013-04-10T07:16:27Z</time>
      </trkpt>
      <trkpt lat="43.41577" lon="5.65664">
        <ele>388.8</ele>
        <time>2013-04-10T07:16:34Z</time>
      </trkpt>
      <trkpt lat="43.41581" lon="5.65655">
        <ele>389.1</ele>
        <time>2013-04-10T07:16:40Z</time>
      </trkpt>
      <trkpt lat="43.41586" lon="5.65645">
        <ele>389</ele>
        <time>2013-04-10T07:16:47Z</time>
      </trkpt>
      <trkpt lat="43.41591" lon="5.65635">
        <ele>388.5</ele>
        <time>2013-04-10T07:16:54Z</time>
      </trkpt>
      <trkpt lat="43.41595" lon="5.65625">
        <ele>388.2</ele>
        <time>2013-04-10T07:17:02Z</time>
      </trkpt>
      <trkpt lat="43.41598" lon="5.65615">
        <ele>387.1</ele>
        <time>2013-04-10T07:17:09Z</time>
      </trkpt>
      <trkpt lat="43.41602" lon="5.65605">
        <ele>387.1</ele>
        <time>2013-04-10T07:17:15Z</time>
      </trkpt>
      <trkpt lat="43.41603" lon="5.65604">
        <ele>387.2</ele>
        <time>2013-04-10T07:17:16Z</time>
      </trkpt>
      <trkpt lat="43.41608" lon="5.65583">
        <ele>386.6</ele>
        <time>2013-04-10T07:17:29Z</time>
      </trkpt>
      <trkpt lat="43.41611" lon="5.65572">
        <ele>385.7</ele>
        <time>2013-04-10T07:17:36Z</time>
      </trkpt>
      <trkpt lat="43.41614" lon="5.65561">
        <ele>384.6</ele>
        <time>2013-04-10T07:17:43Z</time>
      </trkpt>
      <trkpt lat="43.41617" lon="5.6555">
        <ele>383.7</ele>
        <time>2013-04-10T07:17:50Z</time>
      </trkpt>
      <trkpt lat="43.41621" lon="5.6554">
        <ele>384.6</ele>
        <time>2013-04-10T07:17:56Z</time>
      </trkpt>
      <trkpt lat="43.41626" lon="5.65531">
        <ele>383.7</ele>
        <time>2013-04-10T07:18:02Z</time>
      </trkpt>
      <trkpt lat="43.41632" lon="5.65522">
        <ele>383.7</ele>
        <time>2013-04-10T07:18:09Z</time>
      </trkpt>
      <trkpt lat="43.41638" lon="5.65514">
        <ele>383.5</ele>
        <time>2013-04-10T07:18:16Z</time>
      </trkpt>
      <trkpt lat="43.41639" lon="5.65513">
        <ele>383.7</ele>
        <time>2013-04-10T07:18:17Z</time>
      </trkpt>
      <trkpt lat="43.41651" lon="5.65499">
        <ele>382.5</ele>
        <time>2013-04-10T07:18:30Z</time>
      </trkpt>
      <trkpt lat="43.41658" lon="5.65493">
        <ele>383</ele>
        <time>2013-04-10T07:18:36Z</time>
      </trkpt>
      <trkpt lat="43.41665" lon="5.65487">
        <ele>383.1</ele>
        <time>2013-04-10T07:18:42Z</time>
      </trkpt>
      <trkpt lat="43.41672" lon="5.65483">
        <ele>382.5</ele>
        <time>2013-04-10T07:18:48Z</time>
      </trkpt>
      <trkpt lat="43.41679" lon="5.65477">
        <ele>381.3</ele>
        <time>2013-04-10T07:18:55Z</time>
      </trkpt>
      <trkpt lat="43.41687" lon="5.65471">
        <ele>380.2</ele>
        <time>2013-04-10T07:19:02Z</time>
      </trkpt>
      <trkpt lat="43.41695" lon="5.65465">
        <ele>379</ele>
        <time>2013-04-10T07:19:09Z</time>
      </trkpt>
      <trkpt lat="43.41702" lon="5.6546">
        <ele>377.8</ele>
        <time>2013-04-10T07:19:15Z</time>
      </trkpt>
      <trkpt lat="43.41709" lon="5.65454">
        <ele>377.2</ele>
        <time>2013-04-10T07:19:22Z</time>
      </trkpt>
      <trkpt lat="43.4171" lon="5.65454">
        <ele>377.1</ele>
        <time>2013-04-10T07:19:23Z</time>
      </trkpt>
      <trkpt lat="43.41725" lon="5.65447">
        <ele>376.7</ele>
        <time>2013-04-10T07:19:35Z</time>
      </trkpt>
      <trkpt lat="43.41732" lon="5.65444">
        <ele>377</ele>
        <time>2013-04-10T07:19:41Z</time>
      </trkpt>
      <trkpt lat="43.4174" lon="5.65441">
        <ele>376.8</ele>
        <time>2013-04-10T07:19:48Z</time>
      </trkpt>
      <trkpt lat="43.41748" lon="5.65434">
        <ele>377</ele>
        <time>2013-04-10T07:19:55Z</time>
      </trkpt>
      <trkpt lat="43.41751" lon="5.65423">
        <ele>375</ele>
        <time>2013-04-10T07:20:03Z</time>
      </trkpt>
      <trkpt lat="43.41753" lon="5.65412">
        <ele>373.8</ele>
        <time>2013-04-10T07:20:10Z</time>
      </trkpt>
      <trkpt lat="43.41756" lon="5.65402">
        <ele>373.7</ele>
        <time>2013-04-10T07:20:17Z</time>
      </trkpt>
      <trkpt lat="43.41759" lon="5.6539">
        <ele>373.6</ele>
        <time>2013-04-10T07:20:24Z</time>
      </trkpt>
      <trkpt lat="43.41759" lon="5.65388">
        <ele>373.6</ele>
        <time>2013-04-10T07:20:25Z</time>
      </trkpt>
      <trkpt lat="43.41761" lon="5.65367">
        <ele>373</ele>
        <time>2013-04-10T07:20:37Z</time>
      </trkpt>
      <trkpt lat="43.41763" lon="5.65356">
        <ele>372.3</ele>
        <time>2013-04-10T07:20:44Z</time>
      </trkpt>
      <trkpt lat="43.41766" lon="5.65346">
        <ele>371.8</ele>
        <time>2013-04-10T07:20:51Z</time>
      </trkpt>
      <trkpt lat="43.4177" lon="5.65336">
        <ele>372.6</ele>
        <time>2013-04-10T07:20:57Z</time>
      </trkpt>
      <trkpt lat="43.41775" lon="5.65326">
        <ele>373.1</ele>
        <time>2013-04-10T07:21:03Z</time>
      </trkpt>
      <trkpt lat="43.41779" lon="5.65315">
        <ele>372.5</ele>
        <time>2013-04-10T07:21:10Z</time>
      </trkpt>
      <trkpt lat="43.41784" lon="5.65305">
        <ele>371.2</ele>
        <time>2013-04-10T07:21:17Z</time>
      </trkpt>
      <trkpt lat="43.41788" lon="5.65295">
        <ele>369.6</ele>
        <time>2013-04-10T07:21:24Z</time>
      </trkpt>
      <trkpt lat="43.41791" lon="5.65284">
        <ele>369.6</ele>
        <time>2013-04-10T07:21:31Z</time>
      </trkpt>
      <trkpt lat="43.41792" lon="5.65282">
        <ele>369.5</ele>
        <time>2013-04-10T07:21:32Z</time>
      </trkpt>
      <trkpt lat="43.41797" lon="5.65263">
        <ele>369.2</ele>
        <time>2013-04-10T07:21:43Z</time>
      </trkpt>
      <trkpt lat="43.41801" lon="5.65253">
        <ele>368.3</ele>
        <time>2013-04-10T07:21:50Z</time>
      </trkpt>
      <trkpt lat="43.41806" lon="5.65242">
        <ele>368.8</ele>
        <time>2013-04-10T07:21:56Z</time>
      </trkpt>
      <trkpt lat="43.4181" lon="5.65232">
        <ele>368.5</ele>
        <time>2013-04-10T07:22:02Z</time>
      </trkpt>
      <trkpt lat="43.41813" lon="5.6522">
        <ele>367.2</ele>
        <time>2013-04-10T07:22:09Z</time>
      </trkpt>
      <trkpt lat="43.41816" lon="5.65209">
        <ele>366.5</ele>
        <time>2013-04-10T07:22:16Z</time>
      </trkpt>
      <trkpt lat="43.41819" lon="5.65198">
        <ele>366.1</ele>
        <time>2013-04-10T07:22:23Z</time>
      </trkpt>
      <trkpt lat="43.41822" lon="5.65187">
        <ele>362.2</ele>
        <time>2013-04-10T07:22:31Z</time>
      </trkpt>
      <trkpt lat="43.41826" lon="5.65177">
        <ele>361.3</ele>
        <time>2013-04-10T07:22:37Z</time>
      </trkpt>
      <trkpt lat="43.41826" lon="5.65175">
        <ele>361.2</ele>
        <time>2013-04-10T07:22:38Z</time>
      </trkpt>
      <trkpt lat="43.41835" lon="5.65158">
        <ele>360.1</ele>
        <time>2013-04-10T07:22:49Z</time>
      </trkpt>
      <trkpt lat="43.4184" lon="5.6515">
        <ele>359.7</ele>
        <time>2013-04-10T07:22:55Z</time>
      </trkpt>
      <trkpt lat="43.41845" lon="5.65141">
        <ele>360.7</ele>
        <time>2013-04-10T07:23:01Z</time>
      </trkpt>
      <trkpt lat="43.4185" lon="5.65132">
        <ele>361</ele>
        <time>2013-04-10T07:23:07Z</time>
      </trkpt>
      <trkpt lat="43.41856" lon="5.65124">
        <ele>361.3</ele>
        <time>2013-04-10T07:23:13Z</time>
      </trkpt>
      <trkpt lat="43.41863" lon="5.65116">
        <ele>361.8</ele>
        <time>2013-04-10T07:23:19Z</time>
      </trkpt>
      <trkpt lat="43.41869" lon="5.65109">
        <ele>361.7</ele>
        <time>2013-04-10T07:23:25Z</time>
      </trkpt>
      <trkpt lat="43.41872" lon="5.65098">
        <ele>361</ele>
        <time>2013-04-10T07:23:32Z</time>
      </trkpt>
      <trkpt lat="43.41867" lon="5.65089">
        <ele>360.2</ele>
        <time>2013-04-10T07:23:39Z</time>
      </trkpt>
      <trkpt lat="43.41866" lon="5.65089">
        <ele>360.1</ele>
        <time>2013-04-10T07:23:40Z</time>
      </trkpt>
      <trkpt lat="43.41852" lon="5.65082">
        <ele>361.2</ele>
        <time>2013-04-10T07:23:52Z</time>
      </trkpt>
      <trkpt lat="43.41844" lon="5.6508">
        <ele>361.2</ele>
        <time>2013-04-10T07:23:58Z</time>
      </trkpt>
      <trkpt lat="43.41837" lon="5.65075">
        <ele>360.7</ele>
        <time>2013-04-10T07:24:04Z</time>
      </trkpt>
      <trkpt lat="43.41834" lon="5.65063">
        <ele>359.2</ele>
        <time>2013-04-10T07:24:12Z</time>
      </trkpt>
      <trkpt lat="43.41837" lon="5.65052">
        <ele>358</ele>
        <time>2013-04-10T07:24:20Z</time>
      </trkpt>
      <trkpt lat="43.41842" lon="5.65044">
        <ele>357</ele>
        <time>2013-04-10T07:24:27Z</time>
      </trkpt>
      <trkpt lat="43.41849" lon="5.65037">
        <ele>355.7</ele>
        <time>2013-04-10T07:24:34Z</time>
      </trkpt>
      <trkpt lat="43.41857" lon="5.65034">
        <ele>353.8</ele>
        <time>2013-04-10T07:24:42Z</time>
      </trkpt>
      <trkpt lat="43.41858" lon="5.65034">
        <ele>353.7</ele>
        <time>2013-04-10T07:24:43Z</time>
      </trkpt>
      <trkpt lat="43.41874" lon="5.65032">
        <ele>350.7</ele>
        <time>2013-04-10T07:24:56Z</time>
      </trkpt>
      <trkpt lat="43.41883" lon="5.65033">
        <ele>351.2</ele>
        <time>2013-04-10T07:25:02Z</time>
      </trkpt>
      <trkpt lat="43.4189" lon="5.65036">
        <ele>350.8</ele>
        <time>2013-04-10T07:25:08Z</time>
      </trkpt>
      <trkpt lat="43.41899" lon="5.65038">
        <ele>350.5</ele>
        <time>2013-04-10T07:25:15Z</time>
      </trkpt>
      <trkpt lat="43.41906" lon="5.65043">
        <ele>349.8</ele>
        <time>2013-04-10T07:25:22Z</time>
      </trkpt>
      <trkpt lat="43.41914" lon="5.65048">
        <ele>350.2</ele>
        <time>2013-04-10T07:25:28Z</time>
      </trkpt>
      <trkpt lat="43.41922" lon="5.65051">
        <ele>350.2</ele>
        <time>2013-04-10T07:25:35Z</time>
      </trkpt>
      <trkpt lat="43.4193" lon="5.65054">
        <ele>349.3</ele>
        <time>2013-04-10T07:25:41Z</time>
      </trkpt>
      <trkpt lat="43.41936" lon="5.65062">
        <ele>348.7</ele>
        <time>2013-04-10T07:25:47Z</time>
      </trkpt>
      <trkpt lat="43.41937" lon="5.65064">
        <ele>348.7</ele>
        <time>2013-04-10T07:25:48Z</time>
      </trkpt>
      <trkpt lat="43.41949" lon="5.65076">
        <ele>347.7</ele>
        <time>2013-04-10T07:26:01Z</time>
      </trkpt>
      <trkpt lat="43.41956" lon="5.6507">
        <ele>347.7</ele>
        <time>2013-04-10T07:26:09Z</time>
      </trkpt>
      <trkpt lat="43.41962" lon="5.65062">
        <ele>347.7</ele>
        <time>2013-04-10T07:26:16Z</time>
      </trkpt>
      <trkpt lat="43.41966" lon="5.65052">
        <ele>346.3</ele>
        <time>2013-04-10T07:26:23Z</time>
      </trkpt>
      <trkpt lat="43.41967" lon="5.6504">
        <ele>344.2</ele>
        <time>2013-04-10T07:26:30Z</time>
      </trkpt>
      <trkpt lat="43.4197" lon="5.65029">
        <ele>343.5</ele>
        <time>2013-04-10T07:26:37Z</time>
      </trkpt>
      <trkpt lat="43.41974" lon="5.65018">
        <ele>342.6</ele>
        <time>2013-04-10T07:26:44Z</time>
      </trkpt>
      <trkpt lat="43.41978" lon="5.65008">
        <ele>342.5</ele>
        <time>2013-04-10T07:26:50Z</time>
      </trkpt>
      <trkpt lat="43.41979" lon="5.65007">
        <ele>342.3</ele>
        <time>2013-04-10T07:26:51Z</time>
      </trkpt>
      <trkpt lat="43.4199" lon="5.64991">
        <ele>340.5</ele>
        <time>2013-04-10T07:27:04Z</time>
      </trkpt>
      <trkpt lat="43.41997" lon="5.64984">
        <ele>339.3</ele>
        <time>2013-04-10T07:27:11Z</time>
      </trkpt>
      <trkpt lat="43.42004" lon="5.6498">
        <ele>336.7</ele>
        <time>2013-04-10T07:27:18Z</time>
      </trkpt>
      <trkpt lat="43.42012" lon="5.64976">
        <ele>335</ele>
        <time>2013-04-10T07:27:25Z</time>
      </trkpt>
      <trkpt lat="43.4202" lon="5.64972">
        <ele>333</ele>
        <time>2013-04-10T07:27:32Z</time>
      </trkpt>
      <trkpt lat="43.42028" lon="5.64969">
        <ele>333.3</ele>
        <time>2013-04-10T07:27:38Z</time>
      </trkpt>
      <trkpt lat="43.42036" lon="5.64968">
        <ele>334.3</ele>
        <time>2013-04-10T07:27:44Z</time>
      </trkpt>
      <trkpt lat="43.42045" lon="5.64966">
        <ele>335.1</ele>
        <time>2013-04-10T07:27:52Z</time>
      </trkpt>
      <trkpt lat="43.42045" lon="5.64965">
        <ele>335.2</ele>
        <time>2013-04-10T07:27:53Z</time>
      </trkpt>
      <trkpt lat="43.42056" lon="5.64949">
        <ele>338.7</ele>
        <time>2013-04-10T07:28:50Z</time>
      </trkpt>
      <trkpt lat="43.42053" lon="5.64939">
        <ele>339</ele>
        <time>2013-04-10T07:28:58Z</time>
      </trkpt>
      <trkpt lat="43.42053" lon="5.64937">
        <ele>339.2</ele>
        <time>2013-04-10T07:28:59Z</time>
      </trkpt>
      <trkpt lat="43.42046" lon="5.64917">
        <ele>341</ele>
        <time>2013-04-10T07:29:13Z</time>
      </trkpt>
      <trkpt lat="43.4204" lon="5.64908">
        <ele>341.2</ele>
        <time>2013-04-10T07:29:20Z</time>
      </trkpt>
      <trkpt lat="43.42036" lon="5.64897">
        <ele>340.6</ele>
        <time>2013-04-10T07:29:27Z</time>
      </trkpt>
      <trkpt lat="43.4203" lon="5.64888">
        <ele>340.8</ele>
        <time>2013-04-10T07:29:34Z</time>
      </trkpt>
      <trkpt lat="43.42024" lon="5.64879">
        <ele>341.2</ele>
        <time>2013-04-10T07:29:41Z</time>
      </trkpt>
      <trkpt lat="43.42019" lon="5.64871">
        <ele>342.8</ele>
        <time>2013-04-10T07:29:48Z</time>
      </trkpt>
      <trkpt lat="43.42015" lon="5.6486">
        <ele>344.7</ele>
        <time>2013-04-10T07:29:56Z</time>
      </trkpt>
      <trkpt lat="43.42011" lon="5.6485">
        <ele>346.7</ele>
        <time>2013-04-10T07:30:04Z</time>
      </trkpt>
      <trkpt lat="43.42011" lon="5.64849">
        <ele>346.8</ele>
        <time>2013-04-10T07:30:05Z</time>
      </trkpt>
      <trkpt lat="43.4201" lon="5.64828">
        <ele>346.2</ele>
        <time>2013-04-10T07:30:20Z</time>
      </trkpt>
      <trkpt lat="43.42011" lon="5.64817">
        <ele>346.2</ele>
        <time>2013-04-10T07:30:27Z</time>
      </trkpt>
      <trkpt lat="43.42012" lon="5.64805">
        <ele>347.5</ele>
        <time>2013-04-10T07:30:34Z</time>
      </trkpt>
      <trkpt lat="43.42012" lon="5.64794">
        <ele>348.2</ele>
        <time>2013-04-10T07:30:41Z</time>
      </trkpt>
      <trkpt lat="43.42012" lon="5.64782">
        <ele>349.2</ele>
        <time>2013-04-10T07:30:48Z</time>
      </trkpt>
      <trkpt lat="43.42012" lon="5.6477">
        <ele>349.6</ele>
        <time>2013-04-10T07:30:56Z</time>
      </trkpt>
      <trkpt lat="43.42012" lon="5.64758">
        <ele>349.8</ele>
        <time>2013-04-10T07:31:04Z</time>
      </trkpt>
      <trkpt lat="43.42011" lon="5.64746">
        <ele>352</ele>
        <time>2013-04-10T07:31:11Z</time>
      </trkpt>
      <trkpt lat="43.42011" lon="5.64745">
        <ele>351.8</ele>
        <time>2013-04-10T07:31:12Z</time>
      </trkpt>
      <trkpt lat="43.42005" lon="5.64724">
        <ele>352.1</ele>
        <time>2013-04-10T07:31:26Z</time>
      </trkpt>
      <trkpt lat="43.42001" lon="5.64715">
        <ele>353.6</ele>
        <time>2013-04-10T07:31:32Z</time>
      </trkpt>
      <trkpt lat="43.41997" lon="5.64704">
        <ele>353.7</ele>
        <time>2013-04-10T07:31:40Z</time>
      </trkpt>
      <trkpt lat="43.41994" lon="5.64692">
        <ele>353.1</ele>
        <time>2013-04-10T07:31:48Z</time>
      </trkpt>
      <trkpt lat="43.41991" lon="5.64681">
        <ele>352</ele>
        <time>2013-04-10T07:31:56Z</time>
      </trkpt>
      <trkpt lat="43.41989" lon="5.64671">
        <ele>352.2</ele>
        <time>2013-04-10T07:32:03Z</time>
      </trkpt>
      <trkpt lat="43.41986" lon="5.6466">
        <ele>354.8</ele>
        <time>2013-04-10T07:32:10Z</time>
      </trkpt>
      <trkpt lat="43.41982" lon="5.64649">
        <ele>356.1</ele>
        <time>2013-04-10T07:32:20Z</time>
      </trkpt>
      <trkpt lat="43.41982" lon="5.64648">
        <ele>356.1</ele>
        <time>2013-04-10T07:32:21Z</time>
      </trkpt>
      <trkpt lat="43.41971" lon="5.64632">
        <ele>357.8</ele>
        <time>2013-04-10T07:32:36Z</time>
      </trkpt>
      <trkpt lat="43.41966" lon="5.64624">
        <ele>358.7</ele>
        <time>2013-04-10T07:32:44Z</time>
      </trkpt>
      <trkpt lat="43.41961" lon="5.64615">
        <ele>359.8</ele>
        <time>2013-04-10T07:32:52Z</time>
      </trkpt>
      <trkpt lat="43.41956" lon="5.64606">
        <ele>360.8</ele>
        <time>2013-04-10T07:33:00Z</time>
      </trkpt>
      <trkpt lat="43.41951" lon="5.64596">
        <ele>362.2</ele>
        <time>2013-04-10T07:33:08Z</time>
      </trkpt>
      <trkpt lat="43.41946" lon="5.64588">
        <ele>363.3</ele>
        <time>2013-04-10T07:33:15Z</time>
      </trkpt>
      <trkpt lat="43.41941" lon="5.64578">
        <ele>363.2</ele>
        <time>2013-04-10T07:33:24Z</time>
      </trkpt>
      <trkpt lat="43.4194" lon="5.64577">
        <ele>363.2</ele>
        <time>2013-04-10T07:33:25Z</time>
      </trkpt>
      <trkpt lat="43.41935" lon="5.64556">
        <ele>364</ele>
        <time>2013-04-10T07:33:42Z</time>
      </trkpt>
      <trkpt lat="43.41933" lon="5.64544">
        <ele>364.3</ele>
        <time>2013-04-10T07:33:50Z</time>
      </trkpt>
      <trkpt lat="43.4193" lon="5.64533">
        <ele>363.6</ele>
        <time>2013-04-10T07:33:58Z</time>
      </trkpt>
      <trkpt lat="43.41928" lon="5.64521">
        <ele>366.1</ele>
        <time>2013-04-10T07:34:06Z</time>
      </trkpt>
      <trkpt lat="43.41925" lon="5.6451">
        <ele>367</ele>
        <time>2013-04-10T07:34:14Z</time>
      </trkpt>
      <trkpt lat="43.41922" lon="5.64499">
        <ele>367.8</ele>
        <time>2013-04-10T07:34:22Z</time>
      </trkpt>
      <trkpt lat="43.41918" lon="5.64489">
        <ele>367.7</ele>
        <time>2013-04-10T07:34:30Z</time>
      </trkpt>
      <trkpt lat="43.41917" lon="5.64488">
        <ele>367.7</ele>
        <time>2013-04-10T07:34:31Z</time>
      </trkpt>
      <trkpt lat="43.41911" lon="5.64469">
        <ele>370.2</ele>
        <time>2013-04-10T07:34:44Z</time>
      </trkpt>
      <trkpt lat="43.41907" lon="5.64459">
        <ele>372.3</ele>
        <time>2013-04-10T07:34:52Z</time>
      </trkpt>
      <trkpt lat="43.41902" lon="5.6445">
        <ele>374.8</ele>
        <time>2013-04-10T07:34:59Z</time>
      </trkpt>
      <trkpt lat="43.41897" lon="5.64442">
        <ele>376.1</ele>
        <time>2013-04-10T07:35:06Z</time>
      </trkpt>
      <trkpt lat="43.41892" lon="5.64433">
        <ele>377.3</ele>
        <time>2013-04-10T07:35:13Z</time>
      </trkpt>
      <trkpt lat="43.41888" lon="5.64424">
        <ele>378.8</ele>
        <time>2013-04-10T07:35:20Z</time>
      </trkpt>
      <trkpt lat="43.41885" lon="5.64413">
        <ele>379.2</ele>
        <time>2013-04-10T07:35:28Z</time>
      </trkpt>
      <trkpt lat="43.41882" lon="5.64402">
        <ele>379</ele>
        <time>2013-04-10T07:35:36Z</time>
      </trkpt>
      <trkpt lat="43.41882" lon="5.64401">
        <ele>378.7</ele>
        <time>2013-04-10T07:35:37Z</time>
      </trkpt>
      <trkpt lat="43.41877" lon="5.6438">
        <ele>378.2</ele>
        <time>2013-04-10T07:35:52Z</time>
      </trkpt>
      <trkpt lat="43.41876" lon="5.64368">
        <ele>376.7</ele>
        <time>2013-04-10T07:36:00Z</time>
      </trkpt>
      <trkpt lat="43.41874" lon="5.64357">
        <ele>377.2</ele>
        <time>2013-04-10T07:36:08Z</time>
      </trkpt>
      <trkpt lat="43.41873" lon="5.64346">
        <ele>377.2</ele>
        <time>2013-04-10T07:36:16Z</time>
      </trkpt>
      <trkpt lat="43.41872" lon="5.64335">
        <ele>377.7</ele>
        <time>2013-04-10T07:36:24Z</time>
      </trkpt>
      <trkpt lat="43.4187" lon="5.64324">
        <ele>379.2</ele>
        <time>2013-04-10T07:36:31Z</time>
      </trkpt>
      <trkpt lat="43.41867" lon="5.64312">
        <ele>380.2</ele>
        <time>2013-04-10T07:36:39Z</time>
      </trkpt>
      <trkpt lat="43.41866" lon="5.64311">
        <ele>380.8</ele>
        <time>2013-04-10T07:36:40Z</time>
      </trkpt>
      <trkpt lat="43.41865" lon="5.64289">
        <ele>383.5</ele>
        <time>2013-04-10T07:36:54Z</time>
      </trkpt>
      <trkpt lat="43.41864" lon="5.64278">
        <ele>384.8</ele>
        <time>2013-04-10T07:37:01Z</time>
      </trkpt>
      <trkpt lat="43.41862" lon="5.64266">
        <ele>385</ele>
        <time>2013-04-10T07:37:08Z</time>
      </trkpt>
      <trkpt lat="43.4186" lon="5.64255">
        <ele>385.8</ele>
        <time>2013-04-10T07:37:15Z</time>
      </trkpt>
      <trkpt lat="43.41857" lon="5.64244">
        <ele>386.7</ele>
        <time>2013-04-10T07:37:23Z</time>
      </trkpt>
      <trkpt lat="43.41855" lon="5.64232">
        <ele>386.7</ele>
        <time>2013-04-10T07:37:32Z</time>
      </trkpt>
      <trkpt lat="43.41858" lon="5.64221">
        <ele>388.2</ele>
        <time>2013-04-10T07:37:41Z</time>
      </trkpt>
      <trkpt lat="43.41859" lon="5.6422">
        <ele>388.1</ele>
        <time>2013-04-10T07:37:42Z</time>
      </trkpt>
      <trkpt lat="43.4187" lon="5.64206">
        <ele>390.6</ele>
        <time>2013-04-10T07:37:57Z</time>
      </trkpt>
      <trkpt lat="43.41878" lon="5.64201">
        <ele>392.2</ele>
        <time>2013-04-10T07:38:05Z</time>
      </trkpt>
      <trkpt lat="43.41882" lon="5.6419">
        <ele>393.8</ele>
        <time>2013-04-10T07:38:23Z</time>
      </trkpt>
      <trkpt lat="43.41884" lon="5.64179">
        <ele>394.5</ele>
        <time>2013-04-10T07:38:31Z</time>
      </trkpt>
      <trkpt lat="43.41885" lon="5.64167">
        <ele>395.7</ele>
        <time>2013-04-10T07:38:40Z</time>
      </trkpt>
      <trkpt lat="43.41887" lon="5.64156">
        <ele>396.7</ele>
        <time>2013-04-10T07:38:49Z</time>
      </trkpt>
      <trkpt lat="43.41888" lon="5.64154">
        <ele>397</ele>
        <time>2013-04-10T07:38:50Z</time>
      </trkpt>
      <trkpt lat="43.419" lon="5.64142">
        <ele>398.5</ele>
        <time>2013-04-10T07:39:03Z</time>
      </trkpt>
      <trkpt lat="43.41908" lon="5.64139">
        <ele>399.3</ele>
        <time>2013-04-10T07:39:10Z</time>
      </trkpt>
      <trkpt lat="43.41916" lon="5.64135">
        <ele>400.8</ele>
        <time>2013-04-10T07:39:17Z</time>
      </trkpt>
      <trkpt lat="43.41923" lon="5.64128">
        <ele>402.1</ele>
        <time>2013-04-10T07:39:24Z</time>
      </trkpt>
      <trkpt lat="43.41929" lon="5.6412">
        <ele>402.2</ele>
        <time>2013-04-10T07:39:33Z</time>
      </trkpt>
      <trkpt lat="43.41935" lon="5.64112">
        <ele>402.6</ele>
        <time>2013-04-10T07:39:41Z</time>
      </trkpt>
      <trkpt lat="43.4194" lon="5.64103">
        <ele>402.5</ele>
        <time>2013-04-10T07:39:48Z</time>
      </trkpt>
      <trkpt lat="43.41947" lon="5.64095">
        <ele>403</ele>
        <time>2013-04-10T07:39:56Z</time>
      </trkpt>
      <trkpt lat="43.41947" lon="5.64094">
        <ele>403</ele>
        <time>2013-04-10T07:39:57Z</time>
      </trkpt>
      <trkpt lat="43.41959" lon="5.6408">
        <ele>403.5</ele>
        <time>2013-04-10T07:40:12Z</time>
      </trkpt>
      <trkpt lat="43.41962" lon="5.64068">
        <ele>409.5</ele>
        <time>2013-04-10T07:46:27Z</time>
      </trkpt>
      <trkpt lat="43.41962" lon="5.64068">
        <ele>409.3</ele>
        <time>2013-04-10T07:46:28Z</time>
      </trkpt>
      <trkpt lat="43.41973" lon="5.64051">
        <ele>408.7</ele>
        <time>2013-04-10T07:46:47Z</time>
      </trkpt>
      <trkpt lat="43.41979" lon="5.64043">
        <ele>406.7</ele>
        <time>2013-04-10T07:46:54Z</time>
      </trkpt>
      <trkpt lat="43.41983" lon="5.64034">
        <ele>404.7</ele>
        <time>2013-04-10T07:47:02Z</time>
      </trkpt>
      <trkpt lat="43.41988" lon="5.64025">
        <ele>402.2</ele>
        <time>2013-04-10T07:47:09Z</time>
      </trkpt>
      <trkpt lat="43.41992" lon="5.64014">
        <ele>399.6</ele>
        <time>2013-04-10T07:47:16Z</time>
      </trkpt>
      <trkpt lat="43.41997" lon="5.64005">
        <ele>397.2</ele>
        <time>2013-04-10T07:47:24Z</time>
      </trkpt>
      <trkpt lat="43.42002" lon="5.63995">
        <ele>396.5</ele>
        <time>2013-04-10T07:47:32Z</time>
      </trkpt>
      <trkpt lat="43.42002" lon="5.63993">
        <ele>397.1</ele>
        <time>2013-04-10T07:47:33Z</time>
      </trkpt>
      <trkpt lat="43.42003" lon="5.63972">
        <ele>396</ele>
        <time>2013-04-10T07:47:46Z</time>
      </trkpt>
      <trkpt lat="43.41998" lon="5.63962">
        <ele>396.1</ele>
        <time>2013-04-10T07:47:53Z</time>
      </trkpt>
      <trkpt lat="43.41993" lon="5.63953">
        <ele>396.5</ele>
        <time>2013-04-10T07:48:00Z</time>
      </trkpt>
      <trkpt lat="43.41988" lon="5.63944">
        <ele>395.8</ele>
        <time>2013-04-10T07:48:07Z</time>
      </trkpt>
      <trkpt lat="43.41983" lon="5.63935">
        <ele>396</ele>
        <time>2013-04-10T07:48:13Z</time>
      </trkpt>
      <trkpt lat="43.41978" lon="5.63926">
        <ele>395.2</ele>
        <time>2013-04-10T07:48:20Z</time>
      </trkpt>
      <trkpt lat="43.41973" lon="5.63917">
        <ele>393.7</ele>
        <time>2013-04-10T07:48:29Z</time>
      </trkpt>
      <trkpt lat="43.41969" lon="5.63907">
        <ele>393.1</ele>
        <time>2013-04-10T07:48:38Z</time>
      </trkpt>
      <trkpt lat="43.41968" lon="5.63906">
        <ele>393.1</ele>
        <time>2013-04-10T07:48:39Z</time>
      </trkpt>
      <trkpt lat="43.41958" lon="5.6389">
        <ele>392.2</ele>
        <time>2013-04-10T07:48:55Z</time>
      </trkpt>
      <trkpt lat="43.41952" lon="5.63881">
        <ele>391.1</ele>
        <time>2013-04-10T07:49:02Z</time>
      </trkpt>
      <trkpt lat="43.41946" lon="5.63874">
        <ele>390.3</ele>
        <time>2013-04-10T07:49:07Z</time>
      </trkpt>
      <trkpt lat="43.41941" lon="5.63865">
        <ele>390.2</ele>
        <time>2013-04-10T07:49:14Z</time>
      </trkpt>
      <trkpt lat="43.41937" lon="5.63855">
        <ele>391.1</ele>
        <time>2013-04-10T07:49:20Z</time>
      </trkpt>
      <trkpt lat="43.41935" lon="5.63844">
        <ele>391</ele>
        <time>2013-04-10T07:49:27Z</time>
      </trkpt>
      <trkpt lat="43.41932" lon="5.63833">
        <ele>392.2</ele>
        <time>2013-04-10T07:49:34Z</time>
      </trkpt>
      <trkpt lat="43.41928" lon="5.63823">
        <ele>392.3</ele>
        <time>2013-04-10T07:49:41Z</time>
      </trkpt>
      <trkpt lat="43.41927" lon="5.63822">
        <ele>392.1</ele>
        <time>2013-04-10T07:49:42Z</time>
      </trkpt>
      <trkpt lat="43.41921" lon="5.63802">
        <ele>393.8</ele>
        <time>2013-04-10T07:49:52Z</time>
      </trkpt>
      <trkpt lat="43.41917" lon="5.63792">
        <ele>393.7</ele>
        <time>2013-04-10T07:49:58Z</time>
      </trkpt>
      <trkpt lat="43.41914" lon="5.63781">
        <ele>393.7</ele>
        <time>2013-04-10T07:50:06Z</time>
      </trkpt>
      <trkpt lat="43.41911" lon="5.6377">
        <ele>392.7</ele>
        <time>2013-04-10T07:50:14Z</time>
      </trkpt>
      <trkpt lat="43.41909" lon="5.63758">
        <ele>391.7</ele>
        <time>2013-04-10T07:50:23Z</time>
      </trkpt>
      <trkpt lat="43.41909" lon="5.63746">
        <ele>391.2</ele>
        <time>2013-04-10T07:50:31Z</time>
      </trkpt>
      <trkpt lat="43.41908" lon="5.63734">
        <ele>394.2</ele>
        <time>2013-04-10T07:50:37Z</time>
      </trkpt>
      <trkpt lat="43.41908" lon="5.63723">
        <ele>394.8</ele>
        <time>2013-04-10T07:50:54Z</time>
      </trkpt>
      <trkpt lat="43.41908" lon="5.63722">
        <ele>396.1</ele>
        <time>2013-04-10T07:50:55Z</time>
      </trkpt>
      <trkpt lat="43.41908" lon="5.63724">
        <ele>397.5</ele>
        <time>2013-04-10T07:52:59Z</time>
      </trkpt>
      <trkpt lat="43.41909" lon="5.63723">
        <ele>397.5</ele>
        <time>2013-04-10T07:53:00Z</time>
      </trkpt>
      <trkpt lat="43.41924" lon="5.63719">
        <ele>396.5</ele>
        <time>2013-04-10T07:53:21Z</time>
      </trkpt>
      <trkpt lat="43.41933" lon="5.6372">
        <ele>396.2</ele>
        <time>2013-04-10T07:53:29Z</time>
      </trkpt>
      <trkpt lat="43.41941" lon="5.63721">
        <ele>396.2</ele>
        <time>2013-04-10T07:53:37Z</time>
      </trkpt>
      <trkpt lat="43.4195" lon="5.63721">
        <ele>396.8</ele>
        <time>2013-04-10T07:53:45Z</time>
      </trkpt>
      <trkpt lat="43.41959" lon="5.63719">
        <ele>396.7</ele>
        <time>2013-04-10T07:53:53Z</time>
      </trkpt>
      <trkpt lat="43.41966" lon="5.63713">
        <ele>396.1</ele>
        <time>2013-04-10T07:54:00Z</time>
      </trkpt>
      <trkpt lat="43.41967" lon="5.63712">
        <ele>395.7</ele>
        <time>2013-04-10T07:54:01Z</time>
      </trkpt>
      <trkpt lat="43.41979" lon="5.637">
        <ele>393.2</ele>
        <time>2013-04-10T07:54:14Z</time>
      </trkpt>
      <trkpt lat="43.41985" lon="5.63693">
        <ele>392.8</ele>
        <time>2013-04-10T07:54:20Z</time>
      </trkpt>
      <trkpt lat="43.41991" lon="5.63686">
        <ele>389.2</ele>
        <time>2013-04-10T07:54:27Z</time>
      </trkpt>
      <trkpt lat="43.41997" lon="5.63678">
        <ele>386.1</ele>
        <time>2013-04-10T07:54:34Z</time>
      </trkpt>
      <trkpt lat="43.42002" lon="5.6367">
        <ele>386</ele>
        <time>2013-04-10T07:54:39Z</time>
      </trkpt>
      <trkpt lat="43.42007" lon="5.63661">
        <ele>387.7</ele>
        <time>2013-04-10T07:54:44Z</time>
      </trkpt>
      <trkpt lat="43.42011" lon="5.63652">
        <ele>389.1</ele>
        <time>2013-04-10T07:54:50Z</time>
      </trkpt>
      <trkpt lat="43.42015" lon="5.63642">
        <ele>390.7</ele>
        <time>2013-04-10T07:54:56Z</time>
      </trkpt>
      <trkpt lat="43.4202" lon="5.63632">
        <ele>391.2</ele>
        <time>2013-04-10T07:55:03Z</time>
      </trkpt>
      <trkpt lat="43.42021" lon="5.63631">
        <ele>391.3</ele>
        <time>2013-04-10T07:55:04Z</time>
      </trkpt>
      <trkpt lat="43.42028" lon="5.63613">
        <ele>392.5</ele>
        <time>2013-04-10T07:55:16Z</time>
      </trkpt>
      <trkpt lat="43.42031" lon="5.63602">
        <ele>393.7</ele>
        <time>2013-04-10T07:55:22Z</time>
      </trkpt>
      <trkpt lat="43.42036" lon="5.63592">
        <ele>393.2</ele>
        <time>2013-04-10T07:55:29Z</time>
      </trkpt>
      <trkpt lat="43.42041" lon="5.63582">
        <ele>391.5</ele>
        <time>2013-04-10T07:55:36Z</time>
      </trkpt>
      <trkpt lat="43.42045" lon="5.63573">
        <ele>391.7</ele>
        <time>2013-04-10T07:55:42Z</time>
      </trkpt>
      <trkpt lat="43.42053" lon="5.63566">
        <ele>391.2</ele>
        <time>2013-04-10T07:55:49Z</time>
      </trkpt>
      <trkpt lat="43.42061" lon="5.63563">
        <ele>389.7</ele>
        <time>2013-04-10T07:55:57Z</time>
      </trkpt>
      <trkpt lat="43.42069" lon="5.63558">
        <ele>389.7</ele>
        <time>2013-04-10T07:56:06Z</time>
      </trkpt>
      <trkpt lat="43.4207" lon="5.63557">
        <ele>389.8</ele>
        <time>2013-04-10T07:56:07Z</time>
      </trkpt>
      <trkpt lat="43.42083" lon="5.63546">
        <ele>390.3</ele>
        <time>2013-04-10T07:56:20Z</time>
      </trkpt>
      <trkpt lat="43.4209" lon="5.63541">
        <ele>390.1</ele>
        <time>2013-04-10T07:56:28Z</time>
      </trkpt>
      <trkpt lat="43.42098" lon="5.63538">
        <ele>390.2</ele>
        <time>2013-04-10T07:56:36Z</time>
      </trkpt>
      <trkpt lat="43.42106" lon="5.63539">
        <ele>391</ele>
        <time>2013-04-10T07:56:41Z</time>
      </trkpt>
      <trkpt lat="43.42115" lon="5.63542">
        <ele>391.5</ele>
        <time>2013-04-10T07:56:46Z</time>
      </trkpt>
      <trkpt lat="43.42123" lon="5.63545">
        <ele>392.1</ele>
        <time>2013-04-10T07:56:50Z</time>
      </trkpt>
      <trkpt lat="43.4213" lon="5.6355">
        <ele>392.3</ele>
        <time>2013-04-10T07:56:56Z</time>
      </trkpt>
      <trkpt lat="43.42138" lon="5.63549">
        <ele>392.8</ele>
        <time>2013-04-10T07:57:07Z</time>
      </trkpt>
      <trkpt lat="43.42139" lon="5.63549">
        <ele>393</ele>
        <time>2013-04-10T07:57:08Z</time>
      </trkpt>
      <trkpt lat="43.42154" lon="5.63544">
        <ele>389.7</ele>
        <time>2013-04-10T07:57:20Z</time>
      </trkpt>
      <trkpt lat="43.42162" lon="5.6354">
        <ele>386.5</ele>
        <time>2013-04-10T07:57:28Z</time>
      </trkpt>
      <trkpt lat="43.4217" lon="5.63541">
        <ele>384.3</ele>
        <time>2013-04-10T07:57:35Z</time>
      </trkpt>
      <trkpt lat="43.42178" lon="5.63536">
        <ele>383.8</ele>
        <time>2013-04-10T07:57:41Z</time>
      </trkpt>
      <trkpt lat="43.42187" lon="5.63534">
        <ele>384.2</ele>
        <time>2013-04-10T07:57:48Z</time>
      </trkpt>
      <trkpt lat="43.42194" lon="5.63532">
        <ele>383.6</ele>
        <time>2013-04-10T07:57:54Z</time>
      </trkpt>
      <trkpt lat="43.42202" lon="5.63529">
        <ele>383.5</ele>
        <time>2013-04-10T07:58:01Z</time>
      </trkpt>
      <trkpt lat="43.42211" lon="5.63529">
        <ele>382.2</ele>
        <time>2013-04-10T07:58:12Z</time>
      </trkpt>
      <trkpt lat="43.42211" lon="5.63529">
        <ele>382.2</ele>
        <time>2013-04-10T07:58:13Z</time>
      </trkpt>
      <trkpt lat="43.42226" lon="5.63526">
        <ele>383.3</ele>
        <time>2013-04-10T07:58:24Z</time>
      </trkpt>
      <trkpt lat="43.42235" lon="5.63522">
        <ele>384.5</ele>
        <time>2013-04-10T07:58:30Z</time>
      </trkpt>
      <trkpt lat="43.42243" lon="5.63519">
        <ele>383.5</ele>
        <time>2013-04-10T07:58:35Z</time>
      </trkpt>
      <trkpt lat="43.4225" lon="5.63515">
        <ele>383</ele>
        <time>2013-04-10T07:58:40Z</time>
      </trkpt>
      <trkpt lat="43.42259" lon="5.63513">
        <ele>381.7</ele>
        <time>2013-04-10T07:58:46Z</time>
      </trkpt>
      <trkpt lat="43.42266" lon="5.63508">
        <ele>381.1</ele>
        <time>2013-04-10T07:58:52Z</time>
      </trkpt>
      <trkpt lat="43.42272" lon="5.63499">
        <ele>382.5</ele>
        <time>2013-04-10T07:58:58Z</time>
      </trkpt>
      <trkpt lat="43.42279" lon="5.63491">
        <ele>381</ele>
        <time>2013-04-10T07:59:05Z</time>
      </trkpt>
      <trkpt lat="43.42284" lon="5.63483">
        <ele>382.2</ele>
        <time>2013-04-10T07:59:11Z</time>
      </trkpt>
      <trkpt lat="43.42291" lon="5.63478">
        <ele>382</ele>
        <time>2013-04-10T07:59:17Z</time>
      </trkpt>
      <trkpt lat="43.42292" lon="5.63477">
        <ele>382.2</ele>
        <time>2013-04-10T07:59:18Z</time>
      </trkpt>
      <trkpt lat="43.42302" lon="5.63462">
        <ele>382.3</ele>
        <time>2013-04-10T07:59:30Z</time>
      </trkpt>
      <trkpt lat="43.42307" lon="5.63453">
        <ele>383.8</ele>
        <time>2013-04-10T07:59:35Z</time>
      </trkpt>
      <trkpt lat="43.42311" lon="5.63443">
        <ele>383.6</ele>
        <time>2013-04-10T07:59:41Z</time>
      </trkpt>
      <trkpt lat="43.42316" lon="5.63434">
        <ele>383.2</ele>
        <time>2013-04-10T07:59:47Z</time>
      </trkpt>
      <trkpt lat="43.42322" lon="5.63427">
        <ele>384</ele>
        <time>2013-04-10T07:59:53Z</time>
      </trkpt>
      <trkpt lat="43.42329" lon="5.63419">
        <ele>383.7</ele>
        <time>2013-04-10T08:00:01Z</time>
      </trkpt>
      <trkpt lat="43.42336" lon="5.63413">
        <ele>383.6</ele>
        <time>2013-04-10T08:00:08Z</time>
      </trkpt>
      <trkpt lat="43.42343" lon="5.6341">
        <ele>383</ele>
        <time>2013-04-10T08:00:14Z</time>
      </trkpt>
      <trkpt lat="43.42351" lon="5.63408">
        <ele>382.7</ele>
        <time>2013-04-10T08:00:20Z</time>
      </trkpt>
      <trkpt lat="43.42352" lon="5.63408">
        <ele>382.3</ele>
        <time>2013-04-10T08:00:21Z</time>
      </trkpt>
      <trkpt lat="43.42367" lon="5.63402">
        <ele>381.1</ele>
        <time>2013-04-10T08:00:33Z</time>
      </trkpt>
      <trkpt lat="43.42375" lon="5.63398">
        <ele>380</ele>
        <time>2013-04-10T08:00:40Z</time>
      </trkpt>
      <trkpt lat="43.42382" lon="5.63393">
        <ele>380.2</ele>
        <time>2013-04-10T08:00:46Z</time>
      </trkpt>
      <trkpt lat="43.4239" lon="5.63391">
        <ele>381</ele>
        <time>2013-04-10T08:00:51Z</time>
      </trkpt>
      <trkpt lat="43.42398" lon="5.63388">
        <ele>381.7</ele>
        <time>2013-04-10T08:00:57Z</time>
      </trkpt>
      <trkpt lat="43.42405" lon="5.63385">
        <ele>381.5</ele>
        <time>2013-04-10T08:01:04Z</time>
      </trkpt>
      <trkpt lat="43.42414" lon="5.63381">
        <ele>379.6</ele>
        <time>2013-04-10T08:01:11Z</time>
      </trkpt>
      <trkpt lat="43.42421" lon="5.63379">
        <ele>377.7</ele>
        <time>2013-04-10T08:01:17Z</time>
      </trkpt>
      <trkpt lat="43.4243" lon="5.63375">
        <ele>376.2</ele>
        <time>2013-04-10T08:01:24Z</time>
      </trkpt>
      <trkpt lat="43.42431" lon="5.63374">
        <ele>376.1</ele>
        <time>2013-04-10T08:01:25Z</time>
      </trkpt>
      <trkpt lat="43.42443" lon="5.63363">
        <ele>374.8</ele>
        <time>2013-04-10T08:01:36Z</time>
      </trkpt>
      <trkpt lat="43.4245" lon="5.63357">
        <ele>373.7</ele>
        <time>2013-04-10T08:01:42Z</time>
      </trkpt>
      <trkpt lat="43.42456" lon="5.63348">
        <ele>372.5</ele>
        <time>2013-04-10T08:01:49Z</time>
      </trkpt>
      <trkpt lat="43.42462" lon="5.63341">
        <ele>372.1</ele>
        <time>2013-04-10T08:01:55Z</time>
      </trkpt>
      <trkpt lat="43.42468" lon="5.63334">
        <ele>372.5</ele>
        <time>2013-04-10T08:02:01Z</time>
      </trkpt>
      <trkpt lat="43.42475" lon="5.63327">
        <ele>371.7</ele>
        <time>2013-04-10T08:02:08Z</time>
      </trkpt>
      <trkpt lat="43.42481" lon="5.63319">
        <ele>371.2</ele>
        <time>2013-04-10T08:02:14Z</time>
      </trkpt>
      <trkpt lat="43.42487" lon="5.63313">
        <ele>370.1</ele>
        <time>2013-04-10T08:02:20Z</time>
      </trkpt>
      <trkpt lat="43.42493" lon="5.63305">
        <ele>370</ele>
        <time>2013-04-10T08:02:26Z</time>
      </trkpt>
      <trkpt lat="43.42494" lon="5.63304">
        <ele>370</ele>
        <time>2013-04-10T08:02:27Z</time>
      </trkpt>
      <trkpt lat="43.42505" lon="5.6329">
        <ele>369.5</ele>
        <time>2013-04-10T08:02:38Z</time>
      </trkpt>
      <trkpt lat="43.42513" lon="5.63287">
        <ele>368.6</ele>
        <time>2013-04-10T08:02:45Z</time>
      </trkpt>
      <trkpt lat="43.42521" lon="5.63285">
        <ele>367</ele>
        <time>2013-04-10T08:02:52Z</time>
      </trkpt>
      <trkpt lat="43.42528" lon="5.6328">
        <ele>365.7</ele>
        <time>2013-04-10T08:02:58Z</time>
      </trkpt>
      <trkpt lat="43.42534" lon="5.63273">
        <ele>364.7</ele>
        <time>2013-04-10T08:03:04Z</time>
      </trkpt>
      <trkpt lat="43.42541" lon="5.63269">
        <ele>362.7</ele>
        <time>2013-04-10T08:03:11Z</time>
      </trkpt>
      <trkpt lat="43.4255" lon="5.63269">
        <ele>360.7</ele>
        <time>2013-04-10T08:03:19Z</time>
      </trkpt>
      <trkpt lat="43.42558" lon="5.6327">
        <ele>360</ele>
        <time>2013-04-10T08:03:26Z</time>
      </trkpt>
      <trkpt lat="43.42567" lon="5.6327">
        <ele>360.2</ele>
        <time>2013-04-10T08:03:32Z</time>
      </trkpt>
      <trkpt lat="43.42568" lon="5.6327">
        <ele>360.5</ele>
        <time>2013-04-10T08:03:33Z</time>
      </trkpt>
      <trkpt lat="43.42582" lon="5.63262">
        <ele>361.1</ele>
        <time>2013-04-10T08:03:45Z</time>
      </trkpt>
      <trkpt lat="43.42586" lon="5.63252">
        <ele>360.8</ele>
        <time>2013-04-10T08:03:52Z</time>
      </trkpt>
      <trkpt lat="43.42588" lon="5.6324">
        <ele>360.1</ele>
        <time>2013-04-10T08:03:59Z</time>
      </trkpt>
      <trkpt lat="43.42591" lon="5.63229">
        <ele>359</ele>
        <time>2013-04-10T08:04:06Z</time>
      </trkpt>
      <trkpt lat="43.42596" lon="5.6322">
        <ele>357.7</ele>
        <time>2013-04-10T08:04:12Z</time>
      </trkpt>
      <trkpt lat="43.42601" lon="5.6321">
        <ele>356.2</ele>
        <time>2013-04-10T08:04:19Z</time>
      </trkpt>
      <trkpt lat="43.42605" lon="5.632">
        <ele>357.2</ele>
        <time>2013-04-10T08:04:25Z</time>
      </trkpt>
      <trkpt lat="43.42611" lon="5.63192">
        <ele>355.3</ele>
        <time>2013-04-10T08:04:32Z</time>
      </trkpt>
      <trkpt lat="43.42617" lon="5.63183">
        <ele>350.8</ele>
        <time>2013-04-10T08:04:39Z</time>
      </trkpt>
      <trkpt lat="43.42618" lon="5.63182">
        <ele>350.6</ele>
        <time>2013-04-10T08:04:40Z</time>
      </trkpt>
      <trkpt lat="43.42627" lon="5.63166">
        <ele>350.7</ele>
        <time>2013-04-10T08:04:51Z</time>
      </trkpt>
      <trkpt lat="43.42634" lon="5.6316">
        <ele>349.7</ele>
        <time>2013-04-10T08:04:58Z</time>
      </trkpt>
      <trkpt lat="43.4264" lon="5.63152">
        <ele>349.3</ele>
        <time>2013-04-10T08:05:05Z</time>
      </trkpt>
      <trkpt lat="43.42647" lon="5.63146">
        <ele>348.3</ele>
        <time>2013-04-10T08:05:12Z</time>
      </trkpt>
      <trkpt lat="43.42654" lon="5.6314">
        <ele>346.8</ele>
        <time>2013-04-10T08:05:19Z</time>
      </trkpt>
      <trkpt lat="43.42662" lon="5.63137">
        <ele>345.7</ele>
        <time>2013-04-10T08:05:26Z</time>
      </trkpt>
      <trkpt lat="43.4267" lon="5.63132">
        <ele>346.1</ele>
        <time>2013-04-10T08:05:34Z</time>
      </trkpt>
      <trkpt lat="43.42678" lon="5.63128">
        <ele>347.1</ele>
        <time>2013-04-10T08:05:40Z</time>
      </trkpt>
      <trkpt lat="43.42679" lon="5.63128">
        <ele>347.2</ele>
        <time>2013-04-10T08:05:41Z</time>
      </trkpt>
      <trkpt lat="43.42694" lon="5.63125">
        <ele>345.8</ele>
        <time>2013-04-10T08:05:58Z</time>
      </trkpt>
      <trkpt lat="43.42702" lon="5.63131">
        <ele>344.6</ele>
        <time>2013-04-10T08:06:05Z</time>
      </trkpt>
      <trkpt lat="43.42709" lon="5.63137">
        <ele>343.7</ele>
        <time>2013-04-10T08:06:13Z</time>
      </trkpt>
      <trkpt lat="43.42716" lon="5.63143">
        <ele>343.8</ele>
        <time>2013-04-10T08:06:22Z</time>
      </trkpt>
      <trkpt lat="43.42724" lon="5.63147">
        <ele>342.6</ele>
        <time>2013-04-10T08:06:29Z</time>
      </trkpt>
      <trkpt lat="43.42731" lon="5.63149">
        <ele>342.1</ele>
        <time>2013-04-10T08:06:34Z</time>
      </trkpt>
      <trkpt lat="43.4274" lon="5.63151">
        <ele>342.2</ele>
        <time>2013-04-10T08:06:40Z</time>
      </trkpt>
      <trkpt lat="43.42748" lon="5.63153">
        <ele>342.1</ele>
        <time>2013-04-10T08:06:45Z</time>
      </trkpt>
      <trkpt lat="43.4275" lon="5.63153">
        <ele>342.2</ele>
        <time>2013-04-10T08:06:46Z</time>
      </trkpt>
      <trkpt lat="43.42764" lon="5.63159">
        <ele>342.7</ele>
        <time>2013-04-10T08:06:55Z</time>
      </trkpt>
      <trkpt lat="43.42771" lon="5.63166">
        <ele>339.2</ele>
        <time>2013-04-10T08:07:04Z</time>
      </trkpt>
      <trkpt lat="43.4278" lon="5.63169">
        <ele>336.7</ele>
        <time>2013-04-10T08:07:13Z</time>
      </trkpt>
      <trkpt lat="43.42788" lon="5.6317">
        <ele>335.1</ele>
        <time>2013-04-10T08:07:20Z</time>
      </trkpt>
      <trkpt lat="43.42797" lon="5.63169">
        <ele>334.5</ele>
        <time>2013-04-10T08:07:27Z</time>
      </trkpt>
      <trkpt lat="43.42805" lon="5.63169">
        <ele>333.7</ele>
        <time>2013-04-10T08:07:33Z</time>
      </trkpt>
      <trkpt lat="43.42813" lon="5.63168">
        <ele>335.5</ele>
        <time>2013-04-10T08:07:38Z</time>
      </trkpt>
      <trkpt lat="43.42822" lon="5.63166">
        <ele>337</ele>
        <time>2013-04-10T08:07:43Z</time>
      </trkpt>
      <trkpt lat="43.4283" lon="5.63163">
        <ele>338.7</ele>
        <time>2013-04-10T08:07:49Z</time>
      </trkpt>
      <trkpt lat="43.42831" lon="5.63162">
        <ele>338.6</ele>
        <time>2013-04-10T08:07:50Z</time>
      </trkpt>
      <trkpt lat="43.42845" lon="5.63154">
        <ele>336.7</ele>
        <time>2013-04-10T08:08:02Z</time>
      </trkpt>
      <trkpt lat="43.42853" lon="5.63152">
        <ele>335.7</ele>
        <time>2013-04-10T08:08:08Z</time>
      </trkpt>
      <trkpt lat="43.42861" lon="5.63153">
        <ele>336</ele>
        <time>2013-04-10T08:08:13Z</time>
      </trkpt>
      <trkpt lat="43.42869" lon="5.63155">
        <ele>335.2</ele>
        <time>2013-04-10T08:08:19Z</time>
      </trkpt>
      <trkpt lat="43.42878" lon="5.63153">
        <ele>335.2</ele>
        <time>2013-04-10T08:08:26Z</time>
      </trkpt>
      <trkpt lat="43.42886" lon="5.6315">
        <ele>334.3</ele>
        <time>2013-04-10T08:08:33Z</time>
      </trkpt>
      <trkpt lat="43.42894" lon="5.63145">
        <ele>333.2</ele>
        <time>2013-04-10T08:08:40Z</time>
      </trkpt>
      <trkpt lat="43.42902" lon="5.63142">
        <ele>332.2</ele>
        <time>2013-04-10T08:08:47Z</time>
      </trkpt>
      <trkpt lat="43.4291" lon="5.63136">
        <ele>332.1</ele>
        <time>2013-04-10T08:08:53Z</time>
      </trkpt>
      <trkpt lat="43.42911" lon="5.63136">
        <ele>331.6</ele>
        <time>2013-04-10T08:08:54Z</time>
      </trkpt>
      <trkpt lat="43.42923" lon="5.63121">
        <ele>328</ele>
        <time>2013-04-10T08:09:09Z</time>
      </trkpt>
      <trkpt lat="43.42929" lon="5.63114">
        <ele>325.6</ele>
        <time>2013-04-10T08:09:16Z</time>
      </trkpt>
      <trkpt lat="43.42933" lon="5.63105">
        <ele>325.6</ele>
        <time>2013-04-10T08:09:23Z</time>
      </trkpt>
      <trkpt lat="43.42941" lon="5.63102">
        <ele>327.3</ele>
        <time>2013-04-10T08:09:28Z</time>
      </trkpt>
      <trkpt lat="43.42949" lon="5.63098">
        <ele>327.1</ele>
        <time>2013-04-10T08:09:34Z</time>
      </trkpt>
      <trkpt lat="43.42955" lon="5.63091">
        <ele>328</ele>
        <time>2013-04-10T08:09:40Z</time>
      </trkpt>
      <trkpt lat="43.42962" lon="5.63084">
        <ele>329</ele>
        <time>2013-04-10T08:09:46Z</time>
      </trkpt>
      <trkpt lat="43.42967" lon="5.63077">
        <ele>330.7</ele>
        <time>2013-04-10T08:09:53Z</time>
      </trkpt>
      <trkpt lat="43.42974" lon="5.63069">
        <ele>329.3</ele>
        <time>2013-04-10T08:10:03Z</time>
      </trkpt>
      <trkpt lat="43.42974" lon="5.63069">
        <ele>329.2</ele>
        <time>2013-04-10T08:10:04Z</time>
      </trkpt>
      <trkpt lat="43.42989" lon="5.63057">
        <ele>330.6</ele>
        <time>2013-04-10T08:10:25Z</time>
      </trkpt>
      <trkpt lat="43.42995" lon="5.63048">
        <ele>333.2</ele>
        <time>2013-04-10T08:10:45Z</time>
      </trkpt>
      <trkpt lat="43.42998" lon="5.63037">
        <ele>338</ele>
        <time>2013-04-10T08:13:01Z</time>
      </trkpt>
      <trkpt lat="43.42998" lon="5.63037">
        <ele>337.8</ele>
        <time>2013-04-10T08:13:02Z</time>
      </trkpt>
      <trkpt lat="43.42997" lon="5.63039">
        <ele>336.2</ele>
        <time>2013-04-10T08:14:28Z</time>
      </trkpt>
      <trkpt lat="43.42997" lon="5.63038">
        <ele>336.2</ele>
        <time>2013-04-10T08:14:29Z</time>
      </trkpt>
      <trkpt lat="43.43004" lon="5.63032">
        <ele>339.5</ele>
        <time>2013-04-10T08:22:59Z</time>
      </trkpt>
      <trkpt lat="43.43016" lon="5.63015">
        <ele>332.8</ele>
        <time>2013-04-10T08:23:48Z</time>
      </trkpt>
      <trkpt lat="43.43023" lon="5.63009">
        <ele>330.7</ele>
        <time>2013-04-10T08:23:56Z</time>
      </trkpt>
      <trkpt lat="43.43032" lon="5.63004">
        <ele>328.6</ele>
        <time>2013-04-10T08:24:05Z</time>
      </trkpt>
      <trkpt lat="43.43032" lon="5.63003">
        <ele>328.2</ele>
        <time>2013-04-10T08:24:06Z</time>
      </trkpt>
      <trkpt lat="43.43046" lon="5.62991">
        <ele>325.5</ele>
        <time>2013-04-10T08:24:21Z</time>
      </trkpt>
      <trkpt lat="43.43052" lon="5.62983">
        <ele>325.3</ele>
        <time>2013-04-10T08:24:28Z</time>
      </trkpt>
      <trkpt lat="43.43058" lon="5.62976">
        <ele>326.7</ele>
        <time>2013-04-10T08:24:34Z</time>
      </trkpt>
      <trkpt lat="43.43063" lon="5.62966">
        <ele>325.3</ele>
        <time>2013-04-10T08:24:41Z</time>
      </trkpt>
      <trkpt lat="43.4307" lon="5.62959">
        <ele>325.6</ele>
        <time>2013-04-10T08:24:47Z</time>
      </trkpt>
      <trkpt lat="43.43074" lon="5.62949">
        <ele>322.8</ele>
        <time>2013-04-10T08:24:54Z</time>
      </trkpt>
      <trkpt lat="43.4308" lon="5.6294">
        <ele>321.5</ele>
        <time>2013-04-10T08:25:01Z</time>
      </trkpt>
      <trkpt lat="43.43087" lon="5.62933">
        <ele>321.1</ele>
        <time>2013-04-10T08:25:07Z</time>
      </trkpt>
      <trkpt lat="43.43088" lon="5.62932">
        <ele>321.7</ele>
        <time>2013-04-10T08:25:08Z</time>
      </trkpt>
      <trkpt lat="43.43099" lon="5.62919">
        <ele>320.6</ele>
        <time>2013-04-10T08:25:19Z</time>
      </trkpt>
      <trkpt lat="43.43106" lon="5.62913">
        <ele>320.7</ele>
        <time>2013-04-10T08:25:24Z</time>
      </trkpt>
      <trkpt lat="43.43113" lon="5.62908">
        <ele>320</ele>
        <time>2013-04-10T08:25:30Z</time>
      </trkpt>
      <trkpt lat="43.4312" lon="5.62902">
        <ele>319.5</ele>
        <time>2013-04-10T08:25:36Z</time>
      </trkpt>
      <trkpt lat="43.43126" lon="5.62895">
        <ele>320.7</ele>
        <time>2013-04-10T08:25:41Z</time>
      </trkpt>
      <trkpt lat="43.43133" lon="5.62889">
        <ele>318.7</ele>
        <time>2013-04-10T08:25:49Z</time>
      </trkpt>
      <trkpt lat="43.43141" lon="5.62885">
        <ele>318.5</ele>
        <time>2013-04-10T08:25:56Z</time>
      </trkpt>
      <trkpt lat="43.43149" lon="5.62882">
        <ele>317.8</ele>
        <time>2013-04-10T08:26:01Z</time>
      </trkpt>
      <trkpt lat="43.43156" lon="5.62876">
        <ele>319.6</ele>
        <time>2013-04-10T08:26:07Z</time>
      </trkpt>
      <trkpt lat="43.43162" lon="5.62868">
        <ele>322.2</ele>
        <time>2013-04-10T08:26:13Z</time>
      </trkpt>
      <trkpt lat="43.43163" lon="5.62867">
        <ele>322.3</ele>
        <time>2013-04-10T08:26:14Z</time>
      </trkpt>
      <trkpt lat="43.43176" lon="5.62857">
        <ele>322.2</ele>
        <time>2013-04-10T08:26:25Z</time>
      </trkpt>
      <trkpt lat="43.43183" lon="5.6285">
        <ele>318.3</ele>
        <time>2013-04-10T08:26:33Z</time>
      </trkpt>
      <trkpt lat="43.43189" lon="5.62843">
        <ele>315.3</ele>
        <time>2013-04-10T08:26:40Z</time>
      </trkpt>
      <trkpt lat="43.43195" lon="5.62837">
        <ele>313.5</ele>
        <time>2013-04-10T08:26:47Z</time>
      </trkpt>
      <trkpt lat="43.43202" lon="5.6283">
        <ele>311.7</ele>
        <time>2013-04-10T08:26:55Z</time>
      </trkpt>
      <trkpt lat="43.4321" lon="5.62824">
        <ele>310.8</ele>
        <time>2013-04-10T08:27:02Z</time>
      </trkpt>
      <trkpt lat="43.43218" lon="5.6282">
        <ele>311.5</ele>
        <time>2013-04-10T08:27:09Z</time>
      </trkpt>
      <trkpt lat="43.43226" lon="5.62817">
        <ele>312.5</ele>
        <time>2013-04-10T08:27:15Z</time>
      </trkpt>
      <trkpt lat="43.43227" lon="5.62817">
        <ele>312.3</ele>
        <time>2013-04-10T08:27:16Z</time>
      </trkpt>
      <trkpt lat="43.43243" lon="5.62819">
        <ele>313.5</ele>
        <time>2013-04-10T08:27:27Z</time>
      </trkpt>
      <trkpt lat="43.43251" lon="5.62821">
        <ele>314.7</ele>
        <time>2013-04-10T08:27:33Z</time>
      </trkpt>
      <trkpt lat="43.43257" lon="5.62823">
        <ele>316.2</ele>
        <time>2013-04-10T08:27:38Z</time>
      </trkpt>
      <trkpt lat="43.43265" lon="5.62823">
        <ele>317.6</ele>
        <time>2013-04-10T08:27:43Z</time>
      </trkpt>
      <trkpt lat="43.43274" lon="5.6282">
        <ele>318.2</ele>
        <time>2013-04-10T08:27:56Z</time>
      </trkpt>
      <trkpt lat="43.43282" lon="5.62825">
        <ele>316.2</ele>
        <time>2013-04-10T08:28:04Z</time>
      </trkpt>
      <trkpt lat="43.43288" lon="5.62833">
        <ele>316.7</ele>
        <time>2013-04-10T08:28:12Z</time>
      </trkpt>
      <trkpt lat="43.43294" lon="5.6284">
        <ele>316</ele>
        <time>2013-04-10T08:28:19Z</time>
      </trkpt>
      <trkpt lat="43.43295" lon="5.62842">
        <ele>315.7</ele>
        <time>2013-04-10T08:28:20Z</time>
      </trkpt>
      <trkpt lat="43.43307" lon="5.62856">
        <ele>315.5</ele>
        <time>2013-04-10T08:28:33Z</time>
      </trkpt>
      <trkpt lat="43.43314" lon="5.62863">
        <ele>317.6</ele>
        <time>2013-04-10T08:28:40Z</time>
      </trkpt>
      <trkpt lat="43.43322" lon="5.62869">
        <ele>317.3</ele>
        <time>2013-04-10T08:28:46Z</time>
      </trkpt>
      <trkpt lat="43.4333" lon="5.62872">
        <ele>315.7</ele>
        <time>2013-04-10T08:28:53Z</time>
      </trkpt>
      <trkpt lat="43.43337" lon="5.62875">
        <ele>314</ele>
        <time>2013-04-10T08:29:00Z</time>
      </trkpt>
      <trkpt lat="43.43346" lon="5.62877">
        <ele>316.2</ele>
        <time>2013-04-10T08:29:06Z</time>
      </trkpt>
      <trkpt lat="43.43354" lon="5.62881">
        <ele>318.5</ele>
        <time>2013-04-10T08:29:13Z</time>
      </trkpt>
      <trkpt lat="43.43362" lon="5.62884">
        <ele>317.6</ele>
        <time>2013-04-10T08:29:20Z</time>
      </trkpt>
      <trkpt lat="43.43363" lon="5.62884">
        <ele>317.5</ele>
        <time>2013-04-10T08:29:21Z</time>
      </trkpt>
      <trkpt lat="43.43378" lon="5.6289">
        <ele>317.7</ele>
        <time>2013-04-10T08:29:36Z</time>
      </trkpt>
      <trkpt lat="43.43386" lon="5.62894">
        <ele>318</ele>
        <time>2013-04-10T08:29:43Z</time>
      </trkpt>
      <trkpt lat="43.43394" lon="5.62898">
        <ele>318.7</ele>
        <time>2013-04-10T08:29:51Z</time>
      </trkpt>
      <trkpt lat="43.43402" lon="5.62903">
        <ele>318.7</ele>
        <time>2013-04-10T08:29:58Z</time>
      </trkpt>
      <trkpt lat="43.43409" lon="5.62908">
        <ele>319.6</ele>
        <time>2013-04-10T08:30:04Z</time>
      </trkpt>
      <trkpt lat="43.43417" lon="5.62912">
        <ele>318.5</ele>
        <time>2013-04-10T08:30:10Z</time>
      </trkpt>
      <trkpt lat="43.43426" lon="5.62916">
        <ele>316.7</ele>
        <time>2013-04-10T08:30:16Z</time>
      </trkpt>
      <trkpt lat="43.43433" lon="5.62917">
        <ele>315</ele>
        <time>2013-04-10T08:30:22Z</time>
      </trkpt>
      <trkpt lat="43.43435" lon="5.62917">
        <ele>315</ele>
        <time>2013-04-10T08:30:23Z</time>
      </trkpt>
      <trkpt lat="43.4345" lon="5.62916">
        <ele>314.2</ele>
        <time>2013-04-10T08:30:35Z</time>
      </trkpt>
      <trkpt lat="43.43459" lon="5.62916">
        <ele>313.5</ele>
        <time>2013-04-10T08:30:42Z</time>
      </trkpt>
      <trkpt lat="43.43467" lon="5.62916">
        <ele>314.7</ele>
        <time>2013-04-10T08:30:47Z</time>
      </trkpt>
      <trkpt lat="43.43476" lon="5.62915">
        <ele>315.1</ele>
        <time>2013-04-10T08:30:54Z</time>
      </trkpt>
      <trkpt lat="43.43485" lon="5.62913">
        <ele>315.7</ele>
        <time>2013-04-10T08:31:02Z</time>
      </trkpt>
      <trkpt lat="43.43493" lon="5.62913">
        <ele>317</ele>
        <time>2013-04-10T08:31:08Z</time>
      </trkpt>
      <trkpt lat="43.43502" lon="5.62913">
        <ele>316.3</ele>
        <time>2013-04-10T08:31:16Z</time>
      </trkpt>
      <trkpt lat="43.43511" lon="5.62913">
        <ele>315.7</ele>
        <time>2013-04-10T08:31:23Z</time>
      </trkpt>
      <trkpt lat="43.43512" lon="5.62913">
        <ele>315.7</ele>
        <time>2013-04-10T08:31:24Z</time>
      </trkpt>
      <trkpt lat="43.43527" lon="5.62913">
        <ele>314.3</ele>
        <time>2013-04-10T08:31:36Z</time>
      </trkpt>
      <trkpt lat="43.43535" lon="5.62914">
        <ele>313.7</ele>
        <time>2013-04-10T08:31:40Z</time>
      </trkpt>
      <trkpt lat="43.43543" lon="5.62914">
        <ele>310.7</ele>
        <time>2013-04-10T08:31:48Z</time>
      </trkpt>
      <trkpt lat="43.43552" lon="5.62913">
        <ele>311.6</ele>
        <time>2013-04-10T08:31:55Z</time>
      </trkpt>
      <trkpt lat="43.4356" lon="5.62913">
        <ele>313.3</ele>
        <time>2013-04-10T08:32:00Z</time>
      </trkpt>
      <trkpt lat="43.43569" lon="5.62912">
        <ele>310.7</ele>
        <time>2013-04-10T08:32:11Z</time>
      </trkpt>
      <trkpt lat="43.43576" lon="5.62911">
        <ele>312.1</ele>
        <time>2013-04-10T08:32:21Z</time>
      </trkpt>
      <trkpt lat="43.43585" lon="5.6291">
        <ele>312.1</ele>
        <time>2013-04-10T08:32:29Z</time>
      </trkpt>
      <trkpt lat="43.43587" lon="5.6291">
        <ele>312.6</ele>
        <time>2013-04-10T08:32:30Z</time>
      </trkpt>
      <trkpt lat="43.436" lon="5.6291">
        <ele>312.1</ele>
        <time>2013-04-10T08:32:39Z</time>
      </trkpt>
      <trkpt lat="43.43608" lon="5.62909">
        <ele>311.2</ele>
        <time>2013-04-10T08:32:46Z</time>
      </trkpt>
      <trkpt lat="43.43617" lon="5.6291">
        <ele>310.6</ele>
        <time>2013-04-10T08:32:52Z</time>
      </trkpt>
      <trkpt lat="43.43623" lon="5.6291">
        <ele>309.3</ele>
        <time>2013-04-10T08:32:57Z</time>
      </trkpt>
      <trkpt lat="43.43631" lon="5.62911">
        <ele>310.1</ele>
        <time>2013-04-10T08:33:01Z</time>
      </trkpt>
      <trkpt lat="43.43639" lon="5.62912">
        <ele>308</ele>
        <time>2013-04-10T08:33:07Z</time>
      </trkpt>
      <trkpt lat="43.43647" lon="5.62914">
        <ele>308.7</ele>
        <time>2013-04-10T08:33:14Z</time>
      </trkpt>
      <trkpt lat="43.43655" lon="5.62917">
        <ele>308.6</ele>
        <time>2013-04-10T08:33:21Z</time>
      </trkpt>
      <trkpt lat="43.43663" lon="5.62919">
        <ele>307.7</ele>
        <time>2013-04-10T08:33:28Z</time>
      </trkpt>
      <trkpt lat="43.43672" lon="5.62922">
        <ele>308.8</ele>
        <time>2013-04-10T08:33:33Z</time>
      </trkpt>
      <trkpt lat="43.43674" lon="5.62922">
        <ele>309.2</ele>
        <time>2013-04-10T08:33:34Z</time>
      </trkpt>
      <trkpt lat="43.43689" lon="5.62928">
        <ele>309.5</ele>
        <time>2013-04-10T08:33:48Z</time>
      </trkpt>
      <trkpt lat="43.43697" lon="5.62931">
        <ele>308.2</ele>
        <time>2013-04-10T08:33:54Z</time>
      </trkpt>
      <trkpt lat="43.43705" lon="5.62935">
        <ele>307.8</ele>
        <time>2013-04-10T08:34:01Z</time>
      </trkpt>
      <trkpt lat="43.43713" lon="5.62939">
        <ele>307.6</ele>
        <time>2013-04-10T08:34:07Z</time>
      </trkpt>
      <trkpt lat="43.43721" lon="5.62944">
        <ele>307.6</ele>
        <time>2013-04-10T08:34:15Z</time>
      </trkpt>
      <trkpt lat="43.43728" lon="5.62948">
        <ele>307.3</ele>
        <time>2013-04-10T08:34:21Z</time>
      </trkpt>
      <trkpt lat="43.43736" lon="5.62951">
        <ele>306.6</ele>
        <time>2013-04-10T08:34:28Z</time>
      </trkpt>
      <trkpt lat="43.43744" lon="5.62955">
        <ele>304.8</ele>
        <time>2013-04-10T08:34:35Z</time>
      </trkpt>
      <trkpt lat="43.43746" lon="5.62956">
        <ele>304.8</ele>
        <time>2013-04-10T08:34:36Z</time>
      </trkpt>
      <trkpt lat="43.43761" lon="5.62961">
        <ele>305.1</ele>
        <time>2013-04-10T08:34:48Z</time>
      </trkpt>
      <trkpt lat="43.43769" lon="5.62963">
        <ele>304.7</ele>
        <time>2013-04-10T08:34:55Z</time>
      </trkpt>
      <trkpt lat="43.43777" lon="5.62966">
        <ele>301.6</ele>
        <time>2013-04-10T08:35:00Z</time>
      </trkpt>
      <trkpt lat="43.43785" lon="5.62967">
        <ele>302</ele>
        <time>2013-04-10T08:35:07Z</time>
      </trkpt>
      <trkpt lat="43.43793" lon="5.6297">
        <ele>301.3</ele>
        <time>2013-04-10T08:35:15Z</time>
      </trkpt>
      <trkpt lat="43.43802" lon="5.62973">
        <ele>302.7</ele>
        <time>2013-04-10T08:35:23Z</time>
      </trkpt>
      <trkpt lat="43.43809" lon="5.62977">
        <ele>304.7</ele>
        <time>2013-04-10T08:35:29Z</time>
      </trkpt>
      <trkpt lat="43.43816" lon="5.62982">
        <ele>304.2</ele>
        <time>2013-04-10T08:35:35Z</time>
      </trkpt>
      <trkpt lat="43.43822" lon="5.62986">
        <ele>302.7</ele>
        <time>2013-04-10T08:35:40Z</time>
      </trkpt>
      <trkpt lat="43.43824" lon="5.62987">
        <ele>301.7</ele>
        <time>2013-04-10T08:35:41Z</time>
      </trkpt>
      <trkpt lat="43.43837" lon="5.62996">
        <ele>301.5</ele>
        <time>2013-04-10T08:35:52Z</time>
      </trkpt>
      <trkpt lat="43.43845" lon="5.63001">
        <ele>303.7</ele>
        <time>2013-04-10T08:35:59Z</time>
      </trkpt>
      <trkpt lat="43.43853" lon="5.63005">
        <ele>306.1</ele>
        <time>2013-04-10T08:36:05Z</time>
      </trkpt>
      <trkpt lat="43.43859" lon="5.63013">
        <ele>311.5</ele>
        <time>2013-04-10T08:36:39Z</time>
      </trkpt>
      <trkpt lat="43.43866" lon="5.6302">
        <ele>304.2</ele>
        <time>2013-04-10T08:37:00Z</time>
      </trkpt>
      <trkpt lat="43.43868" lon="5.6302">
        <ele>302.8</ele>
        <time>2013-04-10T08:37:01Z</time>
      </trkpt>
      <trkpt lat="43.43867" lon="5.63007">
        <ele>307.6</ele>
        <time>2013-04-10T08:40:09Z</time>
      </trkpt>
      <trkpt lat="43.43881" lon="5.63018">
        <ele>312.7</ele>
        <time>2013-04-10T08:40:52Z</time>
      </trkpt>
      <trkpt lat="43.43881" lon="5.63028">
        <ele>295.3</ele>
        <time>2013-04-10T08:44:19Z</time>
      </trkpt>
      <trkpt lat="43.43881" lon="5.6303">
        <ele>295.8</ele>
        <time>2013-04-10T08:44:20Z</time>
      </trkpt>
      <trkpt lat="43.43874" lon="5.63049">
        <ele>298.2</ele>
        <time>2013-04-10T08:44:33Z</time>
      </trkpt>
      <trkpt lat="43.43869" lon="5.63058">
        <ele>300.8</ele>
        <time>2013-04-10T08:44:40Z</time>
      </trkpt>
      <trkpt lat="43.43877" lon="5.63054">
        <ele>297.2</ele>
        <time>2013-04-10T08:46:41Z</time>
      </trkpt>
      <trkpt lat="43.43878" lon="5.63054">
        <ele>297</ele>
        <time>2013-04-10T08:46:42Z</time>
      </trkpt>
      <trkpt lat="43.43882" lon="5.63032">
        <ele>298.2</ele>
        <time>2013-04-10T08:47:10Z</time>
      </trkpt>
      <trkpt lat="43.43887" lon="5.63021">
        <ele>301.3</ele>
        <time>2013-04-10T08:47:25Z</time>
      </trkpt>
      <trkpt lat="43.43895" lon="5.63026">
        <ele>304.2</ele>
        <time>2013-04-10T08:48:14Z</time>
      </trkpt>
      <trkpt lat="43.43896" lon="5.63027">
        <ele>305</ele>
        <time>2013-04-10T08:48:15Z</time>
      </trkpt>
      <trkpt lat="43.43911" lon="5.63035">
        <ele>303.2</ele>
        <time>2013-04-10T08:48:30Z</time>
      </trkpt>
      <trkpt lat="43.43919" lon="5.63037">
        <ele>303.2</ele>
        <time>2013-04-10T08:48:39Z</time>
      </trkpt>
      <trkpt lat="43.43927" lon="5.6304">
        <ele>304.1</ele>
        <time>2013-04-10T08:48:45Z</time>
      </trkpt>
      <trkpt lat="43.43935" lon="5.63046">
        <ele>305.7</ele>
        <time>2013-04-10T08:48:54Z</time>
      </trkpt>
      <trkpt lat="43.43943" lon="5.63051">
        <ele>307.6</ele>
        <time>2013-04-10T08:49:02Z</time>
      </trkpt>
      <trkpt lat="43.43951" lon="5.63054">
        <ele>305.7</ele>
        <time>2013-04-10T08:49:09Z</time>
      </trkpt>
      <trkpt lat="43.43958" lon="5.63056">
        <ele>304.2</ele>
        <time>2013-04-10T08:49:15Z</time>
      </trkpt>
      <trkpt lat="43.4396" lon="5.63057">
        <ele>304.2</ele>
        <time>2013-04-10T08:49:16Z</time>
      </trkpt>
      <trkpt lat="43.43974" lon="5.63062">
        <ele>306.1</ele>
        <time>2013-04-10T08:49:30Z</time>
      </trkpt>
      <trkpt lat="43.43983" lon="5.63063">
        <ele>305.8</ele>
        <time>2013-04-10T08:49:39Z</time>
      </trkpt>
      <trkpt lat="43.43991" lon="5.63061">
        <ele>306</ele>
        <time>2013-04-10T08:49:46Z</time>
      </trkpt>
      <trkpt lat="43.43999" lon="5.63056">
        <ele>306.3</ele>
        <time>2013-04-10T08:49:56Z</time>
      </trkpt>
      <trkpt lat="43.44001" lon="5.63045">
        <ele>311.2</ele>
        <time>2013-04-10T08:50:09Z</time>
      </trkpt>
      <trkpt lat="43.43997" lon="5.63034">
        <ele>315</ele>
        <time>2013-04-10T08:50:19Z</time>
      </trkpt>
      <trkpt lat="43.43996" lon="5.63034">
        <ele>315.3</ele>
        <time>2013-04-10T08:50:20Z</time>
      </trkpt>
      <trkpt lat="43.43983" lon="5.63021">
        <ele>317.5</ele>
        <time>2013-04-10T08:50:41Z</time>
      </trkpt>
      <trkpt lat="43.43977" lon="5.63015">
        <ele>319.8</ele>
        <time>2013-04-10T08:50:51Z</time>
      </trkpt>
      <trkpt lat="43.4397" lon="5.63006">
        <ele>324</ele>
        <time>2013-04-10T08:51:00Z</time>
      </trkpt>
      <trkpt lat="43.43963" lon="5.63">
        <ele>327.3</ele>
        <time>2013-04-10T08:51:13Z</time>
      </trkpt>
      <trkpt lat="43.43956" lon="5.62993">
        <ele>326.5</ele>
        <time>2013-04-10T08:51:21Z</time>
      </trkpt>
      <trkpt lat="43.43956" lon="5.62992">
        <ele>326</ele>
        <time>2013-04-10T08:51:22Z</time>
      </trkpt>
      <trkpt lat="43.43942" lon="5.62981">
        <ele>329</ele>
        <time>2013-04-10T08:51:37Z</time>
      </trkpt>
      <trkpt lat="43.43941" lon="5.6297">
        <ele>324.7</ele>
        <time>2013-04-10T08:51:48Z</time>
      </trkpt>
      <trkpt lat="43.43943" lon="5.62958">
        <ele>328.6</ele>
        <time>2013-04-10T08:51:58Z</time>
      </trkpt>
      <trkpt lat="43.43943" lon="5.62946">
        <ele>325.3</ele>
        <time>2013-04-10T08:52:09Z</time>
      </trkpt>
      <trkpt lat="43.43943" lon="5.62934">
        <ele>325.7</ele>
        <time>2013-04-10T08:52:21Z</time>
      </trkpt>
      <trkpt lat="43.43942" lon="5.62922">
        <ele>325</ele>
        <time>2013-04-10T08:52:29Z</time>
      </trkpt>
      <trkpt lat="43.43942" lon="5.62921">
        <ele>325.8</ele>
        <time>2013-04-10T08:52:30Z</time>
      </trkpt>
      <trkpt lat="43.4394" lon="5.629">
        <ele>335.1</ele>
        <time>2013-04-10T08:52:44Z</time>
      </trkpt>
      <trkpt lat="43.43938" lon="5.62888">
        <ele>337</ele>
        <time>2013-04-10T08:52:55Z</time>
      </trkpt>
      <trkpt lat="43.43938" lon="5.62877">
        <ele>338.7</ele>
        <time>2013-04-10T08:53:04Z</time>
      </trkpt>
      <trkpt lat="43.43937" lon="5.62865">
        <ele>334.8</ele>
        <time>2013-04-10T08:53:17Z</time>
      </trkpt>
      <trkpt lat="43.43929" lon="5.62859">
        <ele>340.3</ele>
        <time>2013-04-10T08:53:30Z</time>
      </trkpt>
      <trkpt lat="43.43928" lon="5.62859">
        <ele>340.7</ele>
        <time>2013-04-10T08:53:31Z</time>
      </trkpt>
      <trkpt lat="43.43919" lon="5.62842">
        <ele>340.5</ele>
        <time>2013-04-10T08:53:48Z</time>
      </trkpt>
      <trkpt lat="43.43922" lon="5.62831">
        <ele>332.8</ele>
        <time>2013-04-10T08:53:58Z</time>
      </trkpt>
      <trkpt lat="43.43927" lon="5.62821">
        <ele>330.7</ele>
        <time>2013-04-10T08:54:09Z</time>
      </trkpt>
      <trkpt lat="43.43934" lon="5.62815">
        <ele>326.5</ele>
        <time>2013-04-10T08:54:19Z</time>
      </trkpt>
      <trkpt lat="43.43938" lon="5.62805">
        <ele>330.7</ele>
        <time>2013-04-10T08:54:29Z</time>
      </trkpt>
      <trkpt lat="43.43945" lon="5.62798">
        <ele>331.7</ele>
        <time>2013-04-10T08:54:38Z</time>
      </trkpt>
      <trkpt lat="43.43946" lon="5.62797">
        <ele>331.7</ele>
        <time>2013-04-10T08:54:39Z</time>
      </trkpt>
      <trkpt lat="43.43953" lon="5.62777">
        <ele>331.5</ele>
        <time>2013-04-10T08:54:56Z</time>
      </trkpt>
      <trkpt lat="43.4396" lon="5.6277">
        <ele>335.3</ele>
        <time>2013-04-10T08:55:06Z</time>
      </trkpt>
      <trkpt lat="43.43968" lon="5.62765">
        <ele>336.6</ele>
        <time>2013-04-10T08:55:16Z</time>
      </trkpt>
      <trkpt lat="43.43976" lon="5.62759">
        <ele>334.1</ele>
        <time>2013-04-10T08:55:26Z</time>
      </trkpt>
      <trkpt lat="43.43983" lon="5.62753">
        <ele>336.3</ele>
        <time>2013-04-10T08:55:34Z</time>
      </trkpt>
      <trkpt lat="43.43991" lon="5.62748">
        <ele>337.8</ele>
        <time>2013-04-10T08:55:44Z</time>
      </trkpt>
      <trkpt lat="43.43992" lon="5.62747">
        <ele>338.3</ele>
        <time>2013-04-10T08:55:45Z</time>
      </trkpt>
      <trkpt lat="43.44006" lon="5.62747">
        <ele>341.3</ele>
        <time>2013-04-10T08:55:59Z</time>
      </trkpt>
      <trkpt lat="43.44015" lon="5.62746">
        <ele>340.6</ele>
        <time>2013-04-10T08:56:05Z</time>
      </trkpt>
      <trkpt lat="43.44023" lon="5.62744">
        <ele>339.2</ele>
        <time>2013-04-10T08:56:14Z</time>
      </trkpt>
      <trkpt lat="43.44031" lon="5.62743">
        <ele>338.7</ele>
        <time>2013-04-10T08:56:21Z</time>
      </trkpt>
      <trkpt lat="43.4404" lon="5.62741">
        <ele>336.7</ele>
        <time>2013-04-10T08:56:29Z</time>
      </trkpt>
      <trkpt lat="43.44048" lon="5.62741">
        <ele>334.7</ele>
        <time>2013-04-10T08:56:37Z</time>
      </trkpt>
      <trkpt lat="43.44056" lon="5.62743">
        <ele>336.3</ele>
        <time>2013-04-10T08:56:45Z</time>
      </trkpt>
      <trkpt lat="43.44057" lon="5.62744">
        <ele>336.3</ele>
        <time>2013-04-10T08:56:46Z</time>
      </trkpt>
      <trkpt lat="43.44072" lon="5.62754">
        <ele>336.7</ele>
        <time>2013-04-10T08:57:01Z</time>
      </trkpt>
      <trkpt lat="43.44077" lon="5.62761">
        <ele>335.6</ele>
        <time>2013-04-10T08:57:08Z</time>
      </trkpt>
      <trkpt lat="43.44084" lon="5.62769">
        <ele>335.2</ele>
        <time>2013-04-10T08:57:15Z</time>
      </trkpt>
      <trkpt lat="43.44092" lon="5.62773">
        <ele>334.7</ele>
        <time>2013-04-10T08:57:24Z</time>
      </trkpt>
      <trkpt lat="43.441" lon="5.62776">
        <ele>334.7</ele>
        <time>2013-04-10T08:57:34Z</time>
      </trkpt>
      <trkpt lat="43.44108" lon="5.62778">
        <ele>331.7</ele>
        <time>2013-04-10T08:57:40Z</time>
      </trkpt>
      <trkpt lat="43.44116" lon="5.62784">
        <ele>330.1</ele>
        <time>2013-04-10T08:57:47Z</time>
      </trkpt>
      <trkpt lat="43.44117" lon="5.62785">
        <ele>330.1</ele>
        <time>2013-04-10T08:57:48Z</time>
      </trkpt>
      <trkpt lat="43.4413" lon="5.62797">
        <ele>333.6</ele>
        <time>2013-04-10T08:58:01Z</time>
      </trkpt>
      <trkpt lat="43.44135" lon="5.62806">
        <ele>336.1</ele>
        <time>2013-04-10T08:58:09Z</time>
      </trkpt>
      <trkpt lat="43.44139" lon="5.62817">
        <ele>340.1</ele>
        <time>2013-04-10T08:58:16Z</time>
      </trkpt>
      <trkpt lat="43.44144" lon="5.62826">
        <ele>339.3</ele>
        <time>2013-04-10T08:58:23Z</time>
      </trkpt>
      <trkpt lat="43.4415" lon="5.62834">
        <ele>337.2</ele>
        <time>2013-04-10T08:58:29Z</time>
      </trkpt>
      <trkpt lat="43.44157" lon="5.62842">
        <ele>336.2</ele>
        <time>2013-04-10T08:58:36Z</time>
      </trkpt>
      <trkpt lat="43.44163" lon="5.62849">
        <ele>331.8</ele>
        <time>2013-04-10T08:58:43Z</time>
      </trkpt>
      <trkpt lat="43.44171" lon="5.62853">
        <ele>328</ele>
        <time>2013-04-10T08:58:50Z</time>
      </trkpt>
      <trkpt lat="43.44172" lon="5.62853">
        <ele>327.2</ele>
        <time>2013-04-10T08:58:51Z</time>
      </trkpt>
      <trkpt lat="43.44182" lon="5.62838">
        <ele>321.7</ele>
        <time>2013-04-10T08:59:13Z</time>
      </trkpt>
      <trkpt lat="43.44186" lon="5.62828">
        <ele>319.5</ele>
        <time>2013-04-10T08:59:20Z</time>
      </trkpt>
      <trkpt lat="43.4419" lon="5.62817">
        <ele>316.7</ele>
        <time>2013-04-10T08:59:28Z</time>
      </trkpt>
      <trkpt lat="43.44195" lon="5.62807">
        <ele>314.8</ele>
        <time>2013-04-10T08:59:35Z</time>
      </trkpt>
      <trkpt lat="43.44199" lon="5.62796">
        <ele>315.2</ele>
        <time>2013-04-10T08:59:42Z</time>
      </trkpt>
      <trkpt lat="43.44202" lon="5.62785">
        <ele>320.8</ele>
        <time>2013-04-10T08:59:54Z</time>
      </trkpt>
      <trkpt lat="43.44202" lon="5.62784">
        <ele>321.7</ele>
        <time>2013-04-10T08:59:55Z</time>
      </trkpt>
      <trkpt lat="43.44208" lon="5.62763">
        <ele>321.5</ele>
        <time>2013-04-10T09:00:09Z</time>
      </trkpt>
      <trkpt lat="43.44211" lon="5.62752">
        <ele>321.5</ele>
        <time>2013-04-10T09:00:16Z</time>
      </trkpt>
      <trkpt lat="43.44213" lon="5.62741">
        <ele>320.7</ele>
        <time>2013-04-10T09:00:29Z</time>
      </trkpt>
      <trkpt lat="43.44215" lon="5.6273">
        <ele>316.6</ele>
        <time>2013-04-10T09:00:48Z</time>
      </trkpt>
      <trkpt lat="43.44218" lon="5.62719">
        <ele>318.6</ele>
        <time>2013-04-10T09:00:58Z</time>
      </trkpt>
      <trkpt lat="43.44218" lon="5.62718">
        <ele>319</ele>
        <time>2013-04-10T09:00:59Z</time>
      </trkpt>
      <trkpt lat="43.44225" lon="5.62713">
        <ele>319.5</ele>
        <time>2013-04-10T09:02:12Z</time>
      </trkpt>
      <trkpt lat="43.44226" lon="5.62711">
        <ele>318.6</ele>
        <time>2013-04-10T09:02:13Z</time>
      </trkpt>
      <trkpt lat="43.44232" lon="5.62692">
        <ele>314.8</ele>
        <time>2013-04-10T09:02:28Z</time>
      </trkpt>
      <trkpt lat="43.44236" lon="5.62681">
        <ele>313.7</ele>
        <time>2013-04-10T09:02:37Z</time>
      </trkpt>
      <trkpt lat="43.44239" lon="5.6267">
        <ele>315.1</ele>
        <time>2013-04-10T09:02:45Z</time>
      </trkpt>
      <trkpt lat="43.44242" lon="5.62658">
        <ele>314.1</ele>
        <time>2013-04-10T09:02:53Z</time>
      </trkpt>
      <trkpt lat="43.44244" lon="5.62647">
        <ele>316.1</ele>
        <time>2013-04-10T09:03:00Z</time>
      </trkpt>
      <trkpt lat="43.44248" lon="5.62636">
        <ele>317.5</ele>
        <time>2013-04-10T09:03:08Z</time>
      </trkpt>
      <trkpt lat="43.44252" lon="5.62626">
        <ele>320.1</ele>
        <time>2013-04-10T09:03:15Z</time>
      </trkpt>
      <trkpt lat="43.44253" lon="5.62625">
        <ele>320.2</ele>
        <time>2013-04-10T09:03:16Z</time>
      </trkpt>
      <trkpt lat="43.44265" lon="5.62612">
        <ele>323</ele>
        <time>2013-04-10T09:03:31Z</time>
      </trkpt>
      <trkpt lat="43.44273" lon="5.6261">
        <ele>324.5</ele>
        <time>2013-04-10T09:03:39Z</time>
      </trkpt>
      <trkpt lat="43.44281" lon="5.62609">
        <ele>325.3</ele>
        <time>2013-04-10T09:03:46Z</time>
      </trkpt>
      <trkpt lat="43.44289" lon="5.62608">
        <ele>324.2</ele>
        <time>2013-04-10T09:03:54Z</time>
      </trkpt>
      <trkpt lat="43.44297" lon="5.62609">
        <ele>323.6</ele>
        <time>2013-04-10T09:04:01Z</time>
      </trkpt>
      <trkpt lat="43.44306" lon="5.62607">
        <ele>322.1</ele>
        <time>2013-04-10T09:04:09Z</time>
      </trkpt>
      <trkpt lat="43.44314" lon="5.62606">
        <ele>322</ele>
        <time>2013-04-10T09:04:18Z</time>
      </trkpt>
      <trkpt lat="43.44315" lon="5.62606">
        <ele>321.7</ele>
        <time>2013-04-10T09:04:19Z</time>
      </trkpt>
      <trkpt lat="43.44331" lon="5.62603">
        <ele>321</ele>
        <time>2013-04-10T09:04:34Z</time>
      </trkpt>
      <trkpt lat="43.44339" lon="5.62604">
        <ele>321.7</ele>
        <time>2013-04-10T09:04:40Z</time>
      </trkpt>
      <trkpt lat="43.44346" lon="5.62607">
        <ele>322.6</ele>
        <time>2013-04-10T09:04:46Z</time>
      </trkpt>
      <trkpt lat="43.44354" lon="5.62611">
        <ele>322.3</ele>
        <time>2013-04-10T09:04:52Z</time>
      </trkpt>
      <trkpt lat="43.44361" lon="5.62616">
        <ele>322.2</ele>
        <time>2013-04-10T09:04:59Z</time>
      </trkpt>
      <trkpt lat="43.44368" lon="5.62621">
        <ele>322.2</ele>
        <time>2013-04-10T09:05:05Z</time>
      </trkpt>
      <trkpt lat="43.44376" lon="5.62624">
        <ele>321.2</ele>
        <time>2013-04-10T09:05:11Z</time>
      </trkpt>
      <trkpt lat="43.44384" lon="5.62622">
        <ele>318.3</ele>
        <time>2013-04-10T09:05:20Z</time>
      </trkpt>
      <trkpt lat="43.44385" lon="5.62621">
        <ele>318</ele>
        <time>2013-04-10T09:05:21Z</time>
      </trkpt>
      <trkpt lat="43.444" lon="5.62614">
        <ele>315.2</ele>
        <time>2013-04-10T09:05:34Z</time>
      </trkpt>
      <trkpt lat="43.44408" lon="5.6261">
        <ele>314.7</ele>
        <time>2013-04-10T09:05:42Z</time>
      </trkpt>
      <trkpt lat="43.44416" lon="5.62606">
        <ele>314.3</ele>
        <time>2013-04-10T09:05:49Z</time>
      </trkpt>
      <trkpt lat="43.44424" lon="5.62603">
        <ele>313.7</ele>
        <time>2013-04-10T09:05:55Z</time>
      </trkpt>
      <trkpt lat="43.44432" lon="5.626">
        <ele>313.2</ele>
        <time>2013-04-10T09:06:02Z</time>
      </trkpt>
      <trkpt lat="43.4444" lon="5.62595">
        <ele>312.5</ele>
        <time>2013-04-10T09:06:10Z</time>
      </trkpt>
      <trkpt lat="43.44447" lon="5.62591">
        <ele>312.7</ele>
        <time>2013-04-10T09:06:16Z</time>
      </trkpt>
      <trkpt lat="43.44455" lon="5.62585">
        <ele>313</ele>
        <time>2013-04-10T09:06:23Z</time>
      </trkpt>
      <trkpt lat="43.44456" lon="5.62584">
        <ele>312.7</ele>
        <time>2013-04-10T09:06:24Z</time>
      </trkpt>
      <trkpt lat="43.44469" lon="5.62573">
        <ele>311.3</ele>
        <time>2013-04-10T09:06:37Z</time>
      </trkpt>
      <trkpt lat="43.44476" lon="5.62567">
        <ele>311.1</ele>
        <time>2013-04-10T09:06:44Z</time>
      </trkpt>
      <trkpt lat="43.44483" lon="5.62562">
        <ele>309.2</ele>
        <time>2013-04-10T09:06:50Z</time>
      </trkpt>
      <trkpt lat="43.4449" lon="5.62555">
        <ele>308.7</ele>
        <time>2013-04-10T09:06:58Z</time>
      </trkpt>
      <trkpt lat="43.44498" lon="5.6255">
        <ele>308.7</ele>
        <time>2013-04-10T09:07:06Z</time>
      </trkpt>
      <trkpt lat="43.44505" lon="5.62544">
        <ele>309</ele>
        <time>2013-04-10T09:07:13Z</time>
      </trkpt>
      <trkpt lat="43.44511" lon="5.62536">
        <ele>310.2</ele>
        <time>2013-04-10T09:07:21Z</time>
      </trkpt>
      <trkpt lat="43.44519" lon="5.62531">
        <ele>310.1</ele>
        <time>2013-04-10T09:07:30Z</time>
      </trkpt>
      <trkpt lat="43.44519" lon="5.6253">
        <ele>309.8</ele>
        <time>2013-04-10T09:07:31Z</time>
      </trkpt>
      <trkpt lat="43.44533" lon="5.62516">
        <ele>307.8</ele>
        <time>2013-04-10T09:08:30Z</time>
      </trkpt>
      <trkpt lat="43.4454" lon="5.62511">
        <ele>309.5</ele>
        <time>2013-04-10T09:08:38Z</time>
      </trkpt>
      <trkpt lat="43.44541" lon="5.6251">
        <ele>309.2</ele>
        <time>2013-04-10T09:08:39Z</time>
      </trkpt>
      <trkpt lat="43.44554" lon="5.62498">
        <ele>307.5</ele>
        <time>2013-04-10T09:08:52Z</time>
      </trkpt>
      <trkpt lat="43.44561" lon="5.62492">
        <ele>307.2</ele>
        <time>2013-04-10T09:09:02Z</time>
      </trkpt>
      <trkpt lat="43.44568" lon="5.62484">
        <ele>303.2</ele>
        <time>2013-04-10T09:09:08Z</time>
      </trkpt>
      <trkpt lat="43.44576" lon="5.6248">
        <ele>302.5</ele>
        <time>2013-04-10T09:09:13Z</time>
      </trkpt>
      <trkpt lat="43.44583" lon="5.62475">
        <ele>299.8</ele>
        <time>2013-04-10T09:09:21Z</time>
      </trkpt>
      <trkpt lat="43.44592" lon="5.62472">
        <ele>299.5</ele>
        <time>2013-04-10T09:09:28Z</time>
      </trkpt>
      <trkpt lat="43.446" lon="5.62472">
        <ele>301</ele>
        <time>2013-04-10T09:09:36Z</time>
      </trkpt>
      <trkpt lat="43.44609" lon="5.62474">
        <ele>302.3</ele>
        <time>2013-04-10T09:09:45Z</time>
      </trkpt>
      <trkpt lat="43.44609" lon="5.62474">
        <ele>302.6</ele>
        <time>2013-04-10T09:09:46Z</time>
      </trkpt>
      <trkpt lat="43.44625" lon="5.6247">
        <ele>301.3</ele>
        <time>2013-04-10T09:10:24Z</time>
      </trkpt>
      <trkpt lat="43.44634" lon="5.62474">
        <ele>300.6</ele>
        <time>2013-04-10T09:10:33Z</time>
      </trkpt>
      <trkpt lat="43.44642" lon="5.62476">
        <ele>300.3</ele>
        <time>2013-04-10T09:10:41Z</time>
      </trkpt>
      <trkpt lat="43.4465" lon="5.6248">
        <ele>300.6</ele>
        <time>2013-04-10T09:10:49Z</time>
      </trkpt>
      <trkpt lat="43.44651" lon="5.6248">
        <ele>300.7</ele>
        <time>2013-04-10T09:10:50Z</time>
      </trkpt>
      <trkpt lat="43.44667" lon="5.62483">
        <ele>301.2</ele>
        <time>2013-04-10T09:11:06Z</time>
      </trkpt>
      <trkpt lat="43.44675" lon="5.6248">
        <ele>300.8</ele>
        <time>2013-04-10T09:11:15Z</time>
      </trkpt>
      <trkpt lat="43.44679" lon="5.62469">
        <ele>301.6</ele>
        <time>2013-04-10T09:11:23Z</time>
      </trkpt>
      <trkpt lat="43.44686" lon="5.62462">
        <ele>300.6</ele>
        <time>2013-04-10T09:11:34Z</time>
      </trkpt>
      <trkpt lat="43.44695" lon="5.62459">
        <ele>299.2</ele>
        <time>2013-04-10T09:11:42Z</time>
      </trkpt>
      <trkpt lat="43.44702" lon="5.62452">
        <ele>297.1</ele>
        <time>2013-04-10T09:11:49Z</time>
      </trkpt>
      <trkpt lat="43.44707" lon="5.62443">
        <ele>295.2</ele>
        <time>2013-04-10T09:12:00Z</time>
      </trkpt>
      <trkpt lat="43.44708" lon="5.62442">
        <ele>295</ele>
        <time>2013-04-10T09:12:01Z</time>
      </trkpt>
      <trkpt lat="43.44717" lon="5.62425">
        <ele>296.7</ele>
        <time>2013-04-10T09:12:21Z</time>
      </trkpt>
      <trkpt lat="43.44717" lon="5.62413">
        <ele>297.2</ele>
        <time>2013-04-10T09:12:32Z</time>
      </trkpt>
      <trkpt lat="43.44719" lon="5.62402">
        <ele>296.6</ele>
        <time>2013-04-10T09:12:43Z</time>
      </trkpt>
      <trkpt lat="43.44719" lon="5.6239">
        <ele>296.2</ele>
        <time>2013-04-10T09:12:57Z</time>
      </trkpt>
      <trkpt lat="43.44725" lon="5.62381">
        <ele>291.5</ele>
        <time>2013-04-10T09:13:17Z</time>
      </trkpt>
      <trkpt lat="43.44725" lon="5.6238">
        <ele>291.2</ele>
        <time>2013-04-10T09:13:18Z</time>
      </trkpt>
      <trkpt lat="43.44728" lon="5.62358">
        <ele>288.8</ele>
        <time>2013-04-10T09:13:38Z</time>
      </trkpt>
      <trkpt lat="43.44729" lon="5.62347">
        <ele>287.8</ele>
        <time>2013-04-10T09:13:50Z</time>
      </trkpt>
      <trkpt lat="43.4473" lon="5.62335">
        <ele>286</ele>
        <time>2013-04-10T09:13:59Z</time>
      </trkpt>
      <trkpt lat="43.44731" lon="5.62324">
        <ele>283.2</ele>
        <time>2013-04-10T09:14:11Z</time>
      </trkpt>
      <trkpt lat="43.44735" lon="5.62314">
        <ele>279.7</ele>
        <time>2013-04-10T09:14:23Z</time>
      </trkpt>
      <trkpt lat="43.44736" lon="5.62313">
        <ele>279.7</ele>
        <time>2013-04-10T09:14:24Z</time>
      </trkpt>
      <trkpt lat="43.44743" lon="5.62293">
        <ele>277.7</ele>
        <time>2013-04-10T09:14:38Z</time>
      </trkpt>
      <trkpt lat="43.44747" lon="5.62284">
        <ele>279.1</ele>
        <time>2013-04-10T09:14:44Z</time>
      </trkpt>
      <trkpt lat="43.44748" lon="5.62272">
        <ele>278.8</ele>
        <time>2013-04-10T09:14:52Z</time>
      </trkpt>
      <trkpt lat="43.44751" lon="5.62261">
        <ele>278.2</ele>
        <time>2013-04-10T09:15:00Z</time>
      </trkpt>
      <trkpt lat="43.44754" lon="5.6225">
        <ele>279.8</ele>
        <time>2013-04-10T09:15:08Z</time>
      </trkpt>
      <trkpt lat="43.44751" lon="5.62238">
        <ele>282.7</ele>
        <time>2013-04-10T09:15:17Z</time>
      </trkpt>
      <trkpt lat="43.44757" lon="5.62247">
        <ele>285.7</ele>
        <time>2013-04-10T09:16:40Z</time>
      </trkpt>
      <trkpt lat="43.44758" lon="5.62247">
        <ele>285.5</ele>
        <time>2013-04-10T09:16:41Z</time>
      </trkpt>
      <trkpt lat="43.44771" lon="5.62237">
        <ele>281.6</ele>
        <time>2013-04-10T09:17:49Z</time>
      </trkpt>
      <trkpt lat="43.44772" lon="5.62236">
        <ele>281.2</ele>
        <time>2013-04-10T09:17:50Z</time>
      </trkpt>
      <trkpt lat="43.44778" lon="5.62217">
        <ele>280</ele>
        <time>2013-04-10T09:18:04Z</time>
      </trkpt>
      <trkpt lat="43.44782" lon="5.62207">
        <ele>280.1</ele>
        <time>2013-04-10T09:18:11Z</time>
      </trkpt>
      <trkpt lat="43.44786" lon="5.62197">
        <ele>280.3</ele>
        <time>2013-04-10T09:18:18Z</time>
      </trkpt>
      <trkpt lat="43.4479" lon="5.62185">
        <ele>280.8</ele>
        <time>2013-04-10T09:18:26Z</time>
      </trkpt>
      <trkpt lat="43.44794" lon="5.62175">
        <ele>282.6</ele>
        <time>2013-04-10T09:18:34Z</time>
      </trkpt>
      <trkpt lat="43.44795" lon="5.62163">
        <ele>282.5</ele>
        <time>2013-04-10T09:18:42Z</time>
      </trkpt>
      <trkpt lat="43.44797" lon="5.62152">
        <ele>282.2</ele>
        <time>2013-04-10T09:18:50Z</time>
      </trkpt>
      <trkpt lat="43.44797" lon="5.6215">
        <ele>282</ele>
        <time>2013-04-10T09:18:51Z</time>
      </trkpt>
      <trkpt lat="43.44805" lon="5.62129">
        <ele>282.7</ele>
        <time>2013-04-10T09:19:06Z</time>
      </trkpt>
      <trkpt lat="43.44809" lon="5.6212">
        <ele>281.7</ele>
        <time>2013-04-10T09:19:13Z</time>
      </trkpt>
      <trkpt lat="43.44814" lon="5.6211">
        <ele>281.8</ele>
        <time>2013-04-10T09:19:20Z</time>
      </trkpt>
      <trkpt lat="43.44819" lon="5.62101">
        <ele>281.3</ele>
        <time>2013-04-10T09:19:28Z</time>
      </trkpt>
      <trkpt lat="43.44823" lon="5.62092">
        <ele>280.8</ele>
        <time>2013-04-10T09:19:35Z</time>
      </trkpt>
      <trkpt lat="43.44827" lon="5.62082">
        <ele>280.6</ele>
        <time>2013-04-10T09:19:42Z</time>
      </trkpt>
      <trkpt lat="43.44833" lon="5.62074">
        <ele>280.7</ele>
        <time>2013-04-10T09:19:49Z</time>
      </trkpt>
      <trkpt lat="43.44839" lon="5.62066">
        <ele>281</ele>
        <time>2013-04-10T09:19:56Z</time>
      </trkpt>
      <trkpt lat="43.4484" lon="5.62066">
        <ele>281</ele>
        <time>2013-04-10T09:19:57Z</time>
      </trkpt>
      <trkpt lat="43.44855" lon="5.62058">
        <ele>281.3</ele>
        <time>2013-04-10T09:20:11Z</time>
      </trkpt>
      <trkpt lat="43.44863" lon="5.62055">
        <ele>281.1</ele>
        <time>2013-04-10T09:20:18Z</time>
      </trkpt>
      <trkpt lat="43.44871" lon="5.6205">
        <ele>281.2</ele>
        <time>2013-04-10T09:20:25Z</time>
      </trkpt>
      <trkpt lat="43.44879" lon="5.62045">
        <ele>281.2</ele>
        <time>2013-04-10T09:20:33Z</time>
      </trkpt>
      <trkpt lat="43.44886" lon="5.62038">
        <ele>281.2</ele>
        <time>2013-04-10T09:20:40Z</time>
      </trkpt>
      <trkpt lat="43.44894" lon="5.62032">
        <ele>281.2</ele>
        <time>2013-04-10T09:20:47Z</time>
      </trkpt>
      <trkpt lat="43.449" lon="5.62026">
        <ele>281</ele>
        <time>2013-04-10T09:20:54Z</time>
      </trkpt>
      <trkpt lat="43.44907" lon="5.62019">
        <ele>282.2</ele>
        <time>2013-04-10T09:21:02Z</time>
      </trkpt>
      <trkpt lat="43.44907" lon="5.62018">
        <ele>282.1</ele>
        <time>2013-04-10T09:21:03Z</time>
      </trkpt>
      <trkpt lat="43.44921" lon="5.62008">
        <ele>284.2</ele>
        <time>2013-04-10T09:21:17Z</time>
      </trkpt>
      <trkpt lat="43.44928" lon="5.62002">
        <ele>282.1</ele>
        <time>2013-04-10T09:21:26Z</time>
      </trkpt>
      <trkpt lat="43.44937" lon="5.61999">
        <ele>279.8</ele>
        <time>2013-04-10T09:21:35Z</time>
      </trkpt>
      <trkpt lat="43.44944" lon="5.62001">
        <ele>279.3</ele>
        <time>2013-04-10T09:21:42Z</time>
      </trkpt>
      <trkpt lat="43.44953" lon="5.61998">
        <ele>279.3</ele>
        <time>2013-04-10T09:21:50Z</time>
      </trkpt>
      <trkpt lat="43.44961" lon="5.61997">
        <ele>279.2</ele>
        <time>2013-04-10T09:21:58Z</time>
      </trkpt>
      <trkpt lat="43.44969" lon="5.61993">
        <ele>277.7</ele>
        <time>2013-04-10T09:22:07Z</time>
      </trkpt>
      <trkpt lat="43.4497" lon="5.61993">
        <ele>277.2</ele>
        <time>2013-04-10T09:22:08Z</time>
      </trkpt>
      <trkpt lat="43.44985" lon="5.61984">
        <ele>275.7</ele>
        <time>2013-04-10T09:22:24Z</time>
      </trkpt>
      <trkpt lat="43.44992" lon="5.61977">
        <ele>278</ele>
        <time>2013-04-10T09:22:29Z</time>
      </trkpt>
      <trkpt lat="43.44993" lon="5.61965">
        <ele>276.7</ele>
        <time>2013-04-10T09:22:37Z</time>
      </trkpt>
      <trkpt lat="43.44992" lon="5.61953">
        <ele>274.6</ele>
        <time>2013-04-10T09:22:44Z</time>
      </trkpt>
      <trkpt lat="43.44993" lon="5.61942">
        <ele>275.5</ele>
        <time>2013-04-10T09:22:51Z</time>
      </trkpt>
      <trkpt lat="43.44994" lon="5.61931">
        <ele>275.1</ele>
        <time>2013-04-10T09:22:59Z</time>
      </trkpt>
      <trkpt lat="43.44996" lon="5.6192">
        <ele>270</ele>
        <time>2013-04-10T09:23:07Z</time>
      </trkpt>
      <trkpt lat="43.44996" lon="5.61909">
        <ele>270.1</ele>
        <time>2013-04-10T09:23:13Z</time>
      </trkpt>
      <trkpt lat="43.44995" lon="5.61907">
        <ele>270.5</ele>
        <time>2013-04-10T09:23:14Z</time>
      </trkpt>
      <trkpt lat="43.44998" lon="5.61886">
        <ele>269.2</ele>
        <time>2013-04-10T09:23:26Z</time>
      </trkpt>
      <trkpt lat="43.45001" lon="5.61875">
        <ele>270.2</ele>
        <time>2013-04-10T09:23:34Z</time>
      </trkpt>
      <trkpt lat="43.45001" lon="5.61863">
        <ele>268.8</ele>
        <time>2013-04-10T09:23:41Z</time>
      </trkpt>
      <trkpt lat="43.45004" lon="5.61853">
        <ele>270.2</ele>
        <time>2013-04-10T09:23:49Z</time>
      </trkpt>
      <trkpt lat="43.45009" lon="5.61842">
        <ele>271.8</ele>
        <time>2013-04-10T09:23:57Z</time>
      </trkpt>
      <trkpt lat="43.45013" lon="5.61832">
        <ele>274.3</ele>
        <time>2013-04-10T09:24:04Z</time>
      </trkpt>
      <trkpt lat="43.45013" lon="5.61821">
        <ele>276.7</ele>
        <time>2013-04-10T09:24:13Z</time>
      </trkpt>
      <trkpt lat="43.45009" lon="5.6181">
        <ele>277</ele>
        <time>2013-04-10T09:24:20Z</time>
      </trkpt>
      <trkpt lat="43.45009" lon="5.61809">
        <ele>276.7</ele>
        <time>2013-04-10T09:24:21Z</time>
      </trkpt>
      <trkpt lat="43.45006" lon="5.61788">
        <ele>278</ele>
        <time>2013-04-10T09:24:36Z</time>
      </trkpt>
      <trkpt lat="43.45005" lon="5.61776">
        <ele>279.5</ele>
        <time>2013-04-10T09:24:44Z</time>
      </trkpt>
      <trkpt lat="43.45003" lon="5.61764">
        <ele>283.1</ele>
        <time>2013-04-10T09:24:54Z</time>
      </trkpt>
      <trkpt lat="43.45003" lon="5.61752">
        <ele>284.5</ele>
        <time>2013-04-10T09:25:03Z</time>
      </trkpt>
      <trkpt lat="43.45005" lon="5.61741">
        <ele>283.3</ele>
        <time>2013-04-10T09:25:12Z</time>
      </trkpt>
      <trkpt lat="43.45007" lon="5.6173">
        <ele>281.2</ele>
        <time>2013-04-10T09:25:22Z</time>
      </trkpt>
      <trkpt lat="43.45008" lon="5.61729">
        <ele>280.7</ele>
        <time>2013-04-10T09:25:23Z</time>
      </trkpt>
      <trkpt lat="43.45013" lon="5.61707">
        <ele>279.2</ele>
        <time>2013-04-10T09:25:38Z</time>
      </trkpt>
      <trkpt lat="43.45016" lon="5.61697">
        <ele>280</ele>
        <time>2013-04-10T09:25:45Z</time>
      </trkpt>
      <trkpt lat="43.4502" lon="5.61687">
        <ele>277.7</ele>
        <time>2013-04-10T09:25:51Z</time>
      </trkpt>
      <trkpt lat="43.45023" lon="5.61676">
        <ele>269.2</ele>
        <time>2013-04-10T09:25:59Z</time>
      </trkpt>
      <trkpt lat="43.45025" lon="5.61664">
        <ele>262.1</ele>
        <time>2013-04-10T09:26:08Z</time>
      </trkpt>
      <trkpt lat="43.45025" lon="5.61652">
        <ele>260.7</ele>
        <time>2013-04-10T09:26:17Z</time>
      </trkpt>
      <trkpt lat="43.45025" lon="5.6164">
        <ele>263.7</ele>
        <time>2013-04-10T09:26:26Z</time>
      </trkpt>
      <trkpt lat="43.45024" lon="5.61639">
        <ele>263.2</ele>
        <time>2013-04-10T09:26:27Z</time>
      </trkpt>
      <trkpt lat="43.45024" lon="5.61618">
        <ele>261.2</ele>
        <time>2013-04-10T09:26:44Z</time>
      </trkpt>
      <trkpt lat="43.4502" lon="5.61607">
        <ele>260.6</ele>
        <time>2013-04-10T09:26:51Z</time>
      </trkpt>
      <trkpt lat="43.45017" lon="5.61597">
        <ele>266.6</ele>
        <time>2013-04-10T09:26:57Z</time>
      </trkpt>
      <trkpt lat="43.45012" lon="5.61587">
        <ele>273.2</ele>
        <time>2013-04-10T09:27:04Z</time>
      </trkpt>
      <trkpt lat="43.45008" lon="5.61577">
        <ele>275</ele>
        <time>2013-04-10T09:27:13Z</time>
      </trkpt>
      <trkpt lat="43.45007" lon="5.61565">
        <ele>272.2</ele>
        <time>2013-04-10T09:27:21Z</time>
      </trkpt>
      <trkpt lat="43.45007" lon="5.61554">
        <ele>272.3</ele>
        <time>2013-04-10T09:27:29Z</time>
      </trkpt>
      <trkpt lat="43.45006" lon="5.61552">
        <ele>272</ele>
        <time>2013-04-10T09:27:30Z</time>
      </trkpt>
      <trkpt lat="43.44999" lon="5.61533">
        <ele>276.2</ele>
        <time>2013-04-10T09:27:42Z</time>
      </trkpt>
      <trkpt lat="43.44999" lon="5.61521">
        <ele>279.2</ele>
        <time>2013-04-10T09:27:51Z</time>
      </trkpt>
      <trkpt lat="43.45" lon="5.61509">
        <ele>279.7</ele>
        <time>2013-04-10T09:28:00Z</time>
      </trkpt>
      <trkpt lat="43.45001" lon="5.61497">
        <ele>275.3</ele>
        <time>2013-04-10T09:28:08Z</time>
      </trkpt>
      <trkpt lat="43.45004" lon="5.61487">
        <ele>276.3</ele>
        <time>2013-04-10T09:28:17Z</time>
      </trkpt>
      <trkpt lat="43.45005" lon="5.61475">
        <ele>276</ele>
        <time>2013-04-10T09:28:29Z</time>
      </trkpt>
      <trkpt lat="43.45001" lon="5.61464">
        <ele>278.7</ele>
        <time>2013-04-10T09:28:37Z</time>
      </trkpt>
      <trkpt lat="43.45001" lon="5.61463">
        <ele>279.1</ele>
        <time>2013-04-10T09:28:38Z</time>
      </trkpt>
      <trkpt lat="43.44991" lon="5.61444">
        <ele>280</ele>
        <time>2013-04-10T09:28:49Z</time>
      </trkpt>
      <trkpt lat="43.44987" lon="5.61433">
        <ele>280.6</ele>
        <time>2013-04-10T09:28:55Z</time>
      </trkpt>
      <trkpt lat="43.44985" lon="5.61421">
        <ele>284.7</ele>
        <time>2013-04-10T09:29:04Z</time>
      </trkpt>
      <trkpt lat="43.44991" lon="5.61412">
        <ele>288.1</ele>
        <time>2013-04-10T09:29:19Z</time>
      </trkpt>
      <trkpt lat="43.44998" lon="5.61408">
        <ele>290.1</ele>
        <time>2013-04-10T09:29:31Z</time>
      </trkpt>
      <trkpt lat="43.45001" lon="5.61397">
        <ele>289.8</ele>
        <time>2013-04-10T09:29:49Z</time>
      </trkpt>
      <trkpt lat="43.45001" lon="5.61396">
        <ele>290</ele>
        <time>2013-04-10T09:29:50Z</time>
      </trkpt>
      <trkpt lat="43.44993" lon="5.61378">
        <ele>290.5</ele>
        <time>2013-04-10T09:30:07Z</time>
      </trkpt>
      <trkpt lat="43.44987" lon="5.61369">
        <ele>292.8</ele>
        <time>2013-04-10T09:30:13Z</time>
      </trkpt>
      <trkpt lat="43.44983" lon="5.61359">
        <ele>293.1</ele>
        <time>2013-04-10T09:30:21Z</time>
      </trkpt>
      <trkpt lat="43.4498" lon="5.61349">
        <ele>294.1</ele>
        <time>2013-04-10T09:30:28Z</time>
      </trkpt>
      <trkpt lat="43.44975" lon="5.61339">
        <ele>295.7</ele>
        <time>2013-04-10T09:30:35Z</time>
      </trkpt>
      <trkpt lat="43.44972" lon="5.61328">
        <ele>295.2</ele>
        <time>2013-04-10T09:30:44Z</time>
      </trkpt>
      <trkpt lat="43.44969" lon="5.61318">
        <ele>295.5</ele>
        <time>2013-04-10T09:30:52Z</time>
      </trkpt>
      <trkpt lat="43.44969" lon="5.61316">
        <ele>295.7</ele>
        <time>2013-04-10T09:30:53Z</time>
      </trkpt>
      <trkpt lat="43.44962" lon="5.61296">
        <ele>297.7</ele>
        <time>2013-04-10T09:31:04Z</time>
      </trkpt>
      <trkpt lat="43.44959" lon="5.61286">
        <ele>296.2</ele>
        <time>2013-04-10T09:31:11Z</time>
      </trkpt>
      <trkpt lat="43.44958" lon="5.61274">
        <ele>295.2</ele>
        <time>2013-04-10T09:31:20Z</time>
      </trkpt>
      <trkpt lat="43.44965" lon="5.61267">
        <ele>295.1</ele>
        <time>2013-04-10T09:31:29Z</time>
      </trkpt>
      <trkpt lat="43.44971" lon="5.61259">
        <ele>296.5</ele>
        <time>2013-04-10T09:31:36Z</time>
      </trkpt>
      <trkpt lat="43.44977" lon="5.61252">
        <ele>297.2</ele>
        <time>2013-04-10T09:31:42Z</time>
      </trkpt>
      <trkpt lat="43.44982" lon="5.61242">
        <ele>297.7</ele>
        <time>2013-04-10T09:31:49Z</time>
      </trkpt>
      <trkpt lat="43.44982" lon="5.61231">
        <ele>297.8</ele>
        <time>2013-04-10T09:31:56Z</time>
      </trkpt>
      <trkpt lat="43.44982" lon="5.61229">
        <ele>298.2</ele>
        <time>2013-04-10T09:31:57Z</time>
      </trkpt>
      <trkpt lat="43.44983" lon="5.61209">
        <ele>296.8</ele>
        <time>2013-04-10T09:32:09Z</time>
      </trkpt>
      <trkpt lat="43.44982" lon="5.61198">
        <ele>296.2</ele>
        <time>2013-04-10T09:32:16Z</time>
      </trkpt>
      <trkpt lat="43.44982" lon="5.61186">
        <ele>294.5</ele>
        <time>2013-04-10T09:32:24Z</time>
      </trkpt>
      <trkpt lat="43.4498" lon="5.61174">
        <ele>294.6</ele>
        <time>2013-04-10T09:32:31Z</time>
      </trkpt>
      <trkpt lat="43.44982" lon="5.61163">
        <ele>293</ele>
        <time>2013-04-10T09:32:39Z</time>
      </trkpt>
      <trkpt lat="43.44981" lon="5.61151">
        <ele>291.8</ele>
        <time>2013-04-10T09:32:47Z</time>
      </trkpt>
      <trkpt lat="43.4498" lon="5.61139">
        <ele>289.2</ele>
        <time>2013-04-10T09:32:55Z</time>
      </trkpt>
      <trkpt lat="43.44978" lon="5.61128">
        <ele>288.5</ele>
        <time>2013-04-10T09:33:02Z</time>
      </trkpt>
      <trkpt lat="43.44978" lon="5.61127">
        <ele>288.6</ele>
        <time>2013-04-10T09:33:03Z</time>
      </trkpt>
      <trkpt lat="43.44974" lon="5.61107">
        <ele>291.5</ele>
        <time>2013-04-10T09:33:14Z</time>
      </trkpt>
      <trkpt lat="43.4497" lon="5.61097">
        <ele>294.2</ele>
        <time>2013-04-10T09:33:22Z</time>
      </trkpt>
      <trkpt lat="43.44964" lon="5.61089">
        <ele>294.7</ele>
        <time>2013-04-10T09:33:29Z</time>
      </trkpt>
      <trkpt lat="43.44957" lon="5.61082">
        <ele>294.7</ele>
        <time>2013-04-10T09:33:36Z</time>
      </trkpt>
      <trkpt lat="43.4495" lon="5.61075">
        <ele>294.7</ele>
        <time>2013-04-10T09:33:44Z</time>
      </trkpt>
      <trkpt lat="43.44946" lon="5.61065">
        <ele>294.2</ele>
        <time>2013-04-10T09:33:51Z</time>
      </trkpt>
      <trkpt lat="43.44943" lon="5.61053">
        <ele>293</ele>
        <time>2013-04-10T09:33:59Z</time>
      </trkpt>
      <trkpt lat="43.44942" lon="5.61042">
        <ele>291.6</ele>
        <time>2013-04-10T09:34:07Z</time>
      </trkpt>
      <trkpt lat="43.44942" lon="5.61041">
        <ele>291.6</ele>
        <time>2013-04-10T09:34:08Z</time>
      </trkpt>
      <trkpt lat="43.44939" lon="5.6102">
        <ele>288.7</ele>
        <time>2013-04-10T09:34:22Z</time>
      </trkpt>
      <trkpt lat="43.4494" lon="5.61009">
        <ele>286.6</ele>
        <time>2013-04-10T09:34:30Z</time>
      </trkpt>
      <trkpt lat="43.44941" lon="5.60998">
        <ele>285.1</ele>
        <time>2013-04-10T09:34:38Z</time>
      </trkpt>
      <trkpt lat="43.44941" lon="5.60987">
        <ele>284.2</ele>
        <time>2013-04-10T09:34:44Z</time>
      </trkpt>
      <trkpt lat="43.44942" lon="5.60975">
        <ele>283.8</ele>
        <time>2013-04-10T09:34:51Z</time>
      </trkpt>
      <trkpt lat="43.44944" lon="5.60963">
        <ele>286.3</ele>
        <time>2013-04-10T09:34:58Z</time>
      </trkpt>
      <trkpt lat="43.44946" lon="5.60952">
        <ele>286.6</ele>
        <time>2013-04-10T09:35:06Z</time>
      </trkpt>
      <trkpt lat="43.44948" lon="5.60942">
        <ele>285.1</ele>
        <time>2013-04-10T09:35:13Z</time>
      </trkpt>
      <trkpt lat="43.44948" lon="5.6094">
        <ele>284.7</ele>
        <time>2013-04-10T09:35:14Z</time>
      </trkpt>
      <trkpt lat="43.44952" lon="5.60919">
        <ele>282</ele>
        <time>2013-04-10T09:35:29Z</time>
      </trkpt>
      <trkpt lat="43.44953" lon="5.60907">
        <ele>279.8</ele>
        <time>2013-04-10T09:35:37Z</time>
      </trkpt>
      <trkpt lat="43.44952" lon="5.60895">
        <ele>276.5</ele>
        <time>2013-04-10T09:35:46Z</time>
      </trkpt>
      <trkpt lat="43.44947" lon="5.60886">
        <ele>276.8</ele>
        <time>2013-04-10T09:35:54Z</time>
      </trkpt>
      <trkpt lat="43.44944" lon="5.60874">
        <ele>277.2</ele>
        <time>2013-04-10T09:36:02Z</time>
      </trkpt>
      <trkpt lat="43.44942" lon="5.60863">
        <ele>277.7</ele>
        <time>2013-04-10T09:36:09Z</time>
      </trkpt>
      <trkpt lat="43.4494" lon="5.60853">
        <ele>278.1</ele>
        <time>2013-04-10T09:36:16Z</time>
      </trkpt>
      <trkpt lat="43.4494" lon="5.60851">
        <ele>278.1</ele>
        <time>2013-04-10T09:36:17Z</time>
      </trkpt>
      <trkpt lat="43.44937" lon="5.60831">
        <ele>278.1</ele>
        <time>2013-04-10T09:36:29Z</time>
      </trkpt>
      <trkpt lat="43.44935" lon="5.60821">
        <ele>280.1</ele>
        <time>2013-04-10T09:36:33Z</time>
      </trkpt>
      <trkpt lat="43.44934" lon="5.6081">
        <ele>279.7</ele>
        <time>2013-04-10T09:36:39Z</time>
      </trkpt>
      <trkpt lat="43.44932" lon="5.608">
        <ele>279.3</ele>
        <time>2013-04-10T09:36:45Z</time>
      </trkpt>
      <trkpt lat="43.44932" lon="5.60788">
        <ele>278.3</ele>
        <time>2013-04-10T09:36:54Z</time>
      </trkpt>
      <trkpt lat="43.44933" lon="5.60776">
        <ele>278</ele>
        <time>2013-04-10T09:37:04Z</time>
      </trkpt>
      <trkpt lat="43.44933" lon="5.60764">
        <ele>278.8</ele>
        <time>2013-04-10T09:37:13Z</time>
      </trkpt>
      <trkpt lat="43.4493" lon="5.60753">
        <ele>279.2</ele>
        <time>2013-04-10T09:37:20Z</time>
      </trkpt>
      <trkpt lat="43.44929" lon="5.6075">
        <ele>279.2</ele>
        <time>2013-04-10T09:37:21Z</time>
      </trkpt>
      <trkpt lat="43.44927" lon="5.60729">
        <ele>278.1</ele>
        <time>2013-04-10T09:37:36Z</time>
      </trkpt>
      <trkpt lat="43.44926" lon="5.60717">
        <ele>273.8</ele>
        <time>2013-04-10T09:37:45Z</time>
      </trkpt>
      <trkpt lat="43.44924" lon="5.60704">
        <ele>272.8</ele>
        <time>2013-04-10T09:37:52Z</time>
      </trkpt>
      <trkpt lat="43.44922" lon="5.60693">
        <ele>273</ele>
        <time>2013-04-10T09:37:59Z</time>
      </trkpt>
      <trkpt lat="43.44921" lon="5.60681">
        <ele>272.2</ele>
        <time>2013-04-10T09:38:07Z</time>
      </trkpt>
      <trkpt lat="43.44922" lon="5.6067">
        <ele>270.5</ele>
        <time>2013-04-10T09:38:16Z</time>
      </trkpt>
      <trkpt lat="43.4492" lon="5.60658">
        <ele>271.1</ele>
        <time>2013-04-10T09:38:26Z</time>
      </trkpt>
      <trkpt lat="43.4492" lon="5.60657">
        <ele>271.2</ele>
        <time>2013-04-10T09:38:27Z</time>
      </trkpt>
      <trkpt lat="43.44912" lon="5.60639">
        <ele>272.2</ele>
        <time>2013-04-10T09:38:42Z</time>
      </trkpt>
      <trkpt lat="43.44907" lon="5.6063">
        <ele>277.2</ele>
        <time>2013-04-10T09:38:50Z</time>
      </trkpt>
      <trkpt lat="43.44905" lon="5.60618">
        <ele>278.2</ele>
        <time>2013-04-10T09:39:01Z</time>
      </trkpt>
      <trkpt lat="43.44902" lon="5.60606">
        <ele>275.8</ele>
        <time>2013-04-10T09:39:11Z</time>
      </trkpt>
      <trkpt lat="43.44902" lon="5.60595">
        <ele>273.8</ele>
        <time>2013-04-10T09:39:20Z</time>
      </trkpt>
      <trkpt lat="43.449" lon="5.60584">
        <ele>279</ele>
        <time>2013-04-10T09:39:40Z</time>
      </trkpt>
      <trkpt lat="43.44899" lon="5.60583">
        <ele>278.5</ele>
        <time>2013-04-10T09:39:41Z</time>
      </trkpt>
      <trkpt lat="43.44886" lon="5.60569">
        <ele>272.1</ele>
        <time>2013-04-10T09:40:00Z</time>
      </trkpt>
      <trkpt lat="43.4488" lon="5.60561">
        <ele>271.2</ele>
        <time>2013-04-10T09:40:07Z</time>
      </trkpt>
      <trkpt lat="43.44873" lon="5.60554">
        <ele>269.7</ele>
        <time>2013-04-10T09:40:16Z</time>
      </trkpt>
      <trkpt lat="43.44867" lon="5.60546">
        <ele>269.8</ele>
        <time>2013-04-10T09:40:24Z</time>
      </trkpt>
      <trkpt lat="43.44861" lon="5.60538">
        <ele>270.6</ele>
        <time>2013-04-10T09:40:31Z</time>
      </trkpt>
      <trkpt lat="43.44855" lon="5.60531">
        <ele>270.7</ele>
        <time>2013-04-10T09:40:40Z</time>
      </trkpt>
      <trkpt lat="43.44849" lon="5.60522">
        <ele>272.2</ele>
        <time>2013-04-10T09:40:47Z</time>
      </trkpt>
      <trkpt lat="43.44849" lon="5.6052">
        <ele>272.2</ele>
        <time>2013-04-10T09:40:48Z</time>
      </trkpt>
      <trkpt lat="43.44846" lon="5.60501">
        <ele>269.1</ele>
        <time>2013-04-10T09:41:00Z</time>
      </trkpt>
      <trkpt lat="43.44846" lon="5.60489">
        <ele>269.1</ele>
        <time>2013-04-10T09:41:08Z</time>
      </trkpt>
      <trkpt lat="43.44849" lon="5.60479">
        <ele>270.7</ele>
        <time>2013-04-10T09:41:16Z</time>
      </trkpt>
      <trkpt lat="43.44852" lon="5.60467">
        <ele>272.1</ele>
        <time>2013-04-10T09:41:25Z</time>
      </trkpt>
      <trkpt lat="43.44854" lon="5.60455">
        <ele>272.7</ele>
        <time>2013-04-10T09:41:34Z</time>
      </trkpt>
      <trkpt lat="43.44852" lon="5.60445">
        <ele>274.2</ele>
        <time>2013-04-10T09:41:39Z</time>
      </trkpt>
      <trkpt lat="43.44851" lon="5.60433">
        <ele>271.2</ele>
        <time>2013-04-10T09:41:47Z</time>
      </trkpt>
      <trkpt lat="43.44845" lon="5.60426">
        <ele>272.8</ele>
        <time>2013-04-10T09:41:56Z</time>
      </trkpt>
      <trkpt lat="43.44844" lon="5.60424">
        <ele>273.2</ele>
        <time>2013-04-10T09:41:57Z</time>
      </trkpt>
      <trkpt lat="43.4483" lon="5.60415">
        <ele>272.7</ele>
        <time>2013-04-10T09:42:26Z</time>
      </trkpt>
      <trkpt lat="43.44822" lon="5.60415">
        <ele>272.7</ele>
        <time>2013-04-10T09:42:35Z</time>
      </trkpt>
      <trkpt lat="43.44813" lon="5.60417">
        <ele>275.1</ele>
        <time>2013-04-10T09:42:44Z</time>
      </trkpt>
      <trkpt lat="43.44804" lon="5.6042">
        <ele>276.8</ele>
        <time>2013-04-10T09:42:53Z</time>
      </trkpt>
      <trkpt lat="43.44796" lon="5.60422">
        <ele>277.2</ele>
        <time>2013-04-10T09:43:00Z</time>
      </trkpt>
      <trkpt lat="43.44795" lon="5.60422">
        <ele>277.2</ele>
        <time>2013-04-10T09:43:01Z</time>
      </trkpt>
      <trkpt lat="43.44779" lon="5.60422">
        <ele>279.1</ele>
        <time>2013-04-10T09:43:16Z</time>
      </trkpt>
      <trkpt lat="43.44771" lon="5.60421">
        <ele>278.8</ele>
        <time>2013-04-10T09:43:23Z</time>
      </trkpt>
      <trkpt lat="43.44763" lon="5.6042">
        <ele>276.5</ele>
        <time>2013-04-10T09:43:30Z</time>
      </trkpt>
      <trkpt lat="43.44755" lon="5.6042">
        <ele>281</ele>
        <time>2013-04-10T09:43:36Z</time>
      </trkpt>
      <trkpt lat="43.44747" lon="5.60419">
        <ele>282.2</ele>
        <time>2013-04-10T09:43:44Z</time>
      </trkpt>
      <trkpt lat="43.44739" lon="5.60415">
        <ele>281.6</ele>
        <time>2013-04-10T09:43:51Z</time>
      </trkpt>
      <trkpt lat="43.44732" lon="5.60412">
        <ele>281.7</ele>
        <time>2013-04-10T09:43:58Z</time>
      </trkpt>
      <trkpt lat="43.44724" lon="5.60405">
        <ele>284.5</ele>
        <time>2013-04-10T09:44:05Z</time>
      </trkpt>
      <trkpt lat="43.44723" lon="5.60405">
        <ele>283.7</ele>
        <time>2013-04-10T09:44:06Z</time>
      </trkpt>
      <trkpt lat="43.4471" lon="5.60394">
        <ele>284.2</ele>
        <time>2013-04-10T09:44:19Z</time>
      </trkpt>
      <trkpt lat="43.44705" lon="5.60385">
        <ele>282.7</ele>
        <time>2013-04-10T09:44:26Z</time>
      </trkpt>
      <trkpt lat="43.447" lon="5.60376">
        <ele>286.2</ele>
        <time>2013-04-10T09:44:34Z</time>
      </trkpt>
      <trkpt lat="43.44696" lon="5.60366">
        <ele>282.2</ele>
        <time>2013-04-10T09:44:42Z</time>
      </trkpt>
      <trkpt lat="43.44691" lon="5.60357">
        <ele>278.2</ele>
        <time>2013-04-10T09:44:49Z</time>
      </trkpt>
      <trkpt lat="43.44687" lon="5.60348">
        <ele>276.8</ele>
        <time>2013-04-10T09:44:57Z</time>
      </trkpt>
      <trkpt lat="43.44682" lon="5.60338">
        <ele>275.8</ele>
        <time>2013-04-10T09:45:04Z</time>
      </trkpt>
      <trkpt lat="43.44676" lon="5.6033">
        <ele>276.5</ele>
        <time>2013-04-10T09:45:10Z</time>
      </trkpt>
      <trkpt lat="43.44676" lon="5.60329">
        <ele>276.5</ele>
        <time>2013-04-10T09:45:11Z</time>
      </trkpt>
      <trkpt lat="43.44666" lon="5.60311">
        <ele>281.1</ele>
        <time>2013-04-10T09:45:27Z</time>
      </trkpt>
      <trkpt lat="43.44661" lon="5.60301">
        <ele>284.8</ele>
        <time>2013-04-10T09:45:34Z</time>
      </trkpt>
      <trkpt lat="43.44656" lon="5.60292">
        <ele>285.8</ele>
        <time>2013-04-10T09:45:42Z</time>
      </trkpt>
      <trkpt lat="43.44651" lon="5.60283">
        <ele>286.7</ele>
        <time>2013-04-10T09:45:49Z</time>
      </trkpt>
      <trkpt lat="43.44646" lon="5.60275">
        <ele>286.7</ele>
        <time>2013-04-10T09:45:56Z</time>
      </trkpt>
      <trkpt lat="43.44642" lon="5.60266">
        <ele>287</ele>
        <time>2013-04-10T09:46:03Z</time>
      </trkpt>
      <trkpt lat="43.44637" lon="5.60257">
        <ele>290.7</ele>
        <time>2013-04-10T09:46:09Z</time>
      </trkpt>
      <trkpt lat="43.44633" lon="5.60248">
        <ele>293.8</ele>
        <time>2013-04-10T09:46:16Z</time>
      </trkpt>
      <trkpt lat="43.44633" lon="5.60246">
        <ele>294.2</ele>
        <time>2013-04-10T09:46:17Z</time>
      </trkpt>
      <trkpt lat="43.44625" lon="5.60228">
        <ele>294.1</ele>
        <time>2013-04-10T09:46:30Z</time>
      </trkpt>
      <trkpt lat="43.44622" lon="5.60217">
        <ele>291.3</ele>
        <time>2013-04-10T09:46:37Z</time>
      </trkpt>
      <trkpt lat="43.44618" lon="5.60206">
        <ele>293.2</ele>
        <time>2013-04-10T09:46:45Z</time>
      </trkpt>
      <trkpt lat="43.44616" lon="5.60195">
        <ele>292.5</ele>
        <time>2013-04-10T09:46:57Z</time>
      </trkpt>
      <trkpt lat="43.44613" lon="5.60185">
        <ele>292.1</ele>
        <time>2013-04-10T09:47:07Z</time>
      </trkpt>
      <trkpt lat="43.4461" lon="5.60175">
        <ele>291.1</ele>
        <time>2013-04-10T09:47:14Z</time>
      </trkpt>
      <trkpt lat="43.44607" lon="5.60164">
        <ele>292.7</ele>
        <time>2013-04-10T09:47:21Z</time>
      </trkpt>
      <trkpt lat="43.44606" lon="5.60163">
        <ele>292.5</ele>
        <time>2013-04-10T09:47:22Z</time>
      </trkpt>
      <trkpt lat="43.44602" lon="5.60142">
        <ele>296</ele>
        <time>2013-04-10T09:47:35Z</time>
      </trkpt>
      <trkpt lat="43.44599" lon="5.60133">
        <ele>296.8</ele>
        <time>2013-04-10T09:47:40Z</time>
      </trkpt>
      <trkpt lat="43.44594" lon="5.60122">
        <ele>298.1</ele>
        <time>2013-04-10T09:47:46Z</time>
      </trkpt>
      <trkpt lat="43.4459" lon="5.60112">
        <ele>301.2</ele>
        <time>2013-04-10T09:47:53Z</time>
      </trkpt>
      <trkpt lat="43.44583" lon="5.60105">
        <ele>300.1</ele>
        <time>2013-04-10T09:48:01Z</time>
      </trkpt>
      <trkpt lat="43.44575" lon="5.60102">
        <ele>297.7</ele>
        <time>2013-04-10T09:48:09Z</time>
      </trkpt>
      <trkpt lat="43.44567" lon="5.60102">
        <ele>299</ele>
        <time>2013-04-10T09:48:17Z</time>
      </trkpt>
      <trkpt lat="43.44559" lon="5.60103">
        <ele>299.6</ele>
        <time>2013-04-10T09:48:25Z</time>
      </trkpt>
      <trkpt lat="43.44557" lon="5.60103">
        <ele>299.3</ele>
        <time>2013-04-10T09:48:26Z</time>
      </trkpt>
      <trkpt lat="43.44542" lon="5.60104">
        <ele>300</ele>
        <time>2013-04-10T09:48:39Z</time>
      </trkpt>
      <trkpt lat="43.44533" lon="5.60104">
        <ele>301.6</ele>
        <time>2013-04-10T09:48:46Z</time>
      </trkpt>
      <trkpt lat="43.44525" lon="5.60104">
        <ele>301.8</ele>
        <time>2013-04-10T09:48:53Z</time>
      </trkpt>
      <trkpt lat="43.44517" lon="5.60105">
        <ele>303.6</ele>
        <time>2013-04-10T09:49:00Z</time>
      </trkpt>
      <trkpt lat="43.44508" lon="5.60106">
        <ele>301.6</ele>
        <time>2013-04-10T09:49:07Z</time>
      </trkpt>
      <trkpt lat="43.44499" lon="5.60107">
        <ele>300.2</ele>
        <time>2013-04-10T09:49:14Z</time>
      </trkpt>
      <trkpt lat="43.44491" lon="5.60108">
        <ele>300.3</ele>
        <time>2013-04-10T09:49:21Z</time>
      </trkpt>
      <trkpt lat="43.44483" lon="5.60106">
        <ele>300.1</ele>
        <time>2013-04-10T09:49:27Z</time>
      </trkpt>
      <trkpt lat="43.44482" lon="5.60106">
        <ele>300</ele>
        <time>2013-04-10T09:49:28Z</time>
      </trkpt>
      <trkpt lat="43.44467" lon="5.60105">
        <ele>297.8</ele>
        <time>2013-04-10T09:49:41Z</time>
      </trkpt>
      <trkpt lat="43.44458" lon="5.60105">
        <ele>296.8</ele>
        <time>2013-04-10T09:49:47Z</time>
      </trkpt>
      <trkpt lat="43.4445" lon="5.60105">
        <ele>299.3</ele>
        <time>2013-04-10T09:49:55Z</time>
      </trkpt>
      <trkpt lat="43.44442" lon="5.60106">
        <ele>301</ele>
        <time>2013-04-10T09:50:02Z</time>
      </trkpt>
      <trkpt lat="43.44433" lon="5.60104">
        <ele>301.7</ele>
        <time>2013-04-10T09:50:10Z</time>
      </trkpt>
      <trkpt lat="43.44425" lon="5.60103">
        <ele>293.3</ele>
        <time>2013-04-10T09:50:16Z</time>
      </trkpt>
      <trkpt lat="43.44417" lon="5.60102">
        <ele>291.7</ele>
        <time>2013-04-10T09:50:23Z</time>
      </trkpt>
      <trkpt lat="43.44409" lon="5.60102">
        <ele>294</ele>
        <time>2013-04-10T09:50:30Z</time>
      </trkpt>
      <trkpt lat="43.44408" lon="5.60102">
        <ele>294.2</ele>
        <time>2013-04-10T09:50:31Z</time>
      </trkpt>
      <trkpt lat="43.44392" lon="5.60104">
        <ele>297.1</ele>
        <time>2013-04-10T09:50:45Z</time>
      </trkpt>
      <trkpt lat="43.44384" lon="5.60106">
        <ele>298.2</ele>
        <time>2013-04-10T09:50:52Z</time>
      </trkpt>
      <trkpt lat="43.44375" lon="5.60108">
        <ele>299.6</ele>
        <time>2013-04-10T09:51:00Z</time>
      </trkpt>
      <trkpt lat="43.44367" lon="5.60111">
        <ele>301.7</ele>
        <time>2013-04-10T09:51:08Z</time>
      </trkpt>
      <trkpt lat="43.44358" lon="5.60115">
        <ele>301.8</ele>
        <time>2013-04-10T09:51:18Z</time>
      </trkpt>
      <trkpt lat="43.4435" lon="5.60119">
        <ele>300</ele>
        <time>2013-04-10T09:51:27Z</time>
      </trkpt>
      <trkpt lat="43.44342" lon="5.60123">
        <ele>301.1</ele>
        <time>2013-04-10T09:51:35Z</time>
      </trkpt>
      <trkpt lat="43.44341" lon="5.60123">
        <ele>301.6</ele>
        <time>2013-04-10T09:51:36Z</time>
      </trkpt>
      <trkpt lat="43.44327" lon="5.60131">
        <ele>301.3</ele>
        <time>2013-04-10T09:51:52Z</time>
      </trkpt>
      <trkpt lat="43.44319" lon="5.60133">
        <ele>315.5</ele>
        <time>2013-04-10T09:52:00Z</time>
      </trkpt>
      <trkpt lat="43.4431" lon="5.60136">
        <ele>315.7</ele>
        <time>2013-04-10T09:52:08Z</time>
      </trkpt>
      <trkpt lat="43.44302" lon="5.60137">
        <ele>316.7</ele>
        <time>2013-04-10T09:52:15Z</time>
      </trkpt>
      <trkpt lat="43.44293" lon="5.60138">
        <ele>311.2</ele>
        <time>2013-04-10T09:52:22Z</time>
      </trkpt>
      <trkpt lat="43.44285" lon="5.60136">
        <ele>307.7</ele>
        <time>2013-04-10T09:52:31Z</time>
      </trkpt>
      <trkpt lat="43.44277" lon="5.60139">
        <ele>306.7</ele>
        <time>2013-04-10T09:52:40Z</time>
      </trkpt>
      <trkpt lat="43.44276" lon="5.6014">
        <ele>307.2</ele>
        <time>2013-04-10T09:52:41Z</time>
      </trkpt>
      <trkpt lat="43.4426" lon="5.6014">
        <ele>308.5</ele>
        <time>2013-04-10T09:52:55Z</time>
      </trkpt>
      <trkpt lat="43.44252" lon="5.60138">
        <ele>309.2</ele>
        <time>2013-04-10T09:53:03Z</time>
      </trkpt>
      <trkpt lat="43.44243" lon="5.6014">
        <ele>303.7</ele>
        <time>2013-04-10T09:53:11Z</time>
      </trkpt>
      <trkpt lat="43.44235" lon="5.6014">
        <ele>306.8</ele>
        <time>2013-04-10T09:53:19Z</time>
      </trkpt>
      <trkpt lat="43.44227" lon="5.60142">
        <ele>313.5</ele>
        <time>2013-04-10T09:53:27Z</time>
      </trkpt>
      <trkpt lat="43.44219" lon="5.60147">
        <ele>318</ele>
        <time>2013-04-10T09:53:35Z</time>
      </trkpt>
      <trkpt lat="43.44212" lon="5.60151">
        <ele>316.6</ele>
        <time>2013-04-10T09:53:41Z</time>
      </trkpt>
      <trkpt lat="43.44211" lon="5.60152">
        <ele>316.5</ele>
        <time>2013-04-10T09:53:42Z</time>
      </trkpt>
      <trkpt lat="43.44195" lon="5.60153">
        <ele>317.5</ele>
        <time>2013-04-10T09:53:58Z</time>
      </trkpt>
      <trkpt lat="43.44186" lon="5.60156">
        <ele>319.2</ele>
        <time>2013-04-10T09:54:07Z</time>
      </trkpt>
      <trkpt lat="43.44178" lon="5.60156">
        <ele>320.2</ele>
        <time>2013-04-10T09:54:14Z</time>
      </trkpt>
      <trkpt lat="43.4417" lon="5.60156">
        <ele>320.2</ele>
        <time>2013-04-10T09:54:21Z</time>
      </trkpt>
      <trkpt lat="43.44162" lon="5.60155">
        <ele>319.2</ele>
        <time>2013-04-10T09:54:28Z</time>
      </trkpt>
      <trkpt lat="43.44153" lon="5.60153">
        <ele>321.1</ele>
        <time>2013-04-10T09:54:35Z</time>
      </trkpt>
      <trkpt lat="43.44145" lon="5.60151">
        <ele>321.5</ele>
        <time>2013-04-10T09:54:43Z</time>
      </trkpt>
      <trkpt lat="43.44144" lon="5.60151">
        <ele>321.6</ele>
        <time>2013-04-10T09:54:44Z</time>
      </trkpt>
      <trkpt lat="43.44129" lon="5.60148">
        <ele>320.6</ele>
        <time>2013-04-10T09:54:57Z</time>
      </trkpt>
      <trkpt lat="43.44121" lon="5.60146">
        <ele>321.1</ele>
        <time>2013-04-10T09:55:05Z</time>
      </trkpt>
      <trkpt lat="43.44112" lon="5.60144">
        <ele>323.2</ele>
        <time>2013-04-10T09:55:15Z</time>
      </trkpt>
      <trkpt lat="43.44104" lon="5.60143">
        <ele>325.7</ele>
        <time>2013-04-10T09:55:24Z</time>
      </trkpt>
      <trkpt lat="43.44095" lon="5.60144">
        <ele>324.6</ele>
        <time>2013-04-10T09:55:32Z</time>
      </trkpt>
      <trkpt lat="43.44087" lon="5.60146">
        <ele>323.6</ele>
        <time>2013-04-10T09:55:39Z</time>
      </trkpt>
      <trkpt lat="43.44079" lon="5.60145">
        <ele>324.1</ele>
        <time>2013-04-10T09:55:46Z</time>
      </trkpt>
      <trkpt lat="43.44078" lon="5.60145">
        <ele>324.2</ele>
        <time>2013-04-10T09:55:47Z</time>
      </trkpt>
      <trkpt lat="43.44062" lon="5.60143">
        <ele>329.8</ele>
        <time>2013-04-10T09:56:00Z</time>
      </trkpt>
      <trkpt lat="43.44054" lon="5.60142">
        <ele>329.5</ele>
        <time>2013-04-10T09:56:07Z</time>
      </trkpt>
      <trkpt lat="43.44045" lon="5.60141">
        <ele>333.8</ele>
        <time>2013-04-10T09:56:15Z</time>
      </trkpt>
      <trkpt lat="43.44037" lon="5.60139">
        <ele>330.3</ele>
        <time>2013-04-10T09:56:22Z</time>
      </trkpt>
      <trkpt lat="43.44029" lon="5.60136">
        <ele>324</ele>
        <time>2013-04-10T09:56:28Z</time>
      </trkpt>
      <trkpt lat="43.4402" lon="5.60134">
        <ele>323.6</ele>
        <time>2013-04-10T09:56:36Z</time>
      </trkpt>
      <trkpt lat="43.44012" lon="5.60134">
        <ele>324.1</ele>
        <time>2013-04-10T09:56:43Z</time>
      </trkpt>
      <trkpt lat="43.44003" lon="5.60132">
        <ele>324.2</ele>
        <time>2013-04-10T09:56:51Z</time>
      </trkpt>
      <trkpt lat="43.44002" lon="5.60132">
        <ele>323.6</ele>
        <time>2013-04-10T09:56:52Z</time>
      </trkpt>
      <trkpt lat="43.43986" lon="5.60131">
        <ele>321.8</ele>
        <time>2013-04-10T09:57:06Z</time>
      </trkpt>
      <trkpt lat="43.43978" lon="5.60132">
        <ele>324</ele>
        <time>2013-04-10T09:57:13Z</time>
      </trkpt>
      <trkpt lat="43.43969" lon="5.6013">
        <ele>325.3</ele>
        <time>2013-04-10T09:57:21Z</time>
      </trkpt>
      <trkpt lat="43.43961" lon="5.60128">
        <ele>324.1</ele>
        <time>2013-04-10T09:57:28Z</time>
      </trkpt>
      <trkpt lat="43.43953" lon="5.60124">
        <ele>326</ele>
        <time>2013-04-10T09:57:35Z</time>
      </trkpt>
      <trkpt lat="43.43945" lon="5.60121">
        <ele>323.6</ele>
        <time>2013-04-10T09:57:42Z</time>
      </trkpt>
      <trkpt lat="43.43937" lon="5.60119">
        <ele>325.8</ele>
        <time>2013-04-10T09:57:49Z</time>
      </trkpt>
      <trkpt lat="43.43928" lon="5.60118">
        <ele>327.5</ele>
        <time>2013-04-10T09:57:56Z</time>
      </trkpt>
      <trkpt lat="43.43927" lon="5.60118">
        <ele>328.2</ele>
        <time>2013-04-10T09:57:57Z</time>
      </trkpt>
      <trkpt lat="43.43912" lon="5.60118">
        <ele>334.8</ele>
        <time>2013-04-10T09:58:08Z</time>
      </trkpt>
      <trkpt lat="43.43904" lon="5.60118">
        <ele>337</ele>
        <time>2013-04-10T09:58:15Z</time>
      </trkpt>
      <trkpt lat="43.43895" lon="5.60121">
        <ele>338.5</ele>
        <time>2013-04-10T09:58:22Z</time>
      </trkpt>
      <trkpt lat="43.43886" lon="5.60122">
        <ele>339.3</ele>
        <time>2013-04-10T09:58:30Z</time>
      </trkpt>
      <trkpt lat="43.43877" lon="5.60124">
        <ele>342.2</ele>
        <time>2013-04-10T09:58:37Z</time>
      </trkpt>
      <trkpt lat="43.43868" lon="5.60124">
        <ele>344.2</ele>
        <time>2013-04-10T09:58:45Z</time>
      </trkpt>
      <trkpt lat="43.4386" lon="5.60125">
        <ele>342.2</ele>
        <time>2013-04-10T09:58:53Z</time>
      </trkpt>
      <trkpt lat="43.43851" lon="5.60124">
        <ele>342.2</ele>
        <time>2013-04-10T09:59:00Z</time>
      </trkpt>
      <trkpt lat="43.43849" lon="5.60125">
        <ele>341.3</ele>
        <time>2013-04-10T09:59:01Z</time>
      </trkpt>
      <trkpt lat="43.43833" lon="5.60124">
        <ele>340</ele>
        <time>2013-04-10T09:59:15Z</time>
      </trkpt>
      <trkpt lat="43.43826" lon="5.60121">
        <ele>339.2</ele>
        <time>2013-04-10T09:59:23Z</time>
      </trkpt>
      <trkpt lat="43.43817" lon="5.60121">
        <ele>339.2</ele>
        <time>2013-04-10T09:59:31Z</time>
      </trkpt>
      <trkpt lat="43.43809" lon="5.60121">
        <ele>339.7</ele>
        <time>2013-04-10T09:59:38Z</time>
      </trkpt>
      <trkpt lat="43.43801" lon="5.60123">
        <ele>340.7</ele>
        <time>2013-04-10T09:59:45Z</time>
      </trkpt>
      <trkpt lat="43.43793" lon="5.60126">
        <ele>339.6</ele>
        <time>2013-04-10T09:59:53Z</time>
      </trkpt>
      <trkpt lat="43.43785" lon="5.6013">
        <ele>343.6</ele>
        <time>2013-04-10T10:00:00Z</time>
      </trkpt>
      <trkpt lat="43.43777" lon="5.60132">
        <ele>343.2</ele>
        <time>2013-04-10T10:00:07Z</time>
      </trkpt>
      <trkpt lat="43.43776" lon="5.60132">
        <ele>343.2</ele>
        <time>2013-04-10T10:00:08Z</time>
      </trkpt>
      <trkpt lat="43.43759" lon="5.60136">
        <ele>339.7</ele>
        <time>2013-04-10T10:00:23Z</time>
      </trkpt>
      <trkpt lat="43.4375" lon="5.60138">
        <ele>339.6</ele>
        <time>2013-04-10T10:00:32Z</time>
      </trkpt>
      <trkpt lat="43.43743" lon="5.6014">
        <ele>338.7</ele>
        <time>2013-04-10T10:00:39Z</time>
      </trkpt>
      <trkpt lat="43.43734" lon="5.60139">
        <ele>336.1</ele>
        <time>2013-04-10T10:00:53Z</time>
      </trkpt>
      <trkpt lat="43.43725" lon="5.60141">
        <ele>345.3</ele>
        <time>2013-04-10T10:01:09Z</time>
      </trkpt>
      <trkpt lat="43.43725" lon="5.60142">
        <ele>346</ele>
        <time>2013-04-10T10:01:10Z</time>
      </trkpt>
      <trkpt lat="43.43718" lon="5.60163">
        <ele>353.7</ele>
        <time>2013-04-10T10:01:39Z</time>
      </trkpt>
      <trkpt lat="43.43717" lon="5.60175">
        <ele>356.8</ele>
        <time>2013-04-10T10:01:49Z</time>
      </trkpt>
      <trkpt lat="43.43721" lon="5.60185">
        <ele>353.5</ele>
        <time>2013-04-10T10:06:21Z</time>
      </trkpt>
      <trkpt lat="43.43722" lon="5.60186">
        <ele>354.7</ele>
        <time>2013-04-10T10:06:22Z</time>
      </trkpt>
    </trkseg>
  </trk>
  <trk>
    <name><![CDATA[Kirbon Les Michels_2]]></name>
    <trkseg>
      <trkpt lat="43.43721" lon="5.60179">
        <ele>357.5</ele>
        <time>2013-04-10T10:54:58Z</time>
      </trkpt>
      <trkpt lat="43.43721" lon="5.60179">
        <ele>357.5</ele>
        <time>2013-04-10T10:54:59Z</time>
      </trkpt>
      <trkpt lat="43.43717" lon="5.60167">
        <ele>363.1</ele>
        <time>2013-04-10T10:57:35Z</time>
      </trkpt>
      <trkpt lat="43.43723" lon="5.60178">
        <ele>351.7</ele>
        <time>2013-04-10T11:13:40Z</time>
      </trkpt>
      <trkpt lat="43.43714" lon="5.60173">
        <ele>353</ele>
        <time>2013-04-10T11:15:32Z</time>
      </trkpt>
      <trkpt lat="43.43718" lon="5.60185">
        <ele>350.6</ele>
        <time>2013-04-10T11:16:33Z</time>
      </trkpt>
      <trkpt lat="43.4371" lon="5.60179">
        <ele>351</ele>
        <time>2013-04-10T11:20:09Z</time>
      </trkpt>
      <trkpt lat="43.43695" lon="5.60166">
        <ele>346.3</ele>
        <time>2013-04-10T11:20:30Z</time>
      </trkpt>
      <trkpt lat="43.43687" lon="5.60167">
        <ele>348.2</ele>
        <time>2013-04-10T11:20:40Z</time>
      </trkpt>
      <trkpt lat="43.43679" lon="5.60171">
        <ele>349.7</ele>
        <time>2013-04-10T11:20:49Z</time>
      </trkpt>
      <trkpt lat="43.43671" lon="5.60174">
        <ele>350.8</ele>
        <time>2013-04-10T11:21:00Z</time>
      </trkpt>
      <trkpt lat="43.43664" lon="5.60178">
        <ele>351.7</ele>
        <time>2013-04-10T11:21:08Z</time>
      </trkpt>
      <trkpt lat="43.43656" lon="5.60184">
        <ele>353.3</ele>
        <time>2013-04-10T11:21:18Z</time>
      </trkpt>
      <trkpt lat="43.43655" lon="5.60184">
        <ele>353.6</ele>
        <time>2013-04-10T11:21:19Z</time>
      </trkpt>
      <trkpt lat="43.4364" lon="5.60194">
        <ele>356.6</ele>
        <time>2013-04-10T11:21:36Z</time>
      </trkpt>
      <trkpt lat="43.43632" lon="5.60199">
        <ele>358.6</ele>
        <time>2013-04-10T11:21:45Z</time>
      </trkpt>
      <trkpt lat="43.43624" lon="5.60203">
        <ele>358.6</ele>
        <time>2013-04-10T11:21:54Z</time>
      </trkpt>
      <trkpt lat="43.43616" lon="5.60207">
        <ele>358.2</ele>
        <time>2013-04-10T11:22:02Z</time>
      </trkpt>
      <trkpt lat="43.43608" lon="5.60212">
        <ele>359.2</ele>
        <time>2013-04-10T11:22:12Z</time>
      </trkpt>
      <trkpt lat="43.43599" lon="5.60214">
        <ele>357.7</ele>
        <time>2013-04-10T11:22:22Z</time>
      </trkpt>
      <trkpt lat="43.43598" lon="5.60215">
        <ele>357.5</ele>
        <time>2013-04-10T11:22:23Z</time>
      </trkpt>
      <trkpt lat="43.43583" lon="5.60222">
        <ele>359.7</ele>
        <time>2013-04-10T11:22:37Z</time>
      </trkpt>
      <trkpt lat="43.43575" lon="5.60225">
        <ele>359.8</ele>
        <time>2013-04-10T11:22:45Z</time>
      </trkpt>
      <trkpt lat="43.43567" lon="5.60229">
        <ele>361</ele>
        <time>2013-04-10T11:22:53Z</time>
      </trkpt>
      <trkpt lat="43.43559" lon="5.60233">
        <ele>362</ele>
        <time>2013-04-10T11:23:02Z</time>
      </trkpt>
      <trkpt lat="43.43551" lon="5.60237">
        <ele>360.8</ele>
        <time>2013-04-10T11:23:09Z</time>
      </trkpt>
      <trkpt lat="43.43543" lon="5.6024">
        <ele>361.2</ele>
        <time>2013-04-10T11:23:17Z</time>
      </trkpt>
      <trkpt lat="43.43535" lon="5.60243">
        <ele>361.1</ele>
        <time>2013-04-10T11:23:26Z</time>
      </trkpt>
      <trkpt lat="43.43534" lon="5.60243">
        <ele>361.5</ele>
        <time>2013-04-10T11:23:27Z</time>
      </trkpt>
      <trkpt lat="43.43518" lon="5.60246">
        <ele>366.6</ele>
        <time>2013-04-10T11:23:44Z</time>
      </trkpt>
      <trkpt lat="43.4351" lon="5.60247">
        <ele>369.6</ele>
        <time>2013-04-10T11:23:52Z</time>
      </trkpt>
      <trkpt lat="43.43501" lon="5.60249">
        <ele>370.1</ele>
        <time>2013-04-10T11:24:01Z</time>
      </trkpt>
      <trkpt lat="43.43493" lon="5.60251">
        <ele>368.7</ele>
        <time>2013-04-10T11:24:09Z</time>
      </trkpt>
      <trkpt lat="43.43484" lon="5.60252">
        <ele>370.2</ele>
        <time>2013-04-10T11:24:19Z</time>
      </trkpt>
      <trkpt lat="43.43476" lon="5.60255">
        <ele>370.3</ele>
        <time>2013-04-10T11:24:27Z</time>
      </trkpt>
      <trkpt lat="43.43475" lon="5.60255">
        <ele>370.3</ele>
        <time>2013-04-10T11:24:28Z</time>
      </trkpt>
      <trkpt lat="43.43459" lon="5.60257">
        <ele>367.1</ele>
        <time>2013-04-10T11:24:43Z</time>
      </trkpt>
      <trkpt lat="43.43451" lon="5.6026">
        <ele>366</ele>
        <time>2013-04-10T11:24:50Z</time>
      </trkpt>
      <trkpt lat="43.43442" lon="5.60262">
        <ele>364.1</ele>
        <time>2013-04-10T11:24:58Z</time>
      </trkpt>
      <trkpt lat="43.43434" lon="5.60265">
        <ele>364.2</ele>
        <time>2013-04-10T11:25:05Z</time>
      </trkpt>
      <trkpt lat="43.43426" lon="5.60267">
        <ele>365.8</ele>
        <time>2013-04-10T11:25:11Z</time>
      </trkpt>
      <trkpt lat="43.43418" lon="5.60271">
        <ele>366.7</ele>
        <time>2013-04-10T11:25:18Z</time>
      </trkpt>
      <trkpt lat="43.4341" lon="5.60273">
        <ele>366.8</ele>
        <time>2013-04-10T11:25:26Z</time>
      </trkpt>
      <trkpt lat="43.43402" lon="5.60275">
        <ele>368.6</ele>
        <time>2013-04-10T11:25:33Z</time>
      </trkpt>
      <trkpt lat="43.43401" lon="5.60275">
        <ele>368.5</ele>
        <time>2013-04-10T11:25:34Z</time>
      </trkpt>
      <trkpt lat="43.43385" lon="5.60284">
        <ele>367.7</ele>
        <time>2013-04-10T11:25:49Z</time>
      </trkpt>
      <trkpt lat="43.43378" lon="5.60287">
        <ele>368.1</ele>
        <time>2013-04-10T11:25:56Z</time>
      </trkpt>
      <trkpt lat="43.43369" lon="5.6029">
        <ele>368.3</ele>
        <time>2013-04-10T11:26:03Z</time>
      </trkpt>
      <trkpt lat="43.43361" lon="5.60293">
        <ele>368.8</ele>
        <time>2013-04-10T11:26:10Z</time>
      </trkpt>
      <trkpt lat="43.43354" lon="5.60298">
        <ele>369.2</ele>
        <time>2013-04-10T11:26:17Z</time>
      </trkpt>
      <trkpt lat="43.43347" lon="5.60302">
        <ele>369.5</ele>
        <time>2013-04-10T11:26:24Z</time>
      </trkpt>
      <trkpt lat="43.43339" lon="5.60305">
        <ele>369.8</ele>
        <time>2013-04-10T11:26:31Z</time>
      </trkpt>
      <trkpt lat="43.43331" lon="5.60309">
        <ele>370.3</ele>
        <time>2013-04-10T11:26:39Z</time>
      </trkpt>
      <trkpt lat="43.4333" lon="5.60309">
        <ele>370.5</ele>
        <time>2013-04-10T11:26:40Z</time>
      </trkpt>
      <trkpt lat="43.43315" lon="5.60316">
        <ele>372.7</ele>
        <time>2013-04-10T11:26:55Z</time>
      </trkpt>
      <trkpt lat="43.43307" lon="5.6032">
        <ele>375.1</ele>
        <time>2013-04-10T11:27:04Z</time>
      </trkpt>
      <trkpt lat="43.43299" lon="5.60324">
        <ele>376.3</ele>
        <time>2013-04-10T11:27:12Z</time>
      </trkpt>
      <trkpt lat="43.43291" lon="5.60329">
        <ele>378.2</ele>
        <time>2013-04-10T11:27:20Z</time>
      </trkpt>
      <trkpt lat="43.43283" lon="5.60335">
        <ele>379.1</ele>
        <time>2013-04-10T11:27:28Z</time>
      </trkpt>
      <trkpt lat="43.43276" lon="5.60341">
        <ele>380.2</ele>
        <time>2013-04-10T11:27:35Z</time>
      </trkpt>
      <trkpt lat="43.4327" lon="5.60348">
        <ele>381.2</ele>
        <time>2013-04-10T11:27:42Z</time>
      </trkpt>
      <trkpt lat="43.43269" lon="5.60349">
        <ele>381.3</ele>
        <time>2013-04-10T11:27:43Z</time>
      </trkpt>
      <trkpt lat="43.43257" lon="5.60364">
        <ele>382.6</ele>
        <time>2013-04-10T11:27:57Z</time>
      </trkpt>
      <trkpt lat="43.43252" lon="5.60372">
        <ele>382.5</ele>
        <time>2013-04-10T11:28:04Z</time>
      </trkpt>
      <trkpt lat="43.43245" lon="5.60379">
        <ele>382.7</ele>
        <time>2013-04-10T11:28:12Z</time>
      </trkpt>
      <trkpt lat="43.43238" lon="5.60386">
        <ele>384.1</ele>
        <time>2013-04-10T11:28:19Z</time>
      </trkpt>
      <trkpt lat="43.4323" lon="5.60392">
        <ele>381.5</ele>
        <time>2013-04-10T11:28:29Z</time>
      </trkpt>
      <trkpt lat="43.43224" lon="5.60399">
        <ele>379.2</ele>
        <time>2013-04-10T11:28:38Z</time>
      </trkpt>
      <trkpt lat="43.43217" lon="5.60405">
        <ele>379.1</ele>
        <time>2013-04-10T11:28:45Z</time>
      </trkpt>
      <trkpt lat="43.43216" lon="5.60406">
        <ele>379</ele>
        <time>2013-04-10T11:28:46Z</time>
      </trkpt>
      <trkpt lat="43.43204" lon="5.6042">
        <ele>379.1</ele>
        <time>2013-04-10T11:29:00Z</time>
      </trkpt>
      <trkpt lat="43.43199" lon="5.60431">
        <ele>378.8</ele>
        <time>2013-04-10T11:29:09Z</time>
      </trkpt>
      <trkpt lat="43.43194" lon="5.60438">
        <ele>377.7</ele>
        <time>2013-04-10T11:29:16Z</time>
      </trkpt>
      <trkpt lat="43.43187" lon="5.60444">
        <ele>379.1</ele>
        <time>2013-04-10T11:29:24Z</time>
      </trkpt>
      <trkpt lat="43.43179" lon="5.60447">
        <ele>382.6</ele>
        <time>2013-04-10T11:29:31Z</time>
      </trkpt>
      <trkpt lat="43.43171" lon="5.6045">
        <ele>385.2</ele>
        <time>2013-04-10T11:29:37Z</time>
      </trkpt>
      <trkpt lat="43.43163" lon="5.60454">
        <ele>386.2</ele>
        <time>2013-04-10T11:29:45Z</time>
      </trkpt>
      <trkpt lat="43.43155" lon="5.60457">
        <ele>385.3</ele>
        <time>2013-04-10T11:29:57Z</time>
      </trkpt>
      <trkpt lat="43.43154" lon="5.60458">
        <ele>385.3</ele>
        <time>2013-04-10T11:29:58Z</time>
      </trkpt>
      <trkpt lat="43.43139" lon="5.60463">
        <ele>384.8</ele>
        <time>2013-04-10T11:30:12Z</time>
      </trkpt>
      <trkpt lat="43.43132" lon="5.60467">
        <ele>385</ele>
        <time>2013-04-10T11:30:19Z</time>
      </trkpt>
      <trkpt lat="43.43124" lon="5.6047">
        <ele>386.2</ele>
        <time>2013-04-10T11:30:27Z</time>
      </trkpt>
      <trkpt lat="43.43117" lon="5.60474">
        <ele>387.2</ele>
        <time>2013-04-10T11:30:34Z</time>
      </trkpt>
      <trkpt lat="43.43109" lon="5.6048">
        <ele>388</ele>
        <time>2013-04-10T11:30:41Z</time>
      </trkpt>
      <trkpt lat="43.43102" lon="5.60487">
        <ele>388.6</ele>
        <time>2013-04-10T11:30:49Z</time>
      </trkpt>
      <trkpt lat="43.43096" lon="5.60494">
        <ele>389</ele>
        <time>2013-04-10T11:30:57Z</time>
      </trkpt>
      <trkpt lat="43.43089" lon="5.60501">
        <ele>389.5</ele>
        <time>2013-04-10T11:31:05Z</time>
      </trkpt>
      <trkpt lat="43.43088" lon="5.60502">
        <ele>389.7</ele>
        <time>2013-04-10T11:31:06Z</time>
      </trkpt>
      <trkpt lat="43.43074" lon="5.60508">
        <ele>392</ele>
        <time>2013-04-10T11:31:22Z</time>
      </trkpt>
      <trkpt lat="43.43066" lon="5.6051">
        <ele>393.1</ele>
        <time>2013-04-10T11:31:31Z</time>
      </trkpt>
      <trkpt lat="43.43057" lon="5.60513">
        <ele>393.3</ele>
        <time>2013-04-10T11:31:40Z</time>
      </trkpt>
      <trkpt lat="43.43049" lon="5.60517">
        <ele>394.3</ele>
        <time>2013-04-10T11:31:49Z</time>
      </trkpt>
      <trkpt lat="43.43041" lon="5.60521">
        <ele>394.3</ele>
        <time>2013-04-10T11:31:58Z</time>
      </trkpt>
      <trkpt lat="43.43033" lon="5.60526">
        <ele>395.2</ele>
        <time>2013-04-10T11:32:07Z</time>
      </trkpt>
      <trkpt lat="43.43032" lon="5.60526">
        <ele>395.2</ele>
        <time>2013-04-10T11:32:08Z</time>
      </trkpt>
      <trkpt lat="43.43017" lon="5.60534">
        <ele>396.2</ele>
        <time>2013-04-10T11:32:25Z</time>
      </trkpt>
      <trkpt lat="43.43009" lon="5.60537">
        <ele>396.2</ele>
        <time>2013-04-10T11:32:34Z</time>
      </trkpt>
      <trkpt lat="43.43" lon="5.6054">
        <ele>397.2</ele>
        <time>2013-04-10T11:32:44Z</time>
      </trkpt>
      <trkpt lat="43.42992" lon="5.60543">
        <ele>398.6</ele>
        <time>2013-04-10T11:32:53Z</time>
      </trkpt>
      <trkpt lat="43.42984" lon="5.60545">
        <ele>400.1</ele>
        <time>2013-04-10T11:33:01Z</time>
      </trkpt>
      <trkpt lat="43.42975" lon="5.60548">
        <ele>400.6</ele>
        <time>2013-04-10T11:33:09Z</time>
      </trkpt>
      <trkpt lat="43.42974" lon="5.60548">
        <ele>400.7</ele>
        <time>2013-04-10T11:33:10Z</time>
      </trkpt>
      <trkpt lat="43.42958" lon="5.60555">
        <ele>403.7</ele>
        <time>2013-04-10T11:33:27Z</time>
      </trkpt>
      <trkpt lat="43.42951" lon="5.60559">
        <ele>404.8</ele>
        <time>2013-04-10T11:33:35Z</time>
      </trkpt>
      <trkpt lat="43.42943" lon="5.60563">
        <ele>404.7</ele>
        <time>2013-04-10T11:33:43Z</time>
      </trkpt>
      <trkpt lat="43.42935" lon="5.60568">
        <ele>405.3</ele>
        <time>2013-04-10T11:33:51Z</time>
      </trkpt>
      <trkpt lat="43.42927" lon="5.60573">
        <ele>405.5</ele>
        <time>2013-04-10T11:33:59Z</time>
      </trkpt>
      <trkpt lat="43.42919" lon="5.60579">
        <ele>406</ele>
        <time>2013-04-10T11:34:06Z</time>
      </trkpt>
      <trkpt lat="43.42912" lon="5.60584">
        <ele>405.2</ele>
        <time>2013-04-10T11:34:13Z</time>
      </trkpt>
      <trkpt lat="43.42911" lon="5.60585">
        <ele>405.1</ele>
        <time>2013-04-10T11:34:14Z</time>
      </trkpt>
      <trkpt lat="43.42896" lon="5.60595">
        <ele>405.6</ele>
        <time>2013-04-10T11:34:29Z</time>
      </trkpt>
      <trkpt lat="43.42889" lon="5.60601">
        <ele>407</ele>
        <time>2013-04-10T11:34:37Z</time>
      </trkpt>
      <trkpt lat="43.42882" lon="5.60607">
        <ele>408.7</ele>
        <time>2013-04-10T11:34:46Z</time>
      </trkpt>
      <trkpt lat="43.42875" lon="5.60614">
        <ele>410</ele>
        <time>2013-04-10T11:34:54Z</time>
      </trkpt>
      <trkpt lat="43.42868" lon="5.60619">
        <ele>410.8</ele>
        <time>2013-04-10T11:35:02Z</time>
      </trkpt>
      <trkpt lat="43.4286" lon="5.60624">
        <ele>412.8</ele>
        <time>2013-04-10T11:35:11Z</time>
      </trkpt>
      <trkpt lat="43.42853" lon="5.6063">
        <ele>414</ele>
        <time>2013-04-10T11:35:19Z</time>
      </trkpt>
      <trkpt lat="43.42852" lon="5.60631">
        <ele>414</ele>
        <time>2013-04-10T11:35:20Z</time>
      </trkpt>
      <trkpt lat="43.42839" lon="5.60643">
        <ele>414.2</ele>
        <time>2013-04-10T11:35:33Z</time>
      </trkpt>
      <trkpt lat="43.42832" lon="5.60649">
        <ele>414.7</ele>
        <time>2013-04-10T11:35:40Z</time>
      </trkpt>
      <trkpt lat="43.42824" lon="5.60654">
        <ele>413.3</ele>
        <time>2013-04-10T11:35:47Z</time>
      </trkpt>
      <trkpt lat="43.42816" lon="5.60655">
        <ele>413.7</ele>
        <time>2013-04-10T11:35:54Z</time>
      </trkpt>
      <trkpt lat="43.42808" lon="5.60655">
        <ele>414.2</ele>
        <time>2013-04-10T11:36:01Z</time>
      </trkpt>
      <trkpt lat="43.42799" lon="5.60655">
        <ele>413</ele>
        <time>2013-04-10T11:36:09Z</time>
      </trkpt>
      <trkpt lat="43.42791" lon="5.60655">
        <ele>412.1</ele>
        <time>2013-04-10T11:36:16Z</time>
      </trkpt>
      <trkpt lat="43.42782" lon="5.60656">
        <ele>412.2</ele>
        <time>2013-04-10T11:36:23Z</time>
      </trkpt>
      <trkpt lat="43.42781" lon="5.60657">
        <ele>412.2</ele>
        <time>2013-04-10T11:36:24Z</time>
      </trkpt>
      <trkpt lat="43.42767" lon="5.60668">
        <ele>411.6</ele>
        <time>2013-04-10T11:36:39Z</time>
      </trkpt>
      <trkpt lat="43.42759" lon="5.60672">
        <ele>411.7</ele>
        <time>2013-04-10T11:36:47Z</time>
      </trkpt>
      <trkpt lat="43.42751" lon="5.60673">
        <ele>410.5</ele>
        <time>2013-04-10T11:36:53Z</time>
      </trkpt>
      <trkpt lat="43.42743" lon="5.6067">
        <ele>408.1</ele>
        <time>2013-04-10T11:37:02Z</time>
      </trkpt>
      <trkpt lat="43.42736" lon="5.60664">
        <ele>406.5</ele>
        <time>2013-04-10T11:37:12Z</time>
      </trkpt>
      <trkpt lat="43.42732" lon="5.60653">
        <ele>404.3</ele>
        <time>2013-04-10T11:37:22Z</time>
      </trkpt>
      <trkpt lat="43.42729" lon="5.60641">
        <ele>403.2</ele>
        <time>2013-04-10T11:37:31Z</time>
      </trkpt>
      <trkpt lat="43.42728" lon="5.60641">
        <ele>403.2</ele>
        <time>2013-04-10T11:37:32Z</time>
      </trkpt>
      <trkpt lat="43.42713" lon="5.60637">
        <ele>403</ele>
        <time>2013-04-10T11:37:45Z</time>
      </trkpt>
      <trkpt lat="43.42704" lon="5.60638">
        <ele>405</ele>
        <time>2013-04-10T11:37:52Z</time>
      </trkpt>
      <trkpt lat="43.42698" lon="5.60644">
        <ele>405.2</ele>
        <time>2013-04-10T11:37:58Z</time>
      </trkpt>
      <trkpt lat="43.42691" lon="5.60649">
        <ele>405.2</ele>
        <time>2013-04-10T11:38:04Z</time>
      </trkpt>
      <trkpt lat="43.42683" lon="5.60654">
        <ele>406</ele>
        <time>2013-04-10T11:38:11Z</time>
      </trkpt>
      <trkpt lat="43.42674" lon="5.60657">
        <ele>406.2</ele>
        <time>2013-04-10T11:38:19Z</time>
      </trkpt>
      <trkpt lat="43.42666" lon="5.60658">
        <ele>407.7</ele>
        <time>2013-04-10T11:38:26Z</time>
      </trkpt>
      <trkpt lat="43.42657" lon="5.60656">
        <ele>410.2</ele>
        <time>2013-04-10T11:38:36Z</time>
      </trkpt>
      <trkpt lat="43.42656" lon="5.60656">
        <ele>410.2</ele>
        <time>2013-04-10T11:38:37Z</time>
      </trkpt>
      <trkpt lat="43.42643" lon="5.60645">
        <ele>405.5</ele>
        <time>2013-04-10T11:38:55Z</time>
      </trkpt>
      <trkpt lat="43.42635" lon="5.60639">
        <ele>402.5</ele>
        <time>2013-04-10T11:39:03Z</time>
      </trkpt>
      <trkpt lat="43.42627" lon="5.60635">
        <ele>403.7</ele>
        <time>2013-04-10T11:39:10Z</time>
      </trkpt>
      <trkpt lat="43.42619" lon="5.60631">
        <ele>404.1</ele>
        <time>2013-04-10T11:39:16Z</time>
      </trkpt>
      <trkpt lat="43.42611" lon="5.60627">
        <ele>404.6</ele>
        <time>2013-04-10T11:39:23Z</time>
      </trkpt>
      <trkpt lat="43.42603" lon="5.60623">
        <ele>404.2</ele>
        <time>2013-04-10T11:39:30Z</time>
      </trkpt>
      <trkpt lat="43.42595" lon="5.60619">
        <ele>405.8</ele>
        <time>2013-04-10T11:39:37Z</time>
      </trkpt>
      <trkpt lat="43.42595" lon="5.60618">
        <ele>405.7</ele>
        <time>2013-04-10T11:39:38Z</time>
      </trkpt>
      <trkpt lat="43.42579" lon="5.60612">
        <ele>406.2</ele>
        <time>2013-04-10T11:39:54Z</time>
      </trkpt>
      <trkpt lat="43.42571" lon="5.6061">
        <ele>407.3</ele>
        <time>2013-04-10T11:40:00Z</time>
      </trkpt>
      <trkpt lat="43.42562" lon="5.6061">
        <ele>407.8</ele>
        <time>2013-04-10T11:40:07Z</time>
      </trkpt>
      <trkpt lat="43.42554" lon="5.6061">
        <ele>407.7</ele>
        <time>2013-04-10T11:40:15Z</time>
      </trkpt>
      <trkpt lat="43.42545" lon="5.6061">
        <ele>406.8</ele>
        <time>2013-04-10T11:40:23Z</time>
      </trkpt>
      <trkpt lat="43.42537" lon="5.6061">
        <ele>407.1</ele>
        <time>2013-04-10T11:40:31Z</time>
      </trkpt>
      <trkpt lat="43.42528" lon="5.60607">
        <ele>403.6</ele>
        <time>2013-04-10T11:40:40Z</time>
      </trkpt>
      <trkpt lat="43.42527" lon="5.60607">
        <ele>403.8</ele>
        <time>2013-04-10T11:40:41Z</time>
      </trkpt>
      <trkpt lat="43.42512" lon="5.60607">
        <ele>409</ele>
        <time>2013-04-10T11:40:54Z</time>
      </trkpt>
      <trkpt lat="43.42504" lon="5.60608">
        <ele>410</ele>
        <time>2013-04-10T11:40:59Z</time>
      </trkpt>
      <trkpt lat="43.42496" lon="5.60611">
        <ele>410.8</ele>
        <time>2013-04-10T11:41:06Z</time>
      </trkpt>
      <trkpt lat="43.42488" lon="5.60613">
        <ele>412.3</ele>
        <time>2013-04-10T11:41:13Z</time>
      </trkpt>
      <trkpt lat="43.4248" lon="5.60615">
        <ele>414.1</ele>
        <time>2013-04-10T11:41:20Z</time>
      </trkpt>
      <trkpt lat="43.42472" lon="5.60617">
        <ele>415.7</ele>
        <time>2013-04-10T11:41:28Z</time>
      </trkpt>
      <trkpt lat="43.42464" lon="5.6062">
        <ele>416.3</ele>
        <time>2013-04-10T11:41:36Z</time>
      </trkpt>
      <trkpt lat="43.42455" lon="5.60621">
        <ele>414.7</ele>
        <time>2013-04-10T11:41:44Z</time>
      </trkpt>
      <trkpt lat="43.42454" lon="5.60621">
        <ele>414</ele>
        <time>2013-04-10T11:41:45Z</time>
      </trkpt>
      <trkpt lat="43.4244" lon="5.60623">
        <ele>411.2</ele>
        <time>2013-04-10T11:41:58Z</time>
      </trkpt>
      <trkpt lat="43.42431" lon="5.60624">
        <ele>411.7</ele>
        <time>2013-04-10T11:42:07Z</time>
      </trkpt>
      <trkpt lat="43.42422" lon="5.60627">
        <ele>411.7</ele>
        <time>2013-04-10T11:42:15Z</time>
      </trkpt>
      <trkpt lat="43.42415" lon="5.60628">
        <ele>411.8</ele>
        <time>2013-04-10T11:42:23Z</time>
      </trkpt>
      <trkpt lat="43.42406" lon="5.60628">
        <ele>414</ele>
        <time>2013-04-10T11:42:31Z</time>
      </trkpt>
      <trkpt lat="43.42398" lon="5.60627">
        <ele>414.1</ele>
        <time>2013-04-10T11:42:39Z</time>
      </trkpt>
      <trkpt lat="43.4239" lon="5.60626">
        <ele>411.6</ele>
        <time>2013-04-10T11:42:47Z</time>
      </trkpt>
      <trkpt lat="43.42389" lon="5.60626">
        <ele>411.6</ele>
        <time>2013-04-10T11:42:48Z</time>
      </trkpt>
      <trkpt lat="43.42373" lon="5.60625">
        <ele>416.6</ele>
        <time>2013-04-10T11:43:02Z</time>
      </trkpt>
      <trkpt lat="43.42365" lon="5.60628">
        <ele>420.7</ele>
        <time>2013-04-10T11:43:10Z</time>
      </trkpt>
      <trkpt lat="43.42357" lon="5.60634">
        <ele>424.3</ele>
        <time>2013-04-10T11:43:19Z</time>
      </trkpt>
      <trkpt lat="43.42351" lon="5.60642">
        <ele>425.3</ele>
        <time>2013-04-10T11:43:28Z</time>
      </trkpt>
      <trkpt lat="43.42345" lon="5.60651">
        <ele>423.8</ele>
        <time>2013-04-10T11:43:35Z</time>
      </trkpt>
      <trkpt lat="43.4234" lon="5.6066">
        <ele>424</ele>
        <time>2013-04-10T11:43:42Z</time>
      </trkpt>
      <trkpt lat="43.42335" lon="5.6067">
        <ele>425.2</ele>
        <time>2013-04-10T11:43:49Z</time>
      </trkpt>
      <trkpt lat="43.42335" lon="5.60672">
        <ele>425.2</ele>
        <time>2013-04-10T11:43:50Z</time>
      </trkpt>
      <trkpt lat="43.42328" lon="5.60691">
        <ele>421.2</ele>
        <time>2013-04-10T11:44:04Z</time>
      </trkpt>
      <trkpt lat="43.42322" lon="5.60699">
        <ele>421.2</ele>
        <time>2013-04-10T11:44:11Z</time>
      </trkpt>
      <trkpt lat="43.42315" lon="5.60706">
        <ele>421.8</ele>
        <time>2013-04-10T11:44:19Z</time>
      </trkpt>
      <trkpt lat="43.42308" lon="5.60714">
        <ele>416.5</ele>
        <time>2013-04-10T11:44:26Z</time>
      </trkpt>
      <trkpt lat="43.42302" lon="5.60722">
        <ele>413.7</ele>
        <time>2013-04-10T11:44:34Z</time>
      </trkpt>
      <trkpt lat="43.42298" lon="5.6073">
        <ele>411.7</ele>
        <time>2013-04-10T11:44:41Z</time>
      </trkpt>
      <trkpt lat="43.42293" lon="5.60738">
        <ele>413.8</ele>
        <time>2013-04-10T11:44:47Z</time>
      </trkpt>
      <trkpt lat="43.42288" lon="5.60747">
        <ele>414.3</ele>
        <time>2013-04-10T11:44:53Z</time>
      </trkpt>
      <trkpt lat="43.42287" lon="5.60749">
        <ele>414.5</ele>
        <time>2013-04-10T11:44:54Z</time>
      </trkpt>
      <trkpt lat="43.4228" lon="5.60767">
        <ele>414.1</ele>
        <time>2013-04-10T11:45:30Z</time>
      </trkpt>
      <trkpt lat="43.42275" lon="5.60776">
        <ele>413</ele>
        <time>2013-04-10T11:45:40Z</time>
      </trkpt>
      <trkpt lat="43.42268" lon="5.60783">
        <ele>414.2</ele>
        <time>2013-04-10T11:45:47Z</time>
      </trkpt>
      <trkpt lat="43.42261" lon="5.6079">
        <ele>415.7</ele>
        <time>2013-04-10T11:45:54Z</time>
      </trkpt>
      <trkpt lat="43.4226" lon="5.60792">
        <ele>415.7</ele>
        <time>2013-04-10T11:45:55Z</time>
      </trkpt>
      <trkpt lat="43.42248" lon="5.60805">
        <ele>416</ele>
        <time>2013-04-10T11:46:08Z</time>
      </trkpt>
      <trkpt lat="43.42242" lon="5.60812">
        <ele>416.2</ele>
        <time>2013-04-10T11:46:15Z</time>
      </trkpt>
      <trkpt lat="43.42236" lon="5.60821">
        <ele>416.7</ele>
        <time>2013-04-10T11:46:23Z</time>
      </trkpt>
      <trkpt lat="43.42232" lon="5.60832">
        <ele>418.6</ele>
        <time>2013-04-10T11:46:32Z</time>
      </trkpt>
      <trkpt lat="43.42229" lon="5.60843">
        <ele>420.3</ele>
        <time>2013-04-10T11:46:40Z</time>
      </trkpt>
      <trkpt lat="43.42226" lon="5.60854">
        <ele>420.7</ele>
        <time>2013-04-10T11:46:48Z</time>
      </trkpt>
      <trkpt lat="43.42221" lon="5.60864">
        <ele>419.7</ele>
        <time>2013-04-10T11:46:55Z</time>
      </trkpt>
      <trkpt lat="43.42221" lon="5.60865">
        <ele>419.7</ele>
        <time>2013-04-10T11:46:56Z</time>
      </trkpt>
      <trkpt lat="43.42211" lon="5.60881">
        <ele>420.5</ele>
        <time>2013-04-10T11:47:09Z</time>
      </trkpt>
      <trkpt lat="43.42205" lon="5.60889">
        <ele>420.3</ele>
        <time>2013-04-10T11:47:16Z</time>
      </trkpt>
      <trkpt lat="43.42199" lon="5.60897">
        <ele>419.7</ele>
        <time>2013-04-10T11:47:23Z</time>
      </trkpt>
      <trkpt lat="43.42192" lon="5.60903">
        <ele>418.5</ele>
        <time>2013-04-10T11:47:31Z</time>
      </trkpt>
      <trkpt lat="43.42185" lon="5.60912">
        <ele>418.6</ele>
        <time>2013-04-10T11:47:39Z</time>
      </trkpt>
      <trkpt lat="43.42179" lon="5.60918">
        <ele>420.2</ele>
        <time>2013-04-10T11:47:45Z</time>
      </trkpt>
      <trkpt lat="43.42171" lon="5.60924">
        <ele>420</ele>
        <time>2013-04-10T11:47:52Z</time>
      </trkpt>
      <trkpt lat="43.42164" lon="5.60928">
        <ele>420.8</ele>
        <time>2013-04-10T11:47:59Z</time>
      </trkpt>
      <trkpt lat="43.42163" lon="5.60929">
        <ele>421</ele>
        <time>2013-04-10T11:48:00Z</time>
      </trkpt>
      <trkpt lat="43.42147" lon="5.60932">
        <ele>417.7</ele>
        <time>2013-04-10T11:48:17Z</time>
      </trkpt>
      <trkpt lat="43.42139" lon="5.6093">
        <ele>416</ele>
        <time>2013-04-10T11:48:25Z</time>
      </trkpt>
      <trkpt lat="43.42131" lon="5.60928">
        <ele>416.3</ele>
        <time>2013-04-10T11:48:32Z</time>
      </trkpt>
      <trkpt lat="43.42123" lon="5.60926">
        <ele>416.5</ele>
        <time>2013-04-10T11:48:39Z</time>
      </trkpt>
      <trkpt lat="43.42114" lon="5.60926">
        <ele>419.1</ele>
        <time>2013-04-10T11:48:45Z</time>
      </trkpt>
      <trkpt lat="43.42106" lon="5.60928">
        <ele>420.7</ele>
        <time>2013-04-10T11:48:51Z</time>
      </trkpt>
      <trkpt lat="43.42097" lon="5.6093">
        <ele>420.7</ele>
        <time>2013-04-10T11:48:58Z</time>
      </trkpt>
      <trkpt lat="43.42089" lon="5.60932">
        <ele>421</ele>
        <time>2013-04-10T11:49:05Z</time>
      </trkpt>
      <trkpt lat="43.42087" lon="5.60932">
        <ele>421</ele>
        <time>2013-04-10T11:49:06Z</time>
      </trkpt>
      <trkpt lat="43.42073" lon="5.60937">
        <ele>419.6</ele>
        <time>2013-04-10T11:49:19Z</time>
      </trkpt>
      <trkpt lat="43.42064" lon="5.6094">
        <ele>420</ele>
        <time>2013-04-10T11:49:26Z</time>
      </trkpt>
      <trkpt lat="43.42055" lon="5.60943">
        <ele>420.3</ele>
        <time>2013-04-10T11:49:33Z</time>
      </trkpt>
      <trkpt lat="43.42047" lon="5.60945">
        <ele>421.1</ele>
        <time>2013-04-10T11:49:40Z</time>
      </trkpt>
      <trkpt lat="43.42039" lon="5.60945">
        <ele>421.2</ele>
        <time>2013-04-10T11:49:48Z</time>
      </trkpt>
      <trkpt lat="43.42031" lon="5.60945">
        <ele>423.2</ele>
        <time>2013-04-10T11:49:56Z</time>
      </trkpt>
      <trkpt lat="43.42023" lon="5.60942">
        <ele>422.6</ele>
        <time>2013-04-10T11:50:03Z</time>
      </trkpt>
      <trkpt lat="43.42014" lon="5.6094">
        <ele>422.7</ele>
        <time>2013-04-10T11:50:10Z</time>
      </trkpt>
      <trkpt lat="43.42013" lon="5.6094">
        <ele>422.6</ele>
        <time>2013-04-10T11:50:11Z</time>
      </trkpt>
      <trkpt lat="43.41998" lon="5.60939">
        <ele>424.7</ele>
        <time>2013-04-10T11:50:23Z</time>
      </trkpt>
      <trkpt lat="43.41989" lon="5.60938">
        <ele>427.3</ele>
        <time>2013-04-10T11:50:29Z</time>
      </trkpt>
      <trkpt lat="43.41981" lon="5.6094">
        <ele>427.7</ele>
        <time>2013-04-10T11:50:36Z</time>
      </trkpt>
      <trkpt lat="43.41973" lon="5.60943">
        <ele>430.7</ele>
        <time>2013-04-10T11:50:43Z</time>
      </trkpt>
      <trkpt lat="43.41965" lon="5.60948">
        <ele>429.3</ele>
        <time>2013-04-10T11:50:51Z</time>
      </trkpt>
      <trkpt lat="43.41957" lon="5.60953">
        <ele>425.7</ele>
        <time>2013-04-10T11:50:58Z</time>
      </trkpt>
      <trkpt lat="43.4195" lon="5.6096">
        <ele>424.2</ele>
        <time>2013-04-10T11:51:06Z</time>
      </trkpt>
      <trkpt lat="43.41944" lon="5.60967">
        <ele>424.3</ele>
        <time>2013-04-10T11:51:14Z</time>
      </trkpt>
      <trkpt lat="43.41943" lon="5.60968">
        <ele>424.7</ele>
        <time>2013-04-10T11:51:15Z</time>
      </trkpt>
      <trkpt lat="43.41932" lon="5.60984">
        <ele>428.7</ele>
        <time>2013-04-10T11:51:30Z</time>
      </trkpt>
      <trkpt lat="43.41924" lon="5.60989">
        <ele>431.2</ele>
        <time>2013-04-10T11:51:37Z</time>
      </trkpt>
      <trkpt lat="43.41916" lon="5.60991">
        <ele>433.8</ele>
        <time>2013-04-10T11:51:45Z</time>
      </trkpt>
      <trkpt lat="43.41907" lon="5.60994">
        <ele>432.1</ele>
        <time>2013-04-10T11:51:53Z</time>
      </trkpt>
      <trkpt lat="43.41899" lon="5.60997">
        <ele>430.2</ele>
        <time>2013-04-10T11:52:02Z</time>
      </trkpt>
      <trkpt lat="43.41891" lon="5.60999">
        <ele>430.2</ele>
        <time>2013-04-10T11:52:12Z</time>
      </trkpt>
      <trkpt lat="43.41883" lon="5.60994">
        <ele>431.7</ele>
        <time>2013-04-10T11:52:30Z</time>
      </trkpt>
      <trkpt lat="43.41883" lon="5.60993">
        <ele>431.8</ele>
        <time>2013-04-10T11:52:31Z</time>
      </trkpt>
      <trkpt lat="43.41866" lon="5.60995">
        <ele>430.2</ele>
        <time>2013-04-10T11:53:07Z</time>
      </trkpt>
      <trkpt lat="43.41868" lon="5.61006">
        <ele>422</ele>
        <time>2013-04-10T11:54:41Z</time>
      </trkpt>
      <trkpt lat="43.41867" lon="5.61007">
        <ele>421.5</ele>
        <time>2013-04-10T11:54:42Z</time>
      </trkpt>
      <trkpt lat="43.4187" lon="5.6103">
        <ele>414.8</ele>
        <time>2013-04-10T11:55:00Z</time>
      </trkpt>
      <trkpt lat="43.4187" lon="5.61043">
        <ele>411.7</ele>
        <time>2013-04-10T11:55:10Z</time>
      </trkpt>
      <trkpt lat="43.41868" lon="5.61054">
        <ele>415.2</ele>
        <time>2013-04-10T11:55:17Z</time>
      </trkpt>
      <trkpt lat="43.4187" lon="5.61066">
        <ele>410.7</ele>
        <time>2013-04-10T11:55:31Z</time>
      </trkpt>
      <trkpt lat="43.4187" lon="5.61078">
        <ele>413.2</ele>
        <time>2013-04-10T11:55:40Z</time>
      </trkpt>
      <trkpt lat="43.4187" lon="5.61089">
        <ele>423.2</ele>
        <time>2013-04-10T11:56:16Z</time>
      </trkpt>
      <trkpt lat="43.4187" lon="5.61091">
        <ele>423.5</ele>
        <time>2013-04-10T11:56:17Z</time>
      </trkpt>
      <trkpt lat="43.41871" lon="5.61113">
        <ele>421.7</ele>
        <time>2013-04-10T11:56:32Z</time>
      </trkpt>
      <trkpt lat="43.4187" lon="5.61125">
        <ele>422.7</ele>
        <time>2013-04-10T11:57:00Z</time>
      </trkpt>
      <trkpt lat="43.41871" lon="5.61137">
        <ele>421.8</ele>
        <time>2013-04-10T11:57:11Z</time>
      </trkpt>
      <trkpt lat="43.41873" lon="5.61148">
        <ele>421.7</ele>
        <time>2013-04-10T11:57:20Z</time>
      </trkpt>
      <trkpt lat="43.41873" lon="5.61149">
        <ele>421.5</ele>
        <time>2013-04-10T11:57:21Z</time>
      </trkpt>
      <trkpt lat="43.41875" lon="5.61173">
        <ele>425.1</ele>
        <time>2013-04-10T11:57:43Z</time>
      </trkpt>
      <trkpt lat="43.41873" lon="5.61184">
        <ele>425</ele>
        <time>2013-04-10T11:57:51Z</time>
      </trkpt>
      <trkpt lat="43.41873" lon="5.61195">
        <ele>425.7</ele>
        <time>2013-04-10T11:57:59Z</time>
      </trkpt>
      <trkpt lat="43.41875" lon="5.61206">
        <ele>425.3</ele>
        <time>2013-04-10T11:58:07Z</time>
      </trkpt>
      <trkpt lat="43.41876" lon="5.61218">
        <ele>425.7</ele>
        <time>2013-04-10T11:58:18Z</time>
      </trkpt>
      <trkpt lat="43.41878" lon="5.61229">
        <ele>424.7</ele>
        <time>2013-04-10T11:58:28Z</time>
      </trkpt>
      <trkpt lat="43.41879" lon="5.61231">
        <ele>424.3</ele>
        <time>2013-04-10T11:58:29Z</time>
      </trkpt>
      <trkpt lat="43.41881" lon="5.61252">
        <ele>424.6</ele>
        <time>2013-04-10T11:58:44Z</time>
      </trkpt>
      <trkpt lat="43.41883" lon="5.61263">
        <ele>424.7</ele>
        <time>2013-04-10T11:58:53Z</time>
      </trkpt>
      <trkpt lat="43.41884" lon="5.61275">
        <ele>424.7</ele>
        <time>2013-04-10T11:59:02Z</time>
      </trkpt>
      <trkpt lat="43.41885" lon="5.61286">
        <ele>422.2</ele>
        <time>2013-04-10T11:59:13Z</time>
      </trkpt>
      <trkpt lat="43.41886" lon="5.61298">
        <ele>421</ele>
        <time>2013-04-10T11:59:21Z</time>
      </trkpt>
      <trkpt lat="43.41887" lon="5.6131">
        <ele>420.7</ele>
        <time>2013-04-10T11:59:28Z</time>
      </trkpt>
      <trkpt lat="43.41887" lon="5.61321">
        <ele>421.2</ele>
        <time>2013-04-10T11:59:38Z</time>
      </trkpt>
      <trkpt lat="43.41887" lon="5.61322">
        <ele>421.5</ele>
        <time>2013-04-10T11:59:39Z</time>
      </trkpt>
      <trkpt lat="43.41889" lon="5.61344">
        <ele>426.2</ele>
        <time>2013-04-10T11:59:56Z</time>
      </trkpt>
      <trkpt lat="43.41898" lon="5.61349">
        <ele>425.2</ele>
        <time>2013-04-10T12:01:11Z</time>
      </trkpt>
      <trkpt lat="43.41898" lon="5.61348">
        <ele>425</ele>
        <time>2013-04-10T12:01:12Z</time>
      </trkpt>
      <trkpt lat="43.41893" lon="5.6136">
        <ele>423.7</ele>
        <time>2013-04-10T12:04:17Z</time>
      </trkpt>
      <trkpt lat="43.41898" lon="5.61382">
        <ele>426.6</ele>
        <time>2013-04-10T12:04:51Z</time>
      </trkpt>
      <trkpt lat="43.41899" lon="5.61394">
        <ele>427.7</ele>
        <time>2013-04-10T12:05:00Z</time>
      </trkpt>
      <trkpt lat="43.41899" lon="5.61405">
        <ele>429.6</ele>
        <time>2013-04-10T12:05:08Z</time>
      </trkpt>
      <trkpt lat="43.41901" lon="5.61416">
        <ele>430.2</ele>
        <time>2013-04-10T12:05:16Z</time>
      </trkpt>
      <trkpt lat="43.41901" lon="5.61428">
        <ele>430.1</ele>
        <time>2013-04-10T12:05:24Z</time>
      </trkpt>
      <trkpt lat="43.41901" lon="5.6143">
        <ele>429.8</ele>
        <time>2013-04-10T12:05:25Z</time>
      </trkpt>
      <trkpt lat="43.419" lon="5.61452">
        <ele>428.2</ele>
        <time>2013-04-10T12:05:44Z</time>
      </trkpt>
      <trkpt lat="43.41896" lon="5.61462">
        <ele>430.1</ele>
        <time>2013-04-10T12:05:53Z</time>
      </trkpt>
      <trkpt lat="43.41894" lon="5.61473">
        <ele>430.1</ele>
        <time>2013-04-10T12:06:02Z</time>
      </trkpt>
      <trkpt lat="43.41892" lon="5.61484">
        <ele>429.8</ele>
        <time>2013-04-10T12:06:11Z</time>
      </trkpt>
      <trkpt lat="43.41891" lon="5.61496">
        <ele>429.6</ele>
        <time>2013-04-10T12:06:21Z</time>
      </trkpt>
      <trkpt lat="43.41889" lon="5.61507">
        <ele>429.3</ele>
        <time>2013-04-10T12:06:28Z</time>
      </trkpt>
      <trkpt lat="43.41889" lon="5.61509">
        <ele>429.5</ele>
        <time>2013-04-10T12:06:29Z</time>
      </trkpt>
      <trkpt lat="43.41886" lon="5.6153">
        <ele>431.7</ele>
        <time>2013-04-10T12:06:45Z</time>
      </trkpt>
      <trkpt lat="43.41885" lon="5.61541">
        <ele>432.6</ele>
        <time>2013-04-10T12:06:52Z</time>
      </trkpt>
      <trkpt lat="43.41884" lon="5.61553">
        <ele>432.5</ele>
        <time>2013-04-10T12:07:00Z</time>
      </trkpt>
      <trkpt lat="43.41883" lon="5.61565">
        <ele>434.1</ele>
        <time>2013-04-10T12:07:08Z</time>
      </trkpt>
      <trkpt lat="43.41881" lon="5.61576">
        <ele>435.6</ele>
        <time>2013-04-10T12:07:16Z</time>
      </trkpt>
      <trkpt lat="43.4188" lon="5.61588">
        <ele>436.7</ele>
        <time>2013-04-10T12:07:24Z</time>
      </trkpt>
      <trkpt lat="43.41879" lon="5.61599">
        <ele>437.2</ele>
        <time>2013-04-10T12:07:31Z</time>
      </trkpt>
      <trkpt lat="43.41878" lon="5.61601">
        <ele>437.2</ele>
        <time>2013-04-10T12:07:32Z</time>
      </trkpt>
      <trkpt lat="43.41875" lon="5.61621">
        <ele>436.7</ele>
        <time>2013-04-10T12:07:45Z</time>
      </trkpt>
      <trkpt lat="43.41874" lon="5.61632">
        <ele>436.2</ele>
        <time>2013-04-10T12:07:52Z</time>
      </trkpt>
      <trkpt lat="43.41872" lon="5.61643">
        <ele>436.7</ele>
        <time>2013-04-10T12:07:59Z</time>
      </trkpt>
      <trkpt lat="43.4187" lon="5.61655">
        <ele>437.3</ele>
        <time>2013-04-10T12:08:06Z</time>
      </trkpt>
      <trkpt lat="43.41869" lon="5.61666">
        <ele>438.1</ele>
        <time>2013-04-10T12:08:13Z</time>
      </trkpt>
      <trkpt lat="43.41868" lon="5.61677">
        <ele>438.3</ele>
        <time>2013-04-10T12:08:20Z</time>
      </trkpt>
      <trkpt lat="43.41866" lon="5.61689">
        <ele>439.2</ele>
        <time>2013-04-10T12:08:28Z</time>
      </trkpt>
      <trkpt lat="43.41864" lon="5.617">
        <ele>439.6</ele>
        <time>2013-04-10T12:08:41Z</time>
      </trkpt>
      <trkpt lat="43.41863" lon="5.61702">
        <ele>439.5</ele>
        <time>2013-04-10T12:08:42Z</time>
      </trkpt>
      <trkpt lat="43.41861" lon="5.61723">
        <ele>435.7</ele>
        <time>2013-04-10T12:08:56Z</time>
      </trkpt>
      <trkpt lat="43.4186" lon="5.61735">
        <ele>436.7</ele>
        <time>2013-04-10T12:09:04Z</time>
      </trkpt>
      <trkpt lat="43.41859" lon="5.61746">
        <ele>438</ele>
        <time>2013-04-10T12:09:12Z</time>
      </trkpt>
      <trkpt lat="43.41858" lon="5.61757">
        <ele>439.3</ele>
        <time>2013-04-10T12:09:19Z</time>
      </trkpt>
      <trkpt lat="43.41858" lon="5.61768">
        <ele>439.5</ele>
        <time>2013-04-10T12:09:26Z</time>
      </trkpt>
      <trkpt lat="43.41858" lon="5.6178">
        <ele>440.7</ele>
        <time>2013-04-10T12:09:34Z</time>
      </trkpt>
      <trkpt lat="43.41855" lon="5.61792">
        <ele>442</ele>
        <time>2013-04-10T12:09:42Z</time>
      </trkpt>
      <trkpt lat="43.41855" lon="5.61793">
        <ele>442.2</ele>
        <time>2013-04-10T12:09:43Z</time>
      </trkpt>
      <trkpt lat="43.41851" lon="5.61814">
        <ele>444.2</ele>
        <time>2013-04-10T12:09:57Z</time>
      </trkpt>
      <trkpt lat="43.41849" lon="5.61826">
        <ele>443.8</ele>
        <time>2013-04-10T12:10:05Z</time>
      </trkpt>
      <trkpt lat="43.41847" lon="5.61837">
        <ele>442.6</ele>
        <time>2013-04-10T12:10:12Z</time>
      </trkpt>
      <trkpt lat="43.41846" lon="5.61849">
        <ele>442.1</ele>
        <time>2013-04-10T12:10:19Z</time>
      </trkpt>
      <trkpt lat="43.41843" lon="5.6186">
        <ele>441.5</ele>
        <time>2013-04-10T12:10:26Z</time>
      </trkpt>
      <trkpt lat="43.41841" lon="5.61871">
        <ele>442.6</ele>
        <time>2013-04-10T12:10:33Z</time>
      </trkpt>
      <trkpt lat="43.41838" lon="5.61882">
        <ele>443.5</ele>
        <time>2013-04-10T12:10:41Z</time>
      </trkpt>
      <trkpt lat="43.41837" lon="5.61893">
        <ele>444.1</ele>
        <time>2013-04-10T12:10:48Z</time>
      </trkpt>
      <trkpt lat="43.41836" lon="5.61895">
        <ele>443.7</ele>
        <time>2013-04-10T12:10:49Z</time>
      </trkpt>
      <trkpt lat="43.41833" lon="5.61914">
        <ele>445.7</ele>
        <time>2013-04-10T12:11:02Z</time>
      </trkpt>
      <trkpt lat="43.41832" lon="5.61925">
        <ele>446.2</ele>
        <time>2013-04-10T12:11:09Z</time>
      </trkpt>
      <trkpt lat="43.4183" lon="5.61937">
        <ele>446.5</ele>
        <time>2013-04-10T12:11:17Z</time>
      </trkpt>
      <trkpt lat="43.41829" lon="5.61948">
        <ele>446.2</ele>
        <time>2013-04-10T12:11:24Z</time>
      </trkpt>
      <trkpt lat="43.41827" lon="5.6196">
        <ele>446.2</ele>
        <time>2013-04-10T12:11:32Z</time>
      </trkpt>
      <trkpt lat="43.41825" lon="5.61971">
        <ele>446.6</ele>
        <time>2013-04-10T12:11:40Z</time>
      </trkpt>
      <trkpt lat="43.41823" lon="5.61983">
        <ele>444.7</ele>
        <time>2013-04-10T12:11:48Z</time>
      </trkpt>
      <trkpt lat="43.41823" lon="5.61995">
        <ele>445.1</ele>
        <time>2013-04-10T12:11:57Z</time>
      </trkpt>
      <trkpt lat="43.41823" lon="5.61996">
        <ele>445.2</ele>
        <time>2013-04-10T12:11:58Z</time>
      </trkpt>
      <trkpt lat="43.41822" lon="5.62019">
        <ele>446.2</ele>
        <time>2013-04-10T12:12:16Z</time>
      </trkpt>
      <trkpt lat="43.41824" lon="5.6203">
        <ele>444.6</ele>
        <time>2013-04-10T12:12:24Z</time>
      </trkpt>
      <trkpt lat="43.41827" lon="5.62041">
        <ele>444.6</ele>
        <time>2013-04-10T12:12:32Z</time>
      </trkpt>
      <trkpt lat="43.41829" lon="5.62052">
        <ele>444</ele>
        <time>2013-04-10T12:12:40Z</time>
      </trkpt>
      <trkpt lat="43.41831" lon="5.62064">
        <ele>443.8</ele>
        <time>2013-04-10T12:12:48Z</time>
      </trkpt>
      <trkpt lat="43.41834" lon="5.62075">
        <ele>443.1</ele>
        <time>2013-04-10T12:12:56Z</time>
      </trkpt>
      <trkpt lat="43.41836" lon="5.62087">
        <ele>441.2</ele>
        <time>2013-04-10T12:13:03Z</time>
      </trkpt>
      <trkpt lat="43.41836" lon="5.62088">
        <ele>441</ele>
        <time>2013-04-10T12:13:04Z</time>
      </trkpt>
      <trkpt lat="43.41841" lon="5.62108">
        <ele>438.3</ele>
        <time>2013-04-10T12:13:17Z</time>
      </trkpt>
      <trkpt lat="43.41842" lon="5.62119">
        <ele>438.1</ele>
        <time>2013-04-10T12:13:24Z</time>
      </trkpt>
      <trkpt lat="43.41842" lon="5.6213">
        <ele>438.8</ele>
        <time>2013-04-10T12:13:32Z</time>
      </trkpt>
      <trkpt lat="43.4184" lon="5.62142">
        <ele>439.6</ele>
        <time>2013-04-10T12:13:42Z</time>
      </trkpt>
      <trkpt lat="43.41836" lon="5.62151">
        <ele>439.8</ele>
        <time>2013-04-10T12:13:50Z</time>
      </trkpt>
      <trkpt lat="43.41833" lon="5.62162">
        <ele>441.2</ele>
        <time>2013-04-10T12:13:58Z</time>
      </trkpt>
      <trkpt lat="43.41831" lon="5.62173">
        <ele>442.3</ele>
        <time>2013-04-10T12:14:06Z</time>
      </trkpt>
      <trkpt lat="43.4183" lon="5.62175">
        <ele>442.3</ele>
        <time>2013-04-10T12:14:07Z</time>
      </trkpt>
      <trkpt lat="43.41826" lon="5.62196">
        <ele>440.2</ele>
        <time>2013-04-10T12:14:23Z</time>
      </trkpt>
      <trkpt lat="43.41821" lon="5.62205">
        <ele>441.6</ele>
        <time>2013-04-10T12:14:32Z</time>
      </trkpt>
      <trkpt lat="43.41816" lon="5.62214">
        <ele>442.8</ele>
        <time>2013-04-10T12:14:40Z</time>
      </trkpt>
      <trkpt lat="43.4181" lon="5.62224">
        <ele>442.8</ele>
        <time>2013-04-10T12:14:49Z</time>
      </trkpt>
      <trkpt lat="43.41804" lon="5.62233">
        <ele>443.2</ele>
        <time>2013-04-10T12:14:57Z</time>
      </trkpt>
      <trkpt lat="43.418" lon="5.62242">
        <ele>444.7</ele>
        <time>2013-04-10T12:15:04Z</time>
      </trkpt>
      <trkpt lat="43.41795" lon="5.62251">
        <ele>446.3</ele>
        <time>2013-04-10T12:15:11Z</time>
      </trkpt>
      <trkpt lat="43.41794" lon="5.62252">
        <ele>446.7</ele>
        <time>2013-04-10T12:15:12Z</time>
      </trkpt>
      <trkpt lat="43.41784" lon="5.62268">
        <ele>449.1</ele>
        <time>2013-04-10T12:15:25Z</time>
      </trkpt>
      <trkpt lat="43.41778" lon="5.62276">
        <ele>447.2</ele>
        <time>2013-04-10T12:15:33Z</time>
      </trkpt>
      <trkpt lat="43.41773" lon="5.62285">
        <ele>444.6</ele>
        <time>2013-04-10T12:15:41Z</time>
      </trkpt>
      <trkpt lat="43.41768" lon="5.62295">
        <ele>443.6</ele>
        <time>2013-04-10T12:15:49Z</time>
      </trkpt>
      <trkpt lat="43.41765" lon="5.62305">
        <ele>442.1</ele>
        <time>2013-04-10T12:15:56Z</time>
      </trkpt>
      <trkpt lat="43.41761" lon="5.62315">
        <ele>439.5</ele>
        <time>2013-04-10T12:16:03Z</time>
      </trkpt>
      <trkpt lat="43.41757" lon="5.62325">
        <ele>438.7</ele>
        <time>2013-04-10T12:16:10Z</time>
      </trkpt>
      <trkpt lat="43.41751" lon="5.62335">
        <ele>440.7</ele>
        <time>2013-04-10T12:16:17Z</time>
      </trkpt>
      <trkpt lat="43.41751" lon="5.62336">
        <ele>441</ele>
        <time>2013-04-10T12:16:18Z</time>
      </trkpt>
      <trkpt lat="43.41742" lon="5.62353">
        <ele>439.3</ele>
        <time>2013-04-10T12:16:33Z</time>
      </trkpt>
      <trkpt lat="43.41741" lon="5.62365">
        <ele>438.2</ele>
        <time>2013-04-10T12:16:41Z</time>
      </trkpt>
      <trkpt lat="43.41738" lon="5.62376">
        <ele>440.1</ele>
        <time>2013-04-10T12:16:48Z</time>
      </trkpt>
      <trkpt lat="43.41733" lon="5.62386">
        <ele>441.2</ele>
        <time>2013-04-10T12:16:55Z</time>
      </trkpt>
      <trkpt lat="43.4173" lon="5.62397">
        <ele>442.2</ele>
        <time>2013-04-10T12:17:02Z</time>
      </trkpt>
      <trkpt lat="43.41728" lon="5.62408">
        <ele>444.6</ele>
        <time>2013-04-10T12:17:10Z</time>
      </trkpt>
      <trkpt lat="43.41726" lon="5.62419">
        <ele>446.6</ele>
        <time>2013-04-10T12:17:17Z</time>
      </trkpt>
      <trkpt lat="43.41725" lon="5.62431">
        <ele>447.7</ele>
        <time>2013-04-10T12:17:24Z</time>
      </trkpt>
      <trkpt lat="43.41725" lon="5.62433">
        <ele>447.3</ele>
        <time>2013-04-10T12:17:25Z</time>
      </trkpt>
      <trkpt lat="43.41721" lon="5.62455">
        <ele>447.7</ele>
        <time>2013-04-10T12:17:39Z</time>
      </trkpt>
      <trkpt lat="43.4172" lon="5.62467">
        <ele>448.2</ele>
        <time>2013-04-10T12:17:47Z</time>
      </trkpt>
      <trkpt lat="43.41718" lon="5.62478">
        <ele>448.3</ele>
        <time>2013-04-10T12:17:54Z</time>
      </trkpt>
      <trkpt lat="43.41716" lon="5.6249">
        <ele>448.8</ele>
        <time>2013-04-10T12:18:02Z</time>
      </trkpt>
      <trkpt lat="43.41717" lon="5.62502">
        <ele>448.7</ele>
        <time>2013-04-10T12:18:10Z</time>
      </trkpt>
      <trkpt lat="43.41716" lon="5.62513">
        <ele>447.1</ele>
        <time>2013-04-10T12:18:17Z</time>
      </trkpt>
      <trkpt lat="43.41714" lon="5.62525">
        <ele>447.5</ele>
        <time>2013-04-10T12:18:26Z</time>
      </trkpt>
      <trkpt lat="43.41714" lon="5.62527">
        <ele>447.7</ele>
        <time>2013-04-10T12:18:27Z</time>
      </trkpt>
      <trkpt lat="43.4171" lon="5.62548">
        <ele>450.1</ele>
        <time>2013-04-10T12:18:40Z</time>
      </trkpt>
      <trkpt lat="43.41709" lon="5.6256">
        <ele>450.1</ele>
        <time>2013-04-10T12:18:47Z</time>
      </trkpt>
      <trkpt lat="43.41708" lon="5.62572">
        <ele>449.1</ele>
        <time>2013-04-10T12:18:54Z</time>
      </trkpt>
      <trkpt lat="43.41707" lon="5.62583">
        <ele>449</ele>
        <time>2013-04-10T12:19:01Z</time>
      </trkpt>
      <trkpt lat="43.41707" lon="5.62595">
        <ele>449.7</ele>
        <time>2013-04-10T12:19:08Z</time>
      </trkpt>
      <trkpt lat="43.41707" lon="5.62607">
        <ele>450.7</ele>
        <time>2013-04-10T12:19:15Z</time>
      </trkpt>
      <trkpt lat="43.41709" lon="5.62617">
        <ele>449.3</ele>
        <time>2013-04-10T12:19:21Z</time>
      </trkpt>
      <trkpt lat="43.41711" lon="5.62628">
        <ele>448.7</ele>
        <time>2013-04-10T12:19:28Z</time>
      </trkpt>
      <trkpt lat="43.41711" lon="5.62629">
        <ele>448.7</ele>
        <time>2013-04-10T12:19:29Z</time>
      </trkpt>
      <trkpt lat="43.41714" lon="5.62651">
        <ele>445.7</ele>
        <time>2013-04-10T12:19:43Z</time>
      </trkpt>
      <trkpt lat="43.41717" lon="5.62661">
        <ele>446.2</ele>
        <time>2013-04-10T12:19:50Z</time>
      </trkpt>
      <trkpt lat="43.41719" lon="5.62672">
        <ele>448.5</ele>
        <time>2013-04-10T12:20:01Z</time>
      </trkpt>
      <trkpt lat="43.41721" lon="5.62684">
        <ele>448.7</ele>
        <time>2013-04-10T12:20:09Z</time>
      </trkpt>
      <trkpt lat="43.41724" lon="5.62695">
        <ele>445.7</ele>
        <time>2013-04-10T12:20:17Z</time>
      </trkpt>
      <trkpt lat="43.41725" lon="5.62706">
        <ele>444.7</ele>
        <time>2013-04-10T12:20:24Z</time>
      </trkpt>
      <trkpt lat="43.41725" lon="5.62718">
        <ele>445.6</ele>
        <time>2013-04-10T12:20:32Z</time>
      </trkpt>
      <trkpt lat="43.41726" lon="5.62719">
        <ele>445.2</ele>
        <time>2013-04-10T12:20:33Z</time>
      </trkpt>
      <trkpt lat="43.41727" lon="5.6274">
        <ele>444.5</ele>
        <time>2013-04-10T12:20:44Z</time>
      </trkpt>
      <trkpt lat="43.41728" lon="5.62751">
        <ele>443.6</ele>
        <time>2013-04-10T12:20:51Z</time>
      </trkpt>
      <trkpt lat="43.41729" lon="5.62761">
        <ele>443.1</ele>
        <time>2013-04-10T12:20:57Z</time>
      </trkpt>
      <trkpt lat="43.41731" lon="5.62772">
        <ele>442.7</ele>
        <time>2013-04-10T12:21:03Z</time>
      </trkpt>
      <trkpt lat="43.41732" lon="5.62784">
        <ele>441.7</ele>
        <time>2013-04-10T12:21:10Z</time>
      </trkpt>
      <trkpt lat="43.41733" lon="5.62794">
        <ele>441.7</ele>
        <time>2013-04-10T12:21:16Z</time>
      </trkpt>
      <trkpt lat="43.41734" lon="5.62805">
        <ele>440.7</ele>
        <time>2013-04-10T12:21:23Z</time>
      </trkpt>
      <trkpt lat="43.41735" lon="5.62816">
        <ele>441</ele>
        <time>2013-04-10T12:21:30Z</time>
      </trkpt>
      <trkpt lat="43.41736" lon="5.62827">
        <ele>441.6</ele>
        <time>2013-04-10T12:21:37Z</time>
      </trkpt>
      <trkpt lat="43.41736" lon="5.62829">
        <ele>442</ele>
        <time>2013-04-10T12:21:38Z</time>
      </trkpt>
      <trkpt lat="43.41727" lon="5.62846">
        <ele>443.2</ele>
        <time>2013-04-10T12:21:51Z</time>
      </trkpt>
      <trkpt lat="43.4172" lon="5.62851">
        <ele>444.5</ele>
        <time>2013-04-10T12:21:59Z</time>
      </trkpt>
      <trkpt lat="43.41712" lon="5.62856">
        <ele>443.6</ele>
        <time>2013-04-10T12:22:07Z</time>
      </trkpt>
      <trkpt lat="43.41706" lon="5.62862">
        <ele>446.8</ele>
        <time>2013-04-10T12:22:13Z</time>
      </trkpt>
      <trkpt lat="43.41699" lon="5.62869">
        <ele>447.6</ele>
        <time>2013-04-10T12:22:21Z</time>
      </trkpt>
      <trkpt lat="43.41696" lon="5.6288">
        <ele>427.3</ele>
        <time>2013-04-10T12:23:10Z</time>
      </trkpt>
      <trkpt lat="43.41696" lon="5.62881">
        <ele>427.6</ele>
        <time>2013-04-10T12:23:11Z</time>
      </trkpt>
      <trkpt lat="43.41681" lon="5.6289">
        <ele>451.8</ele>
        <time>2013-04-10T12:25:40Z</time>
      </trkpt>
      <trkpt lat="43.4168" lon="5.6289">
        <ele>451.7</ele>
        <time>2013-04-10T12:25:41Z</time>
      </trkpt>
      <trkpt lat="43.41666" lon="5.62881">
        <ele>448.1</ele>
        <time>2013-04-10T12:26:00Z</time>
      </trkpt>
      <trkpt lat="43.41662" lon="5.6287">
        <ele>447</ele>
        <time>2013-04-10T12:26:08Z</time>
      </trkpt>
      <trkpt lat="43.41659" lon="5.62859">
        <ele>446.5</ele>
        <time>2013-04-10T12:26:15Z</time>
      </trkpt>
      <trkpt lat="43.41656" lon="5.62849">
        <ele>446.5</ele>
        <time>2013-04-10T12:26:22Z</time>
      </trkpt>
      <trkpt lat="43.41652" lon="5.62838">
        <ele>447.7</ele>
        <time>2013-04-10T12:26:29Z</time>
      </trkpt>
      <trkpt lat="43.41648" lon="5.62827">
        <ele>447.8</ele>
        <time>2013-04-10T12:26:37Z</time>
      </trkpt>
      <trkpt lat="43.4164" lon="5.62825">
        <ele>447.6</ele>
        <time>2013-04-10T12:26:45Z</time>
      </trkpt>
      <trkpt lat="43.41639" lon="5.62825">
        <ele>447.6</ele>
        <time>2013-04-10T12:26:46Z</time>
      </trkpt>
      <trkpt lat="43.41623" lon="5.62827">
        <ele>445.6</ele>
        <time>2013-04-10T12:27:02Z</time>
      </trkpt>
      <trkpt lat="43.41615" lon="5.62828">
        <ele>443.2</ele>
        <time>2013-04-10T12:27:10Z</time>
      </trkpt>
      <trkpt lat="43.41607" lon="5.62828">
        <ele>442.1</ele>
        <time>2013-04-10T12:27:20Z</time>
      </trkpt>
      <trkpt lat="43.416" lon="5.62836">
        <ele>442.5</ele>
        <time>2013-04-10T12:27:29Z</time>
      </trkpt>
      <trkpt lat="43.41594" lon="5.62845">
        <ele>436.7</ele>
        <time>2013-04-10T12:27:49Z</time>
      </trkpt>
      <trkpt lat="43.41594" lon="5.62845">
        <ele>436.2</ele>
        <time>2013-04-10T12:27:50Z</time>
      </trkpt>
      <trkpt lat="43.41578" lon="5.62845">
        <ele>433.6</ele>
        <time>2013-04-10T12:28:50Z</time>
      </trkpt>
      <trkpt lat="43.41577" lon="5.62845">
        <ele>433.8</ele>
        <time>2013-04-10T12:28:51Z</time>
      </trkpt>
      <trkpt lat="43.41562" lon="5.62848">
        <ele>433.2</ele>
        <time>2013-04-10T12:29:06Z</time>
      </trkpt>
      <trkpt lat="43.41554" lon="5.62851">
        <ele>433.2</ele>
        <time>2013-04-10T12:29:17Z</time>
      </trkpt>
      <trkpt lat="43.41545" lon="5.62854">
        <ele>432</ele>
        <time>2013-04-10T12:29:26Z</time>
      </trkpt>
      <trkpt lat="43.41537" lon="5.62857">
        <ele>429.7</ele>
        <time>2013-04-10T12:29:35Z</time>
      </trkpt>
      <trkpt lat="43.41528" lon="5.62861">
        <ele>428.1</ele>
        <time>2013-04-10T12:29:43Z</time>
      </trkpt>
      <trkpt lat="43.4152" lon="5.62865">
        <ele>425.7</ele>
        <time>2013-04-10T12:29:51Z</time>
      </trkpt>
      <trkpt lat="43.41519" lon="5.62866">
        <ele>426</ele>
        <time>2013-04-10T12:29:52Z</time>
      </trkpt>
      <trkpt lat="43.41505" lon="5.62873">
        <ele>424.2</ele>
        <time>2013-04-10T12:30:05Z</time>
      </trkpt>
      <trkpt lat="43.41497" lon="5.62875">
        <ele>424.3</ele>
        <time>2013-04-10T12:30:12Z</time>
      </trkpt>
      <trkpt lat="43.41489" lon="5.6288">
        <ele>425</ele>
        <time>2013-04-10T12:30:20Z</time>
      </trkpt>
      <trkpt lat="43.41481" lon="5.62885">
        <ele>425.6</ele>
        <time>2013-04-10T12:30:28Z</time>
      </trkpt>
      <trkpt lat="43.41473" lon="5.62889">
        <ele>430.1</ele>
        <time>2013-04-10T12:30:34Z</time>
      </trkpt>
      <trkpt lat="43.41465" lon="5.62892">
        <ele>431</ele>
        <time>2013-04-10T12:30:42Z</time>
      </trkpt>
      <trkpt lat="43.41457" lon="5.62894">
        <ele>431.1</ele>
        <time>2013-04-10T12:30:49Z</time>
      </trkpt>
      <trkpt lat="43.41449" lon="5.62897">
        <ele>430</ele>
        <time>2013-04-10T12:30:57Z</time>
      </trkpt>
      <trkpt lat="43.41447" lon="5.62897">
        <ele>430.3</ele>
        <time>2013-04-10T12:30:58Z</time>
      </trkpt>
      <trkpt lat="43.41432" lon="5.62904">
        <ele>429.8</ele>
        <time>2013-04-10T12:31:12Z</time>
      </trkpt>
      <trkpt lat="43.41425" lon="5.62907">
        <ele>433.2</ele>
        <time>2013-04-10T12:31:18Z</time>
      </trkpt>
      <trkpt lat="43.41416" lon="5.6291">
        <ele>435.2</ele>
        <time>2013-04-10T12:31:26Z</time>
      </trkpt>
      <trkpt lat="43.41408" lon="5.62911">
        <ele>433.3</ele>
        <time>2013-04-10T12:31:36Z</time>
      </trkpt>
      <trkpt lat="43.414" lon="5.62918">
        <ele>436.1</ele>
        <time>2013-04-10T12:31:44Z</time>
      </trkpt>
      <trkpt lat="43.41395" lon="5.62926">
        <ele>438.7</ele>
        <time>2013-04-10T12:31:50Z</time>
      </trkpt>
      <trkpt lat="43.41389" lon="5.62933">
        <ele>439.8</ele>
        <time>2013-04-10T12:31:57Z</time>
      </trkpt>
      <trkpt lat="43.41382" lon="5.62941">
        <ele>440.7</ele>
        <time>2013-04-10T12:32:05Z</time>
      </trkpt>
      <trkpt lat="43.41381" lon="5.62942">
        <ele>440.8</ele>
        <time>2013-04-10T12:32:06Z</time>
      </trkpt>
      <trkpt lat="43.41369" lon="5.62954">
        <ele>442.2</ele>
        <time>2013-04-10T12:32:19Z</time>
      </trkpt>
      <trkpt lat="43.41361" lon="5.62961">
        <ele>442.8</ele>
        <time>2013-04-10T12:32:27Z</time>
      </trkpt>
      <trkpt lat="43.41355" lon="5.62968">
        <ele>442.2</ele>
        <time>2013-04-10T12:32:34Z</time>
      </trkpt>
      <trkpt lat="43.41349" lon="5.62975">
        <ele>442.7</ele>
        <time>2013-04-10T12:32:41Z</time>
      </trkpt>
      <trkpt lat="43.41342" lon="5.62982">
        <ele>444</ele>
        <time>2013-04-10T12:32:48Z</time>
      </trkpt>
      <trkpt lat="43.41335" lon="5.62989">
        <ele>447.1</ele>
        <time>2013-04-10T12:32:54Z</time>
      </trkpt>
      <trkpt lat="43.41329" lon="5.62997">
        <ele>447.7</ele>
        <time>2013-04-10T12:33:02Z</time>
      </trkpt>
      <trkpt lat="43.41324" lon="5.63005">
        <ele>447.8</ele>
        <time>2013-04-10T12:33:08Z</time>
      </trkpt>
      <trkpt lat="43.41323" lon="5.63006">
        <ele>448</ele>
        <time>2013-04-10T12:33:09Z</time>
      </trkpt>
      <trkpt lat="43.41312" lon="5.63021">
        <ele>450.2</ele>
        <time>2013-04-10T12:33:21Z</time>
      </trkpt>
      <trkpt lat="43.41307" lon="5.63029">
        <ele>450.2</ele>
        <time>2013-04-10T12:33:28Z</time>
      </trkpt>
      <trkpt lat="43.41302" lon="5.63036">
        <ele>450.3</ele>
        <time>2013-04-10T12:33:34Z</time>
      </trkpt>
      <trkpt lat="43.41295" lon="5.63045">
        <ele>449.1</ele>
        <time>2013-04-10T12:33:42Z</time>
      </trkpt>
      <trkpt lat="43.41289" lon="5.63053">
        <ele>449.7</ele>
        <time>2013-04-10T12:33:50Z</time>
      </trkpt>
      <trkpt lat="43.41283" lon="5.63061">
        <ele>448.6</ele>
        <time>2013-04-10T12:33:57Z</time>
      </trkpt>
      <trkpt lat="43.41278" lon="5.6307">
        <ele>448.5</ele>
        <time>2013-04-10T12:34:04Z</time>
      </trkpt>
      <trkpt lat="43.41272" lon="5.63079">
        <ele>448.3</ele>
        <time>2013-04-10T12:34:11Z</time>
      </trkpt>
      <trkpt lat="43.41271" lon="5.6308">
        <ele>448.6</ele>
        <time>2013-04-10T12:34:12Z</time>
      </trkpt>
      <trkpt lat="43.41259" lon="5.63095">
        <ele>450.3</ele>
        <time>2013-04-10T12:34:26Z</time>
      </trkpt>
      <trkpt lat="43.41253" lon="5.63103">
        <ele>450.8</ele>
        <time>2013-04-10T12:34:34Z</time>
      </trkpt>
      <trkpt lat="43.41247" lon="5.63112">
        <ele>452</ele>
        <time>2013-04-10T12:34:42Z</time>
      </trkpt>
      <trkpt lat="43.41241" lon="5.63119">
        <ele>452.1</ele>
        <time>2013-04-10T12:34:50Z</time>
      </trkpt>
      <trkpt lat="43.41235" lon="5.63127">
        <ele>452.2</ele>
        <time>2013-04-10T12:34:58Z</time>
      </trkpt>
      <trkpt lat="43.41228" lon="5.63136">
        <ele>453.3</ele>
        <time>2013-04-10T12:35:06Z</time>
      </trkpt>
      <trkpt lat="43.41222" lon="5.63144">
        <ele>453.8</ele>
        <time>2013-04-10T12:35:14Z</time>
      </trkpt>
      <trkpt lat="43.41221" lon="5.63145">
        <ele>454</ele>
        <time>2013-04-10T12:35:15Z</time>
      </trkpt>
      <trkpt lat="43.4121" lon="5.6316">
        <ele>453.8</ele>
        <time>2013-04-10T12:35:31Z</time>
      </trkpt>
      <trkpt lat="43.41205" lon="5.6317">
        <ele>454.2</ele>
        <time>2013-04-10T12:35:40Z</time>
      </trkpt>
      <trkpt lat="43.41201" lon="5.63179">
        <ele>454.2</ele>
        <time>2013-04-10T12:35:49Z</time>
      </trkpt>
      <trkpt lat="43.41198" lon="5.6319">
        <ele>457.7</ele>
        <time>2013-04-10T12:35:59Z</time>
      </trkpt>
      <trkpt lat="43.41194" lon="5.632">
        <ele>457.7</ele>
        <time>2013-04-10T12:36:11Z</time>
      </trkpt>
      <trkpt lat="43.41189" lon="5.6321">
        <ele>458.6</ele>
        <time>2013-04-10T12:36:20Z</time>
      </trkpt>
      <trkpt lat="43.41189" lon="5.63211">
        <ele>458.6</ele>
        <time>2013-04-10T12:36:21Z</time>
      </trkpt>
      <trkpt lat="43.4118" lon="5.6323">
        <ele>459</ele>
        <time>2013-04-10T12:36:36Z</time>
      </trkpt>
      <trkpt lat="43.41175" lon="5.63239">
        <ele>459.3</ele>
        <time>2013-04-10T12:36:45Z</time>
      </trkpt>
      <trkpt lat="43.41171" lon="5.63249">
        <ele>458.7</ele>
        <time>2013-04-10T12:36:53Z</time>
      </trkpt>
      <trkpt lat="43.41168" lon="5.63259">
        <ele>459.2</ele>
        <time>2013-04-10T12:37:01Z</time>
      </trkpt>
      <trkpt lat="43.41164" lon="5.6327">
        <ele>459.1</ele>
        <time>2013-04-10T12:37:09Z</time>
      </trkpt>
      <trkpt lat="43.4116" lon="5.63279">
        <ele>459.2</ele>
        <time>2013-04-10T12:37:17Z</time>
      </trkpt>
      <trkpt lat="43.41156" lon="5.63289">
        <ele>460.7</ele>
        <time>2013-04-10T12:37:24Z</time>
      </trkpt>
      <trkpt lat="43.41156" lon="5.63291">
        <ele>460.8</ele>
        <time>2013-04-10T12:37:25Z</time>
      </trkpt>
      <trkpt lat="43.41149" lon="5.63311">
        <ele>462.3</ele>
        <time>2013-04-10T12:37:40Z</time>
      </trkpt>
      <trkpt lat="43.41145" lon="5.63322">
        <ele>461.7</ele>
        <time>2013-04-10T12:37:48Z</time>
      </trkpt>
      <trkpt lat="43.41141" lon="5.63332">
        <ele>462.2</ele>
        <time>2013-04-10T12:37:54Z</time>
      </trkpt>
      <trkpt lat="43.41138" lon="5.63343">
        <ele>462.7</ele>
        <time>2013-04-10T12:38:01Z</time>
      </trkpt>
      <trkpt lat="43.41134" lon="5.63354">
        <ele>463.3</ele>
        <time>2013-04-10T12:38:09Z</time>
      </trkpt>
      <trkpt lat="43.4113" lon="5.63364">
        <ele>464</ele>
        <time>2013-04-10T12:38:17Z</time>
      </trkpt>
      <trkpt lat="43.41126" lon="5.63374">
        <ele>464.2</ele>
        <time>2013-04-10T12:38:25Z</time>
      </trkpt>
      <trkpt lat="43.41125" lon="5.63375">
        <ele>464.2</ele>
        <time>2013-04-10T12:38:26Z</time>
      </trkpt>
      <trkpt lat="43.41118" lon="5.63395">
        <ele>465.2</ele>
        <time>2013-04-10T12:38:44Z</time>
      </trkpt>
      <trkpt lat="43.41114" lon="5.63404">
        <ele>464.7</ele>
        <time>2013-04-10T12:38:53Z</time>
      </trkpt>
      <trkpt lat="43.4111" lon="5.63415">
        <ele>465.2</ele>
        <time>2013-04-10T12:39:02Z</time>
      </trkpt>
      <trkpt lat="43.41106" lon="5.63426">
        <ele>465.7</ele>
        <time>2013-04-10T12:39:11Z</time>
      </trkpt>
      <trkpt lat="43.41103" lon="5.63438">
        <ele>470.7</ele>
        <time>2013-04-10T12:39:23Z</time>
      </trkpt>
      <trkpt lat="43.41104" lon="5.6345">
        <ele>469.7</ele>
        <time>2013-04-10T12:44:14Z</time>
      </trkpt>
      <trkpt lat="43.41104" lon="5.6345">
        <ele>469.7</ele>
        <time>2013-04-10T12:44:15Z</time>
      </trkpt>
      <trkpt lat="43.41093" lon="5.63467">
        <ele>467.7</ele>
        <time>2013-04-10T12:44:38Z</time>
      </trkpt>
      <trkpt lat="43.41089" lon="5.63477">
        <ele>467.8</ele>
        <time>2013-04-10T12:44:48Z</time>
      </trkpt>
      <trkpt lat="43.41084" lon="5.63487">
        <ele>468.8</ele>
        <time>2013-04-10T12:44:58Z</time>
      </trkpt>
      <trkpt lat="43.4108" lon="5.63498">
        <ele>469</ele>
        <time>2013-04-10T12:45:08Z</time>
      </trkpt>
      <trkpt lat="43.41076" lon="5.63508">
        <ele>469.1</ele>
        <time>2013-04-10T12:45:16Z</time>
      </trkpt>
      <trkpt lat="43.41075" lon="5.6351">
        <ele>469.2</ele>
        <time>2013-04-10T12:45:17Z</time>
      </trkpt>
      <trkpt lat="43.41068" lon="5.63528">
        <ele>470.2</ele>
        <time>2013-04-10T12:45:32Z</time>
      </trkpt>
      <trkpt lat="43.41064" lon="5.63538">
        <ele>470.7</ele>
        <time>2013-04-10T12:45:40Z</time>
      </trkpt>
      <trkpt lat="43.4106" lon="5.63549">
        <ele>471.3</ele>
        <time>2013-04-10T12:45:47Z</time>
      </trkpt>
      <trkpt lat="43.41057" lon="5.63558">
        <ele>471.7</ele>
        <time>2013-04-10T12:45:53Z</time>
      </trkpt>
      <trkpt lat="43.41054" lon="5.63569">
        <ele>471.6</ele>
        <time>2013-04-10T12:45:59Z</time>
      </trkpt>
      <trkpt lat="43.4105" lon="5.63579">
        <ele>473.2</ele>
        <time>2013-04-10T12:46:05Z</time>
      </trkpt>
      <trkpt lat="43.41046" lon="5.6359">
        <ele>473.1</ele>
        <time>2013-04-10T12:46:12Z</time>
      </trkpt>
      <trkpt lat="43.41043" lon="5.636">
        <ele>472.3</ele>
        <time>2013-04-10T12:46:19Z</time>
      </trkpt>
      <trkpt lat="43.41042" lon="5.63602">
        <ele>471.8</ele>
        <time>2013-04-10T12:46:20Z</time>
      </trkpt>
      <trkpt lat="43.41037" lon="5.63622">
        <ele>471</ele>
        <time>2013-04-10T12:46:33Z</time>
      </trkpt>
      <trkpt lat="43.41035" lon="5.63633">
        <ele>470.8</ele>
        <time>2013-04-10T12:46:40Z</time>
      </trkpt>
      <trkpt lat="43.41032" lon="5.63643">
        <ele>471</ele>
        <time>2013-04-10T12:46:47Z</time>
      </trkpt>
      <trkpt lat="43.41029" lon="5.63653">
        <ele>471.2</ele>
        <time>2013-04-10T12:46:54Z</time>
      </trkpt>
      <trkpt lat="43.41026" lon="5.63664">
        <ele>471.6</ele>
        <time>2013-04-10T12:47:01Z</time>
      </trkpt>
      <trkpt lat="43.41024" lon="5.63675">
        <ele>472.2</ele>
        <time>2013-04-10T12:47:08Z</time>
      </trkpt>
      <trkpt lat="43.4102" lon="5.63686">
        <ele>472.6</ele>
        <time>2013-04-10T12:47:16Z</time>
      </trkpt>
      <trkpt lat="43.41017" lon="5.63697">
        <ele>472.7</ele>
        <time>2013-04-10T12:47:24Z</time>
      </trkpt>
      <trkpt lat="43.41017" lon="5.63699">
        <ele>472.8</ele>
        <time>2013-04-10T12:47:25Z</time>
      </trkpt>
      <trkpt lat="43.4101" lon="5.63719">
        <ele>475</ele>
        <time>2013-04-10T12:47:37Z</time>
      </trkpt>
      <trkpt lat="43.41008" lon="5.6373">
        <ele>477</ele>
        <time>2013-04-10T12:47:43Z</time>
      </trkpt>
      <trkpt lat="43.41006" lon="5.63741">
        <ele>476.6</ele>
        <time>2013-04-10T12:47:50Z</time>
      </trkpt>
      <trkpt lat="43.41004" lon="5.63752">
        <ele>476.2</ele>
        <time>2013-04-10T12:47:57Z</time>
      </trkpt>
      <trkpt lat="43.41002" lon="5.63763">
        <ele>476.5</ele>
        <time>2013-04-10T12:48:04Z</time>
      </trkpt>
      <trkpt lat="43.40998" lon="5.63773">
        <ele>476.2</ele>
        <time>2013-04-10T12:48:11Z</time>
      </trkpt>
      <trkpt lat="43.40994" lon="5.63784">
        <ele>476.2</ele>
        <time>2013-04-10T12:48:18Z</time>
      </trkpt>
      <trkpt lat="43.4099" lon="5.63795">
        <ele>476.1</ele>
        <time>2013-04-10T12:48:25Z</time>
      </trkpt>
      <trkpt lat="43.4099" lon="5.63796">
        <ele>476.1</ele>
        <time>2013-04-10T12:48:26Z</time>
      </trkpt>
      <trkpt lat="43.40983" lon="5.63816">
        <ele>476.6</ele>
        <time>2013-04-10T12:48:39Z</time>
      </trkpt>
      <trkpt lat="43.40978" lon="5.63825">
        <ele>476.6</ele>
        <time>2013-04-10T12:48:46Z</time>
      </trkpt>
      <trkpt lat="43.40973" lon="5.63834">
        <ele>476.8</ele>
        <time>2013-04-10T12:48:53Z</time>
      </trkpt>
      <trkpt lat="43.40968" lon="5.63842">
        <ele>476.8</ele>
        <time>2013-04-10T12:48:59Z</time>
      </trkpt>
      <trkpt lat="43.40963" lon="5.63851">
        <ele>477.1</ele>
        <time>2013-04-10T12:49:05Z</time>
      </trkpt>
      <trkpt lat="43.40959" lon="5.63861">
        <ele>477.1</ele>
        <time>2013-04-10T12:49:12Z</time>
      </trkpt>
      <trkpt lat="43.40954" lon="5.63871">
        <ele>476.7</ele>
        <time>2013-04-10T12:49:19Z</time>
      </trkpt>
      <trkpt lat="43.4095" lon="5.6388">
        <ele>476.2</ele>
        <time>2013-04-10T12:49:26Z</time>
      </trkpt>
      <trkpt lat="43.40949" lon="5.63881">
        <ele>476.2</ele>
        <time>2013-04-10T12:49:27Z</time>
      </trkpt>
      <trkpt lat="43.4094" lon="5.639">
        <ele>476.2</ele>
        <time>2013-04-10T12:49:40Z</time>
      </trkpt>
      <trkpt lat="43.40935" lon="5.6391">
        <ele>476.1</ele>
        <time>2013-04-10T12:49:47Z</time>
      </trkpt>
      <trkpt lat="43.4093" lon="5.63918">
        <ele>476.2</ele>
        <time>2013-04-10T12:49:54Z</time>
      </trkpt>
      <trkpt lat="43.40925" lon="5.63927">
        <ele>477.2</ele>
        <time>2013-04-10T12:50:01Z</time>
      </trkpt>
      <trkpt lat="43.4092" lon="5.63936">
        <ele>477.7</ele>
        <time>2013-04-10T12:50:08Z</time>
      </trkpt>
      <trkpt lat="43.40915" lon="5.63946">
        <ele>478.2</ele>
        <time>2013-04-10T12:50:15Z</time>
      </trkpt>
      <trkpt lat="43.4091" lon="5.63955">
        <ele>478.5</ele>
        <time>2013-04-10T12:50:22Z</time>
      </trkpt>
      <trkpt lat="43.40906" lon="5.63965">
        <ele>478.7</ele>
        <time>2013-04-10T12:50:29Z</time>
      </trkpt>
      <trkpt lat="43.40905" lon="5.63967">
        <ele>479.1</ele>
        <time>2013-04-10T12:50:30Z</time>
      </trkpt>
      <trkpt lat="43.40898" lon="5.63986">
        <ele>479.1</ele>
        <time>2013-04-10T12:50:44Z</time>
      </trkpt>
      <trkpt lat="43.40893" lon="5.63996">
        <ele>479.2</ele>
        <time>2013-04-10T12:50:52Z</time>
      </trkpt>
      <trkpt lat="43.40889" lon="5.64005">
        <ele>480.1</ele>
        <time>2013-04-10T12:50:59Z</time>
      </trkpt>
      <trkpt lat="43.40884" lon="5.64016">
        <ele>480.8</ele>
        <time>2013-04-10T12:51:06Z</time>
      </trkpt>
      <trkpt lat="43.4088" lon="5.64026">
        <ele>481.7</ele>
        <time>2013-04-10T12:51:14Z</time>
      </trkpt>
      <trkpt lat="43.40876" lon="5.64036">
        <ele>481.6</ele>
        <time>2013-04-10T12:51:22Z</time>
      </trkpt>
      <trkpt lat="43.40871" lon="5.64046">
        <ele>481.6</ele>
        <time>2013-04-10T12:51:30Z</time>
      </trkpt>
      <trkpt lat="43.40871" lon="5.64048">
        <ele>481.6</ele>
        <time>2013-04-10T12:51:31Z</time>
      </trkpt>
      <trkpt lat="43.40863" lon="5.64068">
        <ele>482.6</ele>
        <time>2013-04-10T12:51:48Z</time>
      </trkpt>
      <trkpt lat="43.40861" lon="5.64079">
        <ele>484.6</ele>
        <time>2013-04-10T12:53:38Z</time>
      </trkpt>
      <trkpt lat="43.40861" lon="5.6408">
        <ele>484.6</ele>
        <time>2013-04-10T12:53:39Z</time>
      </trkpt>
      <trkpt lat="43.40854" lon="5.641">
        <ele>487.3</ele>
        <time>2013-04-10T12:54:01Z</time>
      </trkpt>
      <trkpt lat="43.40851" lon="5.64111">
        <ele>488.7</ele>
        <time>2013-04-10T12:54:08Z</time>
      </trkpt>
      <trkpt lat="43.40848" lon="5.64122">
        <ele>488.2</ele>
        <time>2013-04-10T12:54:15Z</time>
      </trkpt>
      <trkpt lat="43.40845" lon="5.64132">
        <ele>487.2</ele>
        <time>2013-04-10T12:54:24Z</time>
      </trkpt>
      <trkpt lat="43.40842" lon="5.64144">
        <ele>486.2</ele>
        <time>2013-04-10T12:54:32Z</time>
      </trkpt>
      <trkpt lat="43.4084" lon="5.64154">
        <ele>485.6</ele>
        <time>2013-04-10T12:54:39Z</time>
      </trkpt>
      <trkpt lat="43.40839" lon="5.64156">
        <ele>485.5</ele>
        <time>2013-04-10T12:54:40Z</time>
      </trkpt>
      <trkpt lat="43.40834" lon="5.64176">
        <ele>485.3</ele>
        <time>2013-04-10T12:54:53Z</time>
      </trkpt>
      <trkpt lat="43.40831" lon="5.64187">
        <ele>485.7</ele>
        <time>2013-04-10T12:55:00Z</time>
      </trkpt>
      <trkpt lat="43.40828" lon="5.64198">
        <ele>486.2</ele>
        <time>2013-04-10T12:55:08Z</time>
      </trkpt>
      <trkpt lat="43.40826" lon="5.64209">
        <ele>486.3</ele>
        <time>2013-04-10T12:55:16Z</time>
      </trkpt>
      <trkpt lat="43.40822" lon="5.6422">
        <ele>486.7</ele>
        <time>2013-04-10T12:55:23Z</time>
      </trkpt>
      <trkpt lat="43.40819" lon="5.6423">
        <ele>488.8</ele>
        <time>2013-04-10T12:55:29Z</time>
      </trkpt>
      <trkpt lat="43.40815" lon="5.64241">
        <ele>488.8</ele>
        <time>2013-04-10T12:55:36Z</time>
      </trkpt>
      <trkpt lat="43.40812" lon="5.64251">
        <ele>489.5</ele>
        <time>2013-04-10T12:55:42Z</time>
      </trkpt>
      <trkpt lat="43.40812" lon="5.64252">
        <ele>489.6</ele>
        <time>2013-04-10T12:55:43Z</time>
      </trkpt>
      <trkpt lat="43.40805" lon="5.64271">
        <ele>491.3</ele>
        <time>2013-04-10T12:55:55Z</time>
      </trkpt>
      <trkpt lat="43.40801" lon="5.64282">
        <ele>492.6</ele>
        <time>2013-04-10T12:56:02Z</time>
      </trkpt>
      <trkpt lat="43.40796" lon="5.64291">
        <ele>494.2</ele>
        <time>2013-04-10T12:56:09Z</time>
      </trkpt>
      <trkpt lat="43.40793" lon="5.64302">
        <ele>495.6</ele>
        <time>2013-04-10T12:56:16Z</time>
      </trkpt>
      <trkpt lat="43.40788" lon="5.64312">
        <ele>495.7</ele>
        <time>2013-04-10T12:56:24Z</time>
      </trkpt>
      <trkpt lat="43.40784" lon="5.64322">
        <ele>496.1</ele>
        <time>2013-04-10T12:56:31Z</time>
      </trkpt>
      <trkpt lat="43.4078" lon="5.64331">
        <ele>497.2</ele>
        <time>2013-04-10T12:56:38Z</time>
      </trkpt>
      <trkpt lat="43.40775" lon="5.64341">
        <ele>497.1</ele>
        <time>2013-04-10T12:56:45Z</time>
      </trkpt>
      <trkpt lat="43.40774" lon="5.64343">
        <ele>497.2</ele>
        <time>2013-04-10T12:56:46Z</time>
      </trkpt>
      <trkpt lat="43.40768" lon="5.6436">
        <ele>497.7</ele>
        <time>2013-04-10T12:56:58Z</time>
      </trkpt>
      <trkpt lat="43.40763" lon="5.6437">
        <ele>498.2</ele>
        <time>2013-04-10T12:57:05Z</time>
      </trkpt>
      <trkpt lat="43.4076" lon="5.64379">
        <ele>499.2</ele>
        <time>2013-04-10T12:57:12Z</time>
      </trkpt>
      <trkpt lat="43.40755" lon="5.64389">
        <ele>499.5</ele>
        <time>2013-04-10T12:57:18Z</time>
      </trkpt>
      <trkpt lat="43.40751" lon="5.64398">
        <ele>499.5</ele>
        <time>2013-04-10T12:57:25Z</time>
      </trkpt>
      <trkpt lat="43.40747" lon="5.64408">
        <ele>499.7</ele>
        <time>2013-04-10T12:57:32Z</time>
      </trkpt>
      <trkpt lat="43.40742" lon="5.64418">
        <ele>500.3</ele>
        <time>2013-04-10T12:57:39Z</time>
      </trkpt>
      <trkpt lat="43.40737" lon="5.64429">
        <ele>500.7</ele>
        <time>2013-04-10T12:57:46Z</time>
      </trkpt>
      <trkpt lat="43.40737" lon="5.6443">
        <ele>500.7</ele>
        <time>2013-04-10T12:57:47Z</time>
      </trkpt>
      <trkpt lat="43.40729" lon="5.64448">
        <ele>501.7</ele>
        <time>2013-04-10T12:57:59Z</time>
      </trkpt>
      <trkpt lat="43.40726" lon="5.64459">
        <ele>502.3</ele>
        <time>2013-04-10T12:58:06Z</time>
      </trkpt>
      <trkpt lat="43.40723" lon="5.64469">
        <ele>503.2</ele>
        <time>2013-04-10T12:58:13Z</time>
      </trkpt>
      <trkpt lat="43.40721" lon="5.64481">
        <ele>503.6</ele>
        <time>2013-04-10T12:58:20Z</time>
      </trkpt>
      <trkpt lat="43.40718" lon="5.64492">
        <ele>504.1</ele>
        <time>2013-04-10T12:58:27Z</time>
      </trkpt>
      <trkpt lat="43.40717" lon="5.64504">
        <ele>504.2</ele>
        <time>2013-04-10T12:58:34Z</time>
      </trkpt>
      <trkpt lat="43.40717" lon="5.64515">
        <ele>506.2</ele>
        <time>2013-04-10T12:58:41Z</time>
      </trkpt>
      <trkpt lat="43.40717" lon="5.64527">
        <ele>507.2</ele>
        <time>2013-04-10T12:58:48Z</time>
      </trkpt>
      <trkpt lat="43.40717" lon="5.64529">
        <ele>507.2</ele>
        <time>2013-04-10T12:58:49Z</time>
      </trkpt>
      <trkpt lat="43.40718" lon="5.6455">
        <ele>511.2</ele>
        <time>2013-04-10T12:59:03Z</time>
      </trkpt>
      <trkpt lat="43.40719" lon="5.64562">
        <ele>510.7</ele>
        <time>2013-04-10T12:59:10Z</time>
      </trkpt>
      <trkpt lat="43.40721" lon="5.64574">
        <ele>508.1</ele>
        <time>2013-04-10T12:59:17Z</time>
      </trkpt>
      <trkpt lat="43.40722" lon="5.64584">
        <ele>506.6</ele>
        <time>2013-04-10T12:59:23Z</time>
      </trkpt>
      <trkpt lat="43.40724" lon="5.64596">
        <ele>507.3</ele>
        <time>2013-04-10T12:59:30Z</time>
      </trkpt>
      <trkpt lat="43.40726" lon="5.64608">
        <ele>507.7</ele>
        <time>2013-04-10T12:59:37Z</time>
      </trkpt>
      <trkpt lat="43.40729" lon="5.64619">
        <ele>507.6</ele>
        <time>2013-04-10T12:59:44Z</time>
      </trkpt>
      <trkpt lat="43.40731" lon="5.6463">
        <ele>506.2</ele>
        <time>2013-04-10T12:59:51Z</time>
      </trkpt>
      <trkpt lat="43.40731" lon="5.64632">
        <ele>506.7</ele>
        <time>2013-04-10T12:59:52Z</time>
      </trkpt>
      <trkpt lat="43.40735" lon="5.64652">
        <ele>506</ele>
        <time>2013-04-10T13:00:04Z</time>
      </trkpt>
      <trkpt lat="43.40739" lon="5.64664">
        <ele>502.3</ele>
        <time>2013-04-10T13:00:11Z</time>
      </trkpt>
      <trkpt lat="43.40742" lon="5.64675">
        <ele>501.7</ele>
        <time>2013-04-10T13:00:18Z</time>
      </trkpt>
      <trkpt lat="43.40745" lon="5.64685">
        <ele>502.3</ele>
        <time>2013-04-10T13:00:24Z</time>
      </trkpt>
      <trkpt lat="43.40748" lon="5.64696">
        <ele>504</ele>
        <time>2013-04-10T13:00:30Z</time>
      </trkpt>
      <trkpt lat="43.40751" lon="5.64706">
        <ele>504.7</ele>
        <time>2013-04-10T13:00:36Z</time>
      </trkpt>
      <trkpt lat="43.40754" lon="5.64717">
        <ele>505.2</ele>
        <time>2013-04-10T13:00:43Z</time>
      </trkpt>
      <trkpt lat="43.40757" lon="5.64728">
        <ele>505.2</ele>
        <time>2013-04-10T13:00:51Z</time>
      </trkpt>
      <trkpt lat="43.40759" lon="5.6474">
        <ele>505.2</ele>
        <time>2013-04-10T13:00:58Z</time>
      </trkpt>
      <trkpt lat="43.4076" lon="5.64742">
        <ele>505.3</ele>
        <time>2013-04-10T13:00:59Z</time>
      </trkpt>
      <trkpt lat="43.40764" lon="5.64762">
        <ele>505.6</ele>
        <time>2013-04-10T13:01:12Z</time>
      </trkpt>
      <trkpt lat="43.40767" lon="5.64773">
        <ele>504.8</ele>
        <time>2013-04-10T13:01:19Z</time>
      </trkpt>
      <trkpt lat="43.40768" lon="5.64785">
        <ele>504.1</ele>
        <time>2013-04-10T13:01:27Z</time>
      </trkpt>
      <trkpt lat="43.40771" lon="5.64795">
        <ele>504</ele>
        <time>2013-04-10T13:01:33Z</time>
      </trkpt>
      <trkpt lat="43.40774" lon="5.64806">
        <ele>502.7</ele>
        <time>2013-04-10T13:01:39Z</time>
      </trkpt>
      <trkpt lat="43.40777" lon="5.64816">
        <ele>502.2</ele>
        <time>2013-04-10T13:01:46Z</time>
      </trkpt>
      <trkpt lat="43.4078" lon="5.64828">
        <ele>501.3</ele>
        <time>2013-04-10T13:01:53Z</time>
      </trkpt>
      <trkpt lat="43.40783" lon="5.64838">
        <ele>501</ele>
        <time>2013-04-10T13:02:00Z</time>
      </trkpt>
      <trkpt lat="43.40783" lon="5.6484">
        <ele>500.8</ele>
        <time>2013-04-10T13:02:01Z</time>
      </trkpt>
      <trkpt lat="43.40786" lon="5.64861">
        <ele>495.2</ele>
        <time>2013-04-10T13:02:16Z</time>
      </trkpt>
      <trkpt lat="43.40789" lon="5.64873">
        <ele>494.6</ele>
        <time>2013-04-10T13:02:24Z</time>
      </trkpt>
      <trkpt lat="43.40791" lon="5.64883">
        <ele>494</ele>
        <time>2013-04-10T13:02:31Z</time>
      </trkpt>
      <trkpt lat="43.40792" lon="5.64895">
        <ele>494.7</ele>
        <time>2013-04-10T13:02:38Z</time>
      </trkpt>
      <trkpt lat="43.40795" lon="5.64906">
        <ele>494</ele>
        <time>2013-04-10T13:02:45Z</time>
      </trkpt>
      <trkpt lat="43.40797" lon="5.64917">
        <ele>493.6</ele>
        <time>2013-04-10T13:02:51Z</time>
      </trkpt>
      <trkpt lat="43.408" lon="5.64928">
        <ele>494.5</ele>
        <time>2013-04-10T13:02:57Z</time>
      </trkpt>
      <trkpt lat="43.40802" lon="5.64939">
        <ele>494.7</ele>
        <time>2013-04-10T13:03:04Z</time>
      </trkpt>
      <trkpt lat="43.40803" lon="5.64941">
        <ele>494.2</ele>
        <time>2013-04-10T13:03:05Z</time>
      </trkpt>
      <trkpt lat="43.40808" lon="5.64961">
        <ele>490.8</ele>
        <time>2013-04-10T13:03:18Z</time>
      </trkpt>
      <trkpt lat="43.40811" lon="5.64971">
        <ele>489.1</ele>
        <time>2013-04-10T13:03:25Z</time>
      </trkpt>
      <trkpt lat="43.40815" lon="5.64981">
        <ele>488.7</ele>
        <time>2013-04-10T13:03:32Z</time>
      </trkpt>
      <trkpt lat="43.40821" lon="5.64991">
        <ele>488.7</ele>
        <time>2013-04-10T13:03:38Z</time>
      </trkpt>
      <trkpt lat="43.40825" lon="5.65">
        <ele>490</ele>
        <time>2013-04-10T13:03:44Z</time>
      </trkpt>
      <trkpt lat="43.40827" lon="5.65011">
        <ele>489.3</ele>
        <time>2013-04-10T13:03:51Z</time>
      </trkpt>
      <trkpt lat="43.4083" lon="5.65021">
        <ele>488.2</ele>
        <time>2013-04-10T13:03:57Z</time>
      </trkpt>
      <trkpt lat="43.40833" lon="5.65033">
        <ele>487.6</ele>
        <time>2013-04-10T13:04:04Z</time>
      </trkpt>
      <trkpt lat="43.40834" lon="5.65044">
        <ele>486.7</ele>
        <time>2013-04-10T13:04:11Z</time>
      </trkpt>
      <trkpt lat="43.40834" lon="5.65045">
        <ele>486.5</ele>
        <time>2013-04-10T13:04:12Z</time>
      </trkpt>
      <trkpt lat="43.40838" lon="5.65066">
        <ele>485.6</ele>
        <time>2013-04-10T13:04:25Z</time>
      </trkpt>
      <trkpt lat="43.4084" lon="5.65077">
        <ele>484.2</ele>
        <time>2013-04-10T13:04:32Z</time>
      </trkpt>
      <trkpt lat="43.40839" lon="5.65089">
        <ele>481.3</ele>
        <time>2013-04-10T13:04:39Z</time>
      </trkpt>
      <trkpt lat="43.40838" lon="5.651">
        <ele>480.2</ele>
        <time>2013-04-10T13:04:46Z</time>
      </trkpt>
      <trkpt lat="43.40837" lon="5.65111">
        <ele>482</ele>
        <time>2013-04-10T13:04:52Z</time>
      </trkpt>
      <trkpt lat="43.40836" lon="5.65123">
        <ele>482.3</ele>
        <time>2013-04-10T13:04:59Z</time>
      </trkpt>
      <trkpt lat="43.40834" lon="5.65135">
        <ele>480.8</ele>
        <time>2013-04-10T13:05:06Z</time>
      </trkpt>
      <trkpt lat="43.40832" lon="5.65147">
        <ele>480.5</ele>
        <time>2013-04-10T13:05:13Z</time>
      </trkpt>
      <trkpt lat="43.40831" lon="5.65148">
        <ele>480.5</ele>
        <time>2013-04-10T13:05:14Z</time>
      </trkpt>
      <trkpt lat="43.40829" lon="5.65169">
        <ele>480.7</ele>
        <time>2013-04-10T13:05:27Z</time>
      </trkpt>
      <trkpt lat="43.40829" lon="5.6518">
        <ele>480.1</ele>
        <time>2013-04-10T13:05:34Z</time>
      </trkpt>
      <trkpt lat="43.40831" lon="5.65191">
        <ele>482</ele>
        <time>2013-04-10T13:05:41Z</time>
      </trkpt>
      <trkpt lat="43.40835" lon="5.65202">
        <ele>481.3</ele>
        <time>2013-04-10T13:05:49Z</time>
      </trkpt>
      <trkpt lat="43.40838" lon="5.65213">
        <ele>481</ele>
        <time>2013-04-10T13:05:55Z</time>
      </trkpt>
      <trkpt lat="43.40843" lon="5.65223">
        <ele>479.8</ele>
        <time>2013-04-10T13:06:02Z</time>
      </trkpt>
      <trkpt lat="43.40846" lon="5.65233">
        <ele>476.7</ele>
        <time>2013-04-10T13:06:09Z</time>
      </trkpt>
      <trkpt lat="43.40852" lon="5.65243">
        <ele>477.7</ele>
        <time>2013-04-10T13:06:15Z</time>
      </trkpt>
      <trkpt lat="43.40853" lon="5.65244">
        <ele>477.6</ele>
        <time>2013-04-10T13:06:16Z</time>
      </trkpt>
      <trkpt lat="43.40862" lon="5.65261">
        <ele>478.6</ele>
        <time>2013-04-10T13:06:29Z</time>
      </trkpt>
      <trkpt lat="43.40866" lon="5.65271">
        <ele>477.8</ele>
        <time>2013-04-10T13:06:36Z</time>
      </trkpt>
      <trkpt lat="43.40871" lon="5.6528">
        <ele>478.5</ele>
        <time>2013-04-10T13:06:44Z</time>
      </trkpt>
      <trkpt lat="43.40875" lon="5.6529">
        <ele>478.1</ele>
        <time>2013-04-10T13:06:52Z</time>
      </trkpt>
      <trkpt lat="43.40878" lon="5.65301">
        <ele>475.7</ele>
        <time>2013-04-10T13:06:59Z</time>
      </trkpt>
      <trkpt lat="43.40882" lon="5.65312">
        <ele>477.6</ele>
        <time>2013-04-10T13:07:07Z</time>
      </trkpt>
      <trkpt lat="43.40885" lon="5.65323">
        <ele>478.1</ele>
        <time>2013-04-10T13:07:14Z</time>
      </trkpt>
      <trkpt lat="43.40889" lon="5.65334">
        <ele>477.1</ele>
        <time>2013-04-10T13:07:21Z</time>
      </trkpt>
      <trkpt lat="43.40889" lon="5.65335">
        <ele>476.7</ele>
        <time>2013-04-10T13:07:22Z</time>
      </trkpt>
      <trkpt lat="43.40894" lon="5.65355">
        <ele>472.5</ele>
        <time>2013-04-10T13:07:34Z</time>
      </trkpt>
      <trkpt lat="43.40894" lon="5.65367">
        <ele>471.1</ele>
        <time>2013-04-10T13:07:42Z</time>
      </trkpt>
      <trkpt lat="43.40892" lon="5.65379">
        <ele>470.5</ele>
        <time>2013-04-10T13:07:49Z</time>
      </trkpt>
      <trkpt lat="43.40889" lon="5.6539">
        <ele>469.6</ele>
        <time>2013-04-10T13:07:57Z</time>
      </trkpt>
      <trkpt lat="43.40883" lon="5.65398">
        <ele>469.7</ele>
        <time>2013-04-10T13:08:05Z</time>
      </trkpt>
      <trkpt lat="43.40877" lon="5.65406">
        <ele>468.7</ele>
        <time>2013-04-10T13:08:13Z</time>
      </trkpt>
      <trkpt lat="43.4087" lon="5.65411">
        <ele>466.7</ele>
        <time>2013-04-10T13:08:20Z</time>
      </trkpt>
      <trkpt lat="43.40862" lon="5.65413">
        <ele>463.6</ele>
        <time>2013-04-10T13:08:29Z</time>
      </trkpt>
      <trkpt lat="43.40861" lon="5.65414">
        <ele>463.2</ele>
        <time>2013-04-10T13:08:30Z</time>
      </trkpt>
      <trkpt lat="43.40846" lon="5.65416">
        <ele>461.5</ele>
        <time>2013-04-10T13:09:16Z</time>
      </trkpt>
      <trkpt lat="43.40838" lon="5.65414">
        <ele>461.6</ele>
        <time>2013-04-10T13:09:23Z</time>
      </trkpt>
      <trkpt lat="43.4083" lon="5.65413">
        <ele>461.2</ele>
        <time>2013-04-10T13:09:30Z</time>
      </trkpt>
      <trkpt lat="43.40828" lon="5.65412">
        <ele>461.1</ele>
        <time>2013-04-10T13:09:31Z</time>
      </trkpt>
      <trkpt lat="43.40813" lon="5.65408">
        <ele>460</ele>
        <time>2013-04-10T13:09:44Z</time>
      </trkpt>
      <trkpt lat="43.40804" lon="5.65405">
        <ele>459.5</ele>
        <time>2013-04-10T13:09:51Z</time>
      </trkpt>
      <trkpt lat="43.40796" lon="5.65405">
        <ele>460.2</ele>
        <time>2013-04-10T13:09:58Z</time>
      </trkpt>
      <trkpt lat="43.40788" lon="5.65409">
        <ele>463.6</ele>
        <time>2013-04-10T13:10:04Z</time>
      </trkpt>
      <trkpt lat="43.4078" lon="5.6541">
        <ele>463.2</ele>
        <time>2013-04-10T13:10:11Z</time>
      </trkpt>
      <trkpt lat="43.40771" lon="5.65411">
        <ele>461.3</ele>
        <time>2013-04-10T13:10:19Z</time>
      </trkpt>
      <trkpt lat="43.40763" lon="5.65411">
        <ele>459</ele>
        <time>2013-04-10T13:10:27Z</time>
      </trkpt>
      <trkpt lat="43.40754" lon="5.65412">
        <ele>456.7</ele>
        <time>2013-04-10T13:10:35Z</time>
      </trkpt>
      <trkpt lat="43.40753" lon="5.65412">
        <ele>456.2</ele>
        <time>2013-04-10T13:10:36Z</time>
      </trkpt>
      <trkpt lat="43.40739" lon="5.6542">
        <ele>455.1</ele>
        <time>2013-04-10T13:10:49Z</time>
      </trkpt>
      <trkpt lat="43.40732" lon="5.65426">
        <ele>456.8</ele>
        <time>2013-04-10T13:10:55Z</time>
      </trkpt>
      <trkpt lat="43.40726" lon="5.65434">
        <ele>458.2</ele>
        <time>2013-04-10T13:11:02Z</time>
      </trkpt>
      <trkpt lat="43.40723" lon="5.65445">
        <ele>461.8</ele>
        <time>2013-04-10T13:11:08Z</time>
      </trkpt>
      <trkpt lat="43.40721" lon="5.65457">
        <ele>466.6</ele>
        <time>2013-04-10T13:11:13Z</time>
      </trkpt>
      <trkpt lat="43.40726" lon="5.65465">
        <ele>466.5</ele>
        <time>2013-04-10T13:11:19Z</time>
      </trkpt>
      <trkpt lat="43.40733" lon="5.6547">
        <ele>467.6</ele>
        <time>2013-04-10T13:11:25Z</time>
      </trkpt>
      <trkpt lat="43.40741" lon="5.65475">
        <ele>467.7</ele>
        <time>2013-04-10T13:11:31Z</time>
      </trkpt>
      <trkpt lat="43.40748" lon="5.65478">
        <ele>467.1</ele>
        <time>2013-04-10T13:11:36Z</time>
      </trkpt>
      <trkpt lat="43.4075" lon="5.65479">
        <ele>468.2</ele>
        <time>2013-04-10T13:11:37Z</time>
      </trkpt>
      <trkpt lat="43.40765" lon="5.65484">
        <ele>466.8</ele>
        <time>2013-04-10T13:11:48Z</time>
      </trkpt>
      <trkpt lat="43.40773" lon="5.65486">
        <ele>464.7</ele>
        <time>2013-04-10T13:11:54Z</time>
      </trkpt>
      <trkpt lat="43.4078" lon="5.65487">
        <ele>464.7</ele>
        <time>2013-04-10T13:12:00Z</time>
      </trkpt>
      <trkpt lat="43.40788" lon="5.65488">
        <ele>462.7</ele>
        <time>2013-04-10T13:12:06Z</time>
      </trkpt>
      <trkpt lat="43.40797" lon="5.6549">
        <ele>464.5</ele>
        <time>2013-04-10T13:12:12Z</time>
      </trkpt>
      <trkpt lat="43.40805" lon="5.65492">
        <ele>464.5</ele>
        <time>2013-04-10T13:12:21Z</time>
      </trkpt>
      <trkpt lat="43.40813" lon="5.65495">
        <ele>463.8</ele>
        <time>2013-04-10T13:12:27Z</time>
      </trkpt>
      <trkpt lat="43.40821" lon="5.65499">
        <ele>464.6</ele>
        <time>2013-04-10T13:12:33Z</time>
      </trkpt>
      <trkpt lat="43.40828" lon="5.65505">
        <ele>462.3</ele>
        <time>2013-04-10T13:12:40Z</time>
      </trkpt>
      <trkpt lat="43.40829" lon="5.65506">
        <ele>462.6</ele>
        <time>2013-04-10T13:12:41Z</time>
      </trkpt>
      <trkpt lat="43.40842" lon="5.65516">
        <ele>461.5</ele>
        <time>2013-04-10T13:12:51Z</time>
      </trkpt>
      <trkpt lat="43.40849" lon="5.65523">
        <ele>455.7</ele>
        <time>2013-04-10T13:12:58Z</time>
      </trkpt>
      <trkpt lat="43.40855" lon="5.65531">
        <ele>453.2</ele>
        <time>2013-04-10T13:13:05Z</time>
      </trkpt>
      <trkpt lat="43.40859" lon="5.65542">
        <ele>451.6</ele>
        <time>2013-04-10T13:13:12Z</time>
      </trkpt>
      <trkpt lat="43.40861" lon="5.65553">
        <ele>448.5</ele>
        <time>2013-04-10T13:13:19Z</time>
      </trkpt>
      <trkpt lat="43.40862" lon="5.65566">
        <ele>448.1</ele>
        <time>2013-04-10T13:13:26Z</time>
      </trkpt>
      <trkpt lat="43.40863" lon="5.65578">
        <ele>444.8</ele>
        <time>2013-04-10T13:13:33Z</time>
      </trkpt>
      <trkpt lat="43.40865" lon="5.65589">
        <ele>447.8</ele>
        <time>2013-04-10T13:13:40Z</time>
      </trkpt>
      <trkpt lat="43.40867" lon="5.65599">
        <ele>450.3</ele>
        <time>2013-04-10T13:13:46Z</time>
      </trkpt>
      <trkpt lat="43.40868" lon="5.65601">
        <ele>451.2</ele>
        <time>2013-04-10T13:13:47Z</time>
      </trkpt>
      <trkpt lat="43.40878" lon="5.65616">
        <ele>444</ele>
        <time>2013-04-10T13:13:57Z</time>
      </trkpt>
      <trkpt lat="43.40884" lon="5.65624">
        <ele>441.7</ele>
        <time>2013-04-10T13:14:04Z</time>
      </trkpt>
      <trkpt lat="43.4089" lon="5.65632">
        <ele>435.7</ele>
        <time>2013-04-10T13:14:11Z</time>
      </trkpt>
      <trkpt lat="43.40898" lon="5.65637">
        <ele>436.3</ele>
        <time>2013-04-10T13:14:16Z</time>
      </trkpt>
      <trkpt lat="43.40904" lon="5.65643">
        <ele>436.7</ele>
        <time>2013-04-10T13:14:22Z</time>
      </trkpt>
      <trkpt lat="43.40911" lon="5.65649">
        <ele>437.1</ele>
        <time>2013-04-10T13:14:28Z</time>
      </trkpt>
      <trkpt lat="43.40918" lon="5.65655">
        <ele>436.7</ele>
        <time>2013-04-10T13:14:34Z</time>
      </trkpt>
      <trkpt lat="43.40924" lon="5.65663">
        <ele>438.7</ele>
        <time>2013-04-10T13:14:40Z</time>
      </trkpt>
      <trkpt lat="43.4093" lon="5.65672">
        <ele>436.1</ele>
        <time>2013-04-10T13:14:47Z</time>
      </trkpt>
      <trkpt lat="43.40931" lon="5.65673">
        <ele>435.7</ele>
        <time>2013-04-10T13:14:48Z</time>
      </trkpt>
      <trkpt lat="43.4094" lon="5.6569">
        <ele>432.1</ele>
        <time>2013-04-10T13:15:01Z</time>
      </trkpt>
      <trkpt lat="43.40945" lon="5.65697">
        <ele>434.3</ele>
        <time>2013-04-10T13:15:06Z</time>
      </trkpt>
      <trkpt lat="43.40947" lon="5.65709">
        <ele>433.5</ele>
        <time>2013-04-10T13:15:13Z</time>
      </trkpt>
      <trkpt lat="43.40946" lon="5.65721">
        <ele>429.6</ele>
        <time>2013-04-10T13:15:22Z</time>
      </trkpt>
      <trkpt lat="43.40947" lon="5.65733">
        <ele>426.8</ele>
        <time>2013-04-10T13:15:29Z</time>
      </trkpt>
      <trkpt lat="43.40951" lon="5.65743">
        <ele>430.1</ele>
        <time>2013-04-10T13:15:35Z</time>
      </trkpt>
      <trkpt lat="43.40954" lon="5.65754">
        <ele>433.1</ele>
        <time>2013-04-10T13:15:41Z</time>
      </trkpt>
      <trkpt lat="43.40956" lon="5.65764">
        <ele>432.3</ele>
        <time>2013-04-10T13:15:47Z</time>
      </trkpt>
      <trkpt lat="43.40956" lon="5.65775">
        <ele>429.2</ele>
        <time>2013-04-10T13:15:53Z</time>
      </trkpt>
      <trkpt lat="43.40957" lon="5.65777">
        <ele>429.5</ele>
        <time>2013-04-10T13:15:54Z</time>
      </trkpt>
      <trkpt lat="43.40958" lon="5.65797">
        <ele>429.7</ele>
        <time>2013-04-10T13:16:04Z</time>
      </trkpt>
      <trkpt lat="43.40958" lon="5.65807">
        <ele>425.8</ele>
        <time>2013-04-10T13:16:10Z</time>
      </trkpt>
      <trkpt lat="43.40961" lon="5.65817">
        <ele>428.3</ele>
        <time>2013-04-10T13:16:15Z</time>
      </trkpt>
      <trkpt lat="43.40963" lon="5.65828">
        <ele>428.6</ele>
        <time>2013-04-10T13:16:22Z</time>
      </trkpt>
      <trkpt lat="43.40962" lon="5.65841">
        <ele>426.7</ele>
        <time>2013-04-10T13:16:30Z</time>
      </trkpt>
      <trkpt lat="43.40962" lon="5.65851">
        <ele>428.2</ele>
        <time>2013-04-10T13:16:36Z</time>
      </trkpt>
      <trkpt lat="43.4096" lon="5.65862">
        <ele>427.7</ele>
        <time>2013-04-10T13:16:42Z</time>
      </trkpt>
      <trkpt lat="43.40959" lon="5.65872">
        <ele>423.6</ele>
        <time>2013-04-10T13:16:49Z</time>
      </trkpt>
      <trkpt lat="43.40957" lon="5.65882">
        <ele>421.7</ele>
        <time>2013-04-10T13:16:54Z</time>
      </trkpt>
      <trkpt lat="43.40956" lon="5.65884">
        <ele>422.1</ele>
        <time>2013-04-10T13:16:55Z</time>
      </trkpt>
      <trkpt lat="43.40955" lon="5.65905">
        <ele>422.6</ele>
        <time>2013-04-10T13:17:07Z</time>
      </trkpt>
      <trkpt lat="43.40957" lon="5.65916">
        <ele>424.7</ele>
        <time>2013-04-10T13:17:13Z</time>
      </trkpt>
      <trkpt lat="43.40957" lon="5.65928">
        <ele>425.1</ele>
        <time>2013-04-10T13:17:19Z</time>
      </trkpt>
      <trkpt lat="43.40957" lon="5.65939">
        <ele>425.8</ele>
        <time>2013-04-10T13:17:25Z</time>
      </trkpt>
      <trkpt lat="43.40959" lon="5.65949">
        <ele>427.7</ele>
        <time>2013-04-10T13:17:31Z</time>
      </trkpt>
      <trkpt lat="43.40961" lon="5.6596">
        <ele>429.2</ele>
        <time>2013-04-10T13:17:37Z</time>
      </trkpt>
      <trkpt lat="43.40966" lon="5.65971">
        <ele>432.7</ele>
        <time>2013-04-10T13:17:44Z</time>
      </trkpt>
      <trkpt lat="43.40968" lon="5.6598">
        <ele>429.2</ele>
        <time>2013-04-10T13:17:49Z</time>
      </trkpt>
      <trkpt lat="43.40974" lon="5.65989">
        <ele>430.2</ele>
        <time>2013-04-10T13:17:54Z</time>
      </trkpt>
      <trkpt lat="43.4098" lon="5.65996">
        <ele>426.2</ele>
        <time>2013-04-10T13:18:03Z</time>
      </trkpt>
      <trkpt lat="43.40981" lon="5.65997">
        <ele>425.7</ele>
        <time>2013-04-10T13:18:04Z</time>
      </trkpt>
      <trkpt lat="43.40995" lon="5.66006">
        <ele>429.1</ele>
        <time>2013-04-10T13:21:54Z</time>
      </trkpt>
      <trkpt lat="43.40995" lon="5.66006">
        <ele>429.2</ele>
        <time>2013-04-10T13:21:55Z</time>
      </trkpt>
      <trkpt lat="43.40998" lon="5.66018">
        <ele>419.6</ele>
        <time>2013-04-10T13:23:04Z</time>
      </trkpt>
      <trkpt lat="43.41" lon="5.6604">
        <ele>410.2</ele>
        <time>2013-04-10T13:23:22Z</time>
      </trkpt>
      <trkpt lat="43.41002" lon="5.66051">
        <ele>405.7</ele>
        <time>2013-04-10T13:23:31Z</time>
      </trkpt>
      <trkpt lat="43.41011" lon="5.66054">
        <ele>410.2</ele>
        <time>2013-04-10T13:23:42Z</time>
      </trkpt>
      <trkpt lat="43.41017" lon="5.66061">
        <ele>415.2</ele>
        <time>2013-04-10T13:24:14Z</time>
      </trkpt>
      <trkpt lat="43.41018" lon="5.66062">
        <ele>415.2</ele>
        <time>2013-04-10T13:24:15Z</time>
      </trkpt>
      <trkpt lat="43.41026" lon="5.66081">
        <ele>414.3</ele>
        <time>2013-04-10T13:24:33Z</time>
      </trkpt>
      <trkpt lat="43.4103" lon="5.66091">
        <ele>411.2</ele>
        <time>2013-04-10T13:24:41Z</time>
      </trkpt>
      <trkpt lat="43.41033" lon="5.66101">
        <ele>408.8</ele>
        <time>2013-04-10T13:24:49Z</time>
      </trkpt>
      <trkpt lat="43.4104" lon="5.66109">
        <ele>412.7</ele>
        <time>2013-04-10T13:24:55Z</time>
      </trkpt>
      <trkpt lat="43.41041" lon="5.66122">
        <ele>411.8</ele>
        <time>2013-04-10T13:25:04Z</time>
      </trkpt>
      <trkpt lat="43.41039" lon="5.66133">
        <ele>410.2</ele>
        <time>2013-04-10T13:25:12Z</time>
      </trkpt>
      <trkpt lat="43.4104" lon="5.66143">
        <ele>412.5</ele>
        <time>2013-04-10T13:25:18Z</time>
      </trkpt>
      <trkpt lat="43.4104" lon="5.66145">
        <ele>413</ele>
        <time>2013-04-10T13:25:19Z</time>
      </trkpt>
      <trkpt lat="43.41044" lon="5.66166">
        <ele>417.7</ele>
        <time>2013-04-10T13:25:31Z</time>
      </trkpt>
      <trkpt lat="43.41046" lon="5.66177">
        <ele>419.2</ele>
        <time>2013-04-10T13:25:38Z</time>
      </trkpt>
      <trkpt lat="43.41047" lon="5.66188">
        <ele>419.8</ele>
        <time>2013-04-10T13:25:45Z</time>
      </trkpt>
      <trkpt lat="43.4105" lon="5.66199">
        <ele>419.6</ele>
        <time>2013-04-10T13:25:53Z</time>
      </trkpt>
      <trkpt lat="43.41053" lon="5.6621">
        <ele>419.7</ele>
        <time>2013-04-10T13:26:00Z</time>
      </trkpt>
      <trkpt lat="43.41058" lon="5.6622">
        <ele>419.3</ele>
        <time>2013-04-10T13:26:07Z</time>
      </trkpt>
      <trkpt lat="43.41064" lon="5.66229">
        <ele>422</ele>
        <time>2013-04-10T13:26:14Z</time>
      </trkpt>
      <trkpt lat="43.41069" lon="5.66239">
        <ele>424.6</ele>
        <time>2013-04-10T13:26:21Z</time>
      </trkpt>
      <trkpt lat="43.4107" lon="5.6624">
        <ele>424.5</ele>
        <time>2013-04-10T13:26:22Z</time>
      </trkpt>
      <trkpt lat="43.41078" lon="5.66257">
        <ele>427.3</ele>
        <time>2013-04-10T13:26:35Z</time>
      </trkpt>
      <trkpt lat="43.41085" lon="5.66263">
        <ele>431.2</ele>
        <time>2013-04-10T13:26:39Z</time>
      </trkpt>
      <trkpt lat="43.41088" lon="5.66274">
        <ele>427</ele>
        <time>2013-04-10T13:26:48Z</time>
      </trkpt>
      <trkpt lat="43.41091" lon="5.66284">
        <ele>426.1</ele>
        <time>2013-04-10T13:26:56Z</time>
      </trkpt>
      <trkpt lat="43.41094" lon="5.66295">
        <ele>423.7</ele>
        <time>2013-04-10T13:27:03Z</time>
      </trkpt>
      <trkpt lat="43.41095" lon="5.66306">
        <ele>420.5</ele>
        <time>2013-04-10T13:27:10Z</time>
      </trkpt>
      <trkpt lat="43.41095" lon="5.66318">
        <ele>417.5</ele>
        <time>2013-04-10T13:27:17Z</time>
      </trkpt>
      <trkpt lat="43.411" lon="5.66328">
        <ele>416.7</ele>
        <time>2013-04-10T13:27:23Z</time>
      </trkpt>
      <trkpt lat="43.411" lon="5.66329">
        <ele>417</ele>
        <time>2013-04-10T13:27:24Z</time>
      </trkpt>
      <trkpt lat="43.41104" lon="5.6635">
        <ele>420</ele>
        <time>2013-04-10T13:27:37Z</time>
      </trkpt>
      <trkpt lat="43.41104" lon="5.66363">
        <ele>418.8</ele>
        <time>2013-04-10T13:27:45Z</time>
      </trkpt>
      <trkpt lat="43.41104" lon="5.66375">
        <ele>415.3</ele>
        <time>2013-04-10T13:27:55Z</time>
      </trkpt>
      <trkpt lat="43.41103" lon="5.66387">
        <ele>416.6</ele>
        <time>2013-04-10T13:28:02Z</time>
      </trkpt>
      <trkpt lat="43.41104" lon="5.66399">
        <ele>417</ele>
        <time>2013-04-10T13:28:09Z</time>
      </trkpt>
      <trkpt lat="43.41104" lon="5.66411">
        <ele>417</ele>
        <time>2013-04-10T13:28:16Z</time>
      </trkpt>
      <trkpt lat="43.41105" lon="5.66423">
        <ele>416.1</ele>
        <time>2013-04-10T13:28:23Z</time>
      </trkpt>
      <trkpt lat="43.41108" lon="5.66433">
        <ele>416.7</ele>
        <time>2013-04-10T13:28:30Z</time>
      </trkpt>
      <trkpt lat="43.41108" lon="5.66435">
        <ele>416.3</ele>
        <time>2013-04-10T13:28:31Z</time>
      </trkpt>
      <trkpt lat="43.41116" lon="5.66454">
        <ele>417.2</ele>
        <time>2013-04-10T13:28:45Z</time>
      </trkpt>
      <trkpt lat="43.41122" lon="5.66463">
        <ele>420.1</ele>
        <time>2013-04-10T13:28:52Z</time>
      </trkpt>
      <trkpt lat="43.41126" lon="5.66473">
        <ele>418.1</ele>
        <time>2013-04-10T13:28:59Z</time>
      </trkpt>
      <trkpt lat="43.41133" lon="5.66479">
        <ele>419.8</ele>
        <time>2013-04-10T13:29:04Z</time>
      </trkpt>
      <trkpt lat="43.41139" lon="5.66489">
        <ele>420.7</ele>
        <time>2013-04-10T13:29:11Z</time>
      </trkpt>
      <trkpt lat="43.41144" lon="5.66498">
        <ele>421.2</ele>
        <time>2013-04-10T13:29:18Z</time>
      </trkpt>
      <trkpt lat="43.41148" lon="5.66507">
        <ele>421.8</ele>
        <time>2013-04-10T13:29:24Z</time>
      </trkpt>
      <trkpt lat="43.41152" lon="5.66517">
        <ele>421.2</ele>
        <time>2013-04-10T13:29:31Z</time>
      </trkpt>
      <trkpt lat="43.41152" lon="5.66519">
        <ele>420.3</ele>
        <time>2013-04-10T13:29:32Z</time>
      </trkpt>
      <trkpt lat="43.41158" lon="5.66539">
        <ele>410.2</ele>
        <time>2013-04-10T13:29:46Z</time>
      </trkpt>
      <trkpt lat="43.41162" lon="5.66547">
        <ele>408.7</ele>
        <time>2013-04-10T13:29:52Z</time>
      </trkpt>
      <trkpt lat="43.41168" lon="5.66556">
        <ele>410.2</ele>
        <time>2013-04-10T13:29:59Z</time>
      </trkpt>
      <trkpt lat="43.41175" lon="5.66564">
        <ele>408.2</ele>
        <time>2013-04-10T13:30:05Z</time>
      </trkpt>
      <trkpt lat="43.4118" lon="5.66572">
        <ele>409.7</ele>
        <time>2013-04-10T13:30:11Z</time>
      </trkpt>
      <trkpt lat="43.41186" lon="5.66579">
        <ele>408</ele>
        <time>2013-04-10T13:30:16Z</time>
      </trkpt>
      <trkpt lat="43.41192" lon="5.66587">
        <ele>408.2</ele>
        <time>2013-04-10T13:30:22Z</time>
      </trkpt>
      <trkpt lat="43.41199" lon="5.66593">
        <ele>411.2</ele>
        <time>2013-04-10T13:30:27Z</time>
      </trkpt>
      <trkpt lat="43.41204" lon="5.66602">
        <ele>410.6</ele>
        <time>2013-04-10T13:30:34Z</time>
      </trkpt>
      <trkpt lat="43.41205" lon="5.66603">
        <ele>410.5</ele>
        <time>2013-04-10T13:30:35Z</time>
      </trkpt>
      <trkpt lat="43.41217" lon="5.66617">
        <ele>410.2</ele>
        <time>2013-04-10T13:30:49Z</time>
      </trkpt>
      <trkpt lat="43.41224" lon="5.66622">
        <ele>408.8</ele>
        <time>2013-04-10T13:30:56Z</time>
      </trkpt>
      <trkpt lat="43.41233" lon="5.66625">
        <ele>410.7</ele>
        <time>2013-04-10T13:31:02Z</time>
      </trkpt>
      <trkpt lat="43.4124" lon="5.66632">
        <ele>410.2</ele>
        <time>2013-04-10T13:31:10Z</time>
      </trkpt>
      <trkpt lat="43.41248" lon="5.66637">
        <ele>410.1</ele>
        <time>2013-04-10T13:31:16Z</time>
      </trkpt>
      <trkpt lat="43.41255" lon="5.66643">
        <ele>408.2</ele>
        <time>2013-04-10T13:31:24Z</time>
      </trkpt>
      <trkpt lat="43.41262" lon="5.6665">
        <ele>407.1</ele>
        <time>2013-04-10T13:31:33Z</time>
      </trkpt>
      <trkpt lat="43.41269" lon="5.66657">
        <ele>406.3</ele>
        <time>2013-04-10T13:31:42Z</time>
      </trkpt>
      <trkpt lat="43.4127" lon="5.66658">
        <ele>406.5</ele>
        <time>2013-04-10T13:31:43Z</time>
      </trkpt>
      <trkpt lat="43.41284" lon="5.66669">
        <ele>406.7</ele>
        <time>2013-04-10T13:31:57Z</time>
      </trkpt>
      <trkpt lat="43.4129" lon="5.66672">
        <ele>407.7</ele>
        <time>2013-04-10T13:32:01Z</time>
      </trkpt>
      <trkpt lat="43.41299" lon="5.66676">
        <ele>409.7</ele>
        <time>2013-04-10T13:32:06Z</time>
      </trkpt>
      <trkpt lat="43.41306" lon="5.66681">
        <ele>410.1</ele>
        <time>2013-04-10T13:32:14Z</time>
      </trkpt>
      <trkpt lat="43.41314" lon="5.66687">
        <ele>412.1</ele>
        <time>2013-04-10T13:32:24Z</time>
      </trkpt>
      <trkpt lat="43.41322" lon="5.66693">
        <ele>413.7</ele>
        <time>2013-04-10T13:32:30Z</time>
      </trkpt>
      <trkpt lat="43.41326" lon="5.66702">
        <ele>415.2</ele>
        <time>2013-04-10T13:32:38Z</time>
      </trkpt>
      <trkpt lat="43.41329" lon="5.66713">
        <ele>416.2</ele>
        <time>2013-04-10T13:32:47Z</time>
      </trkpt>
      <trkpt lat="43.4133" lon="5.66714">
        <ele>416.7</ele>
        <time>2013-04-10T13:32:48Z</time>
      </trkpt>
      <trkpt lat="43.41342" lon="5.66729">
        <ele>417.6</ele>
        <time>2013-04-10T13:33:07Z</time>
      </trkpt>
      <trkpt lat="43.41349" lon="5.66733">
        <ele>420.3</ele>
        <time>2013-04-10T13:33:13Z</time>
      </trkpt>
      <trkpt lat="43.41357" lon="5.66734">
        <ele>423.2</ele>
        <time>2013-04-10T13:33:20Z</time>
      </trkpt>
      <trkpt lat="43.41364" lon="5.66728">
        <ele>424.8</ele>
        <time>2013-04-10T13:33:27Z</time>
      </trkpt>
      <trkpt lat="43.41369" lon="5.6672">
        <ele>424.2</ele>
        <time>2013-04-10T13:33:34Z</time>
      </trkpt>
      <trkpt lat="43.41373" lon="5.66709">
        <ele>423.5</ele>
        <time>2013-04-10T13:33:41Z</time>
      </trkpt>
      <trkpt lat="43.41376" lon="5.66699">
        <ele>424.5</ele>
        <time>2013-04-10T13:33:48Z</time>
      </trkpt>
      <trkpt lat="43.41377" lon="5.66698">
        <ele>424.6</ele>
        <time>2013-04-10T13:33:49Z</time>
      </trkpt>
    </trkseg>
  </trk>
</gpx>